GFSSGP_sfc_30mbdewp_000.txt.gz
Dewpoint
40 33 33 25 22 17 13 25 34 34 36 37 40 37 42 48 49 46 53 56 61 64 66 68 69 69 69 69 70 70 70 69 68 68 67 67 67 67 66 65 65 65 64 65 65 65 66 66 66
33 32 23 23 19 14 18 28 29 34 35 32 35 35 41 44 49 50 51 57 61 64 66 68 70 69 69 69 69 69 69 69 68 68 68 67 67 66 65 64 65 64 64 64 64 63 66 66 65
41 30 19 18 15 11 21 29 35 33 32 33 33 42 43 44 47 48 53 57 63 66 68 71 71 70 70 70 70 70 70 70 69 69 68 67 66 64 64 64 64 63 63 63 63 63 62 63 64
28 20 16 13 10 18 22 32 33 32 37 36 34 41 43 47 47 48 52 55 57 66 69 70 70 71 71 71 70 70 70 69 69 68 67 66 65 64 64 63 62 61 60 61 62 62 63 64 65
28 20 13 14 19 24 29 30 31 32 33 32 31 41 46 50 47 47 48 51 53 63 67 69 70 70 70 70 70 69 69 68 68 67 66 66 65 63 62 62 61 60 60 59 59 59 60 61 62
17 14 13 12 21 26 27 28 30 33 30 28 31 39 47 49 47 46 45 46 50 58 64 65 68 68 68 68 68 68 67 67 67 66 65 65 64 63 62 61 61 60 60 59 58 58 58 59 59
20 17 14 19 22 25 29 29 22 20 25 26 31 39 44 47 49 45 43 44 50 52 54 59 63 65 65 66 66 66 66 66 65 65 65 64 63 62 61 60 60 59 58 58 57 57 57 56 58
16 14 13 23 20 20 20 20 19 20 25 25 27 34 39 48 48 45 42 42 47 51 53 56 59 60 61 63 64 65 65 65 64 63 63 63 62 61 59 60 58 58 58 57 57 56 55 55 56
12 10 16 14 14 12 11 7 10 11 24 23 31 32 43 48 48 45 42 42 44 49 53 54 55 55 61 61 62 63 63 63 63 63 61 61 62 61 59 57 58 58 58 58 57 56 54 53 54
9 8 6 4 4 5 4 5 4 9 19 19 25 38 48 49 48 45 42 40 44 50 51 56 56 56 54 51 60 61 60 62 62 61 61 61 58 57 56 58 60 59 59 59 58 57 56 56 55
7 5 3 2 4 2 2 3 2 8 11 13 21 26 46 48 47 44 41 40 45 49 50 58 59 57 55 52 53 55 56 56 59 59 58 58 57 59 59 61 61 61 61 61 58 58 57 54 53
6 5 4 3 2 1 -2 1 0 4 8 13 21 26 43 43 44 43 42 41 44 48 50 59 58 58 56 56 52 53 54 54 55 57 57 57 57 56 54 53 50 49 50 51 52 51 52 52 49
7 4 5 4 4 7 11 7 9 6 10 13 19 31 40 43 44 44 44 43 44 47 50 55 58 57 58 55 56 56 55 56 54 54 55 55 55 55 54 51 50 49 48 48 49 48 49 49 45
6 6 6 8 13 12 10 10 15 14 11 11 18 28 36 41 43 44 44 43 45 46 51 57 58 56 53 53 54 56 55 54 55 51 49 51 52 53 52 50 50 48 48 49 47 47 49 49 47
10 10 13 15 17 16 14 15 13 16 15 13 14 20 28 36 39 41 42 43 44 43 45 59 63 56 50 51 54 54 47 46 47 48 48 48 49 50 52 51 50 51 51 49 49 50 49 49 48
10 12 12 15 16 19 17 15 14 17 16 16 16 16 19 30 34 39 42 42 42 45 46 58 59 53 48 52 49 49 50 49 48 49 48 49 49 49 50 51 50 51 53 50 50 49 48 48 47
13 10 12 17 16 18 16 16 16 18 20 19 18 19 18 21 33 35 39 41 42 42 45 53 54 50 47 49 48 48 48 48 46 44 47 46 46 49 48 48 50 51 50 50 50 49 48 48 48
11 8 6 5 16 12 10 12 18 20 20 20 19 18 21 21 26 36 36 39 42 42 43 49 51 46 45 48 48 45 44 44 45 45 44 46 45 45 46 47 48 50 49 47 48 50 48 47 47
10 7 6 14 18 15 12 16 18 21 20 22 21 23 24 36 42 43 43 44 43 45 43 50 49 48 46 46 43 42 43 42 43 42 41 41 44 43 44 44 45 43 44 45 45 44 43 44 47
12 11 11 15 17 15 17 14 19 22 24 24 24 28 35 37 37 40 42 46 49 48 49 48 46 43 41 41 42 43 42 41 41 43 42 43 42 41 39 41 41 43 43 42 44 46 43 40 41
16 15 22 20 20 18 16 17 19 22 24 26 28 29 32 33 36 38 42 45 45 45 43 42 41 41 42 41 40 39 39 40 40 41 42 42 42 39 39 39 41 42 41 40 41 41 41 41 40
18 25 23 20 18 14 15 12 19 21 24 27 29 30 30 30 32 35 41 43 44 44 43 41 40 39 40 40 40 39 39 40 42 44 44 44 40 39 37 37 39 40 41 39 42 39 41 41 39
24 26 23 21 19 17 16 17 22 21 22 26 29 30 32 34 35 37 39 41 43 44 43 42 40 39 39 39 39 40 44 45 44 43 41 39 39 37 36 36 37 40 39 40 41 39 41 42 41
27 26 24 24 22 21 17 20 26 23 24 27 30 32 33 34 35 37 39 41 42 43 42 41 38 37 39 40 41 40 38 38 38 38 37 36 35 35 36 37 37 40 39 39 40 42 41 40 40
24 24 22 23 21 21 24 18 26 26 28 28 30 32 35 36 37 36 37 38 40 40 40 40 41 39 38 37 37 37 38 38 37 36 35 34 34 35 34 37 36 37 37 38 38 39 41 39 38
25 23 26 21 22 21 19 13 24 28 29 29 30 31 33 35 37 36 37 38 38 39 40 41 41 40 39 39 38 39 38 37 36 36 34 34 34 35 34 37 37 36 37 37 38 38 38 38 39
26 24 22 26 29 24 14 24 27 27 27 28 28 30 31 33 35 35 36 37 38 39 39 40 40 40 39 40 39 37 37 37 35 33 34 33 35 34 36 37 36 36 36 37 37 37 36 36 37
26 24 23 24 20 16 14 17 26 26 26 26 26 27 29 32 34 36 36 37 38 39 41 42 41 41 39 37 35 35 35 36 34 34 33 35 35 34 35 36 37 37 37 36 36 36 36 35 35
26 25 24 20 22 20 18 16 22 24 25 26 27 29 30 32 33 35 36 38 39 40 39 41 41 39 38 36 35 35 35 34 34 34 35 35 35 34 34 34 34 34 34 37 37 36 35 32 31
25 25 22 24 22 28 27 23 25 26 30 30 30 32 33 35 36 36 38 38 37 39 39 40 40 40 38 37 36 34 34 32 32 34 32 31 32 33 31 31 31 32 32 34 36 35 35 33 32

GFSSGP_sfc_30mbdewp_003.txt.gz
Dewpoint
34 33 35 29 22 22 17 23 37 35 34 37 45 47 48 49 48 49 62 64 66 68 69 69 69 69 70 71 70 70 70 69 68 68 68 68 67 67 66 66 66 65 64 65 64 65 66 66 65
35 33 32 24 21 18 27 34 32 32 32 41 43 44 47 48 52 56 61 64 66 68 69 69 69 69 70 70 70 70 70 69 69 69 68 68 66 65 65 65 65 64 64 64 63 63 63 63 64
37 34 22 21 19 15 27 32 31 32 35 34 42 46 46 47 50 55 64 67 69 70 71 70 69 70 70 70 70 70 70 70 69 69 67 66 65 64 65 64 63 62 62 62 63 63 64 65 65
28 26 18 14 13 22 32 33 34 36 36 41 42 46 46 47 50 57 67 69 70 70 71 71 71 71 70 70 70 70 69 69 68 67 66 66 64 64 63 62 61 60 60 60 60 60 61 63 64
37 25 15 15 18 31 31 32 33 35 34 40 48 47 45 48 52 55 66 68 69 70 71 71 71 71 71 70 70 69 68 68 68 67 66 65 63 63 62 62 61 60 60 59 59 59 58 60 61
23 19 14 14 21 27 28 30 33 35 33 39 47 47 45 46 47 50 59 65 68 69 70 70 70 69 69 69 68 68 67 67 67 66 66 64 63 63 62 61 60 60 59 59 58 58 57 57 58
20 19 15 23 25 27 24 22 18 32 27 39 46 45 46 45 44 46 52 61 65 67 67 67 67 67 66 66 67 66 66 65 65 64 64 64 63 61 61 60 59 58 58 57 57 56 56 56 57
19 18 14 18 24 18 19 16 13 24 22 28 43 42 46 45 44 43 49 52 56 60 63 63 63 64 64 65 65 65 65 64 63 62 63 62 62 59 60 59 58 58 56 57 56 55 55 55 55
19 12 10 14 23 13 14 10 6 20 22 33 36 44 48 46 42 40 43 47 51 55 59 60 61 61 62 63 64 64 63 63 62 62 62 62 62 60 59 59 58 58 58 58 58 56 55 55 55
13 10 8 6 10 7 8 5 5 16 20 32 44 46 46 45 43 40 40 43 47 51 55 57 58 62 60 59 62 62 63 63 63 63 63 62 62 62 59 59 59 59 59 60 59 59 57 57 56
10 5 2 2 4 5 4 5 8 16 17 22 44 45 46 46 44 42 40 42 47 49 55 57 56 55 56 58 61 62 62 62 63 62 60 60 58 59 58 60 60 60 61 60 60 59 58 56 56
5 5 3 2 4 2 2 1 1 6 12 18 37 47 47 46 45 42 41 41 47 49 57 58 58 56 55 52 55 57 58 59 60 60 59 59 57 54 53 51 52 55 57 59 59 56 54 55 53
5 5 4 3 5 11 8 3 4 5 12 17 27 46 47 46 45 44 42 40 46 49 57 58 58 57 56 55 56 55 56 55 56 58 57 55 55 52 53 52 50 49 49 49 49 49 48 50 49
8 5 3 3 8 12 9 9 13 13 11 13 26 42 43 44 43 43 43 42 43 48 57 58 58 59 57 54 56 56 54 54 56 53 52 53 51 54 53 51 51 49 50 50 48 47 47 48 49
9 6 7 9 16 14 15 15 13 14 10 10 17 31 40 44 44 44 44 43 44 48 60 59 61 60 53 53 54 56 46 47 49 49 48 49 50 50 50 51 51 51 52 52 50 49 50 49 50
9 12 11 15 18 17 14 13 15 17 16 13 16 18 20 41 43 44 44 42 43 56 59 60 58 59 54 52 50 50 50 47 49 49 50 48 49 49 49 47 47 51 51 50 48 48 49 49 49
11 9 14 14 18 20 18 16 16 17 17 17 18 15 17 24 38 42 43 42 40 46 57 57 53 56 54 48 49 49 47 47 47 46 45 43 47 47 46 46 46 48 48 48 49 49 49 46 45
13 12 16 17 16 13 11 15 19 20 21 21 21 31 35 42 43 44 44 42 41 48 55 55 55 55 49 48 44 45 42 43 43 40 39 41 44 42 41 42 42 43 44 43 43 44 44 44 44
13 12 16 18 17 16 14 19 23 25 25 29 39 40 40 41 44 47 46 46 47 50 49 50 46 43 45 42 42 40 39 40 41 39 42 40 39 39 40 40 44 44 41 42 42 43 40 41 43
12 18 21 18 17 14 14 19 24 27 29 32 36 36 38 41 43 44 43 43 45 43 42 42 42 41 42 43 43 41 40 40 39 40 41 43 43 43 40 41 43 42 40 39 38 37 41 41 41
22 22 21 20 20 18 18 20 23 26 28 30 31 34 36 39 41 43 43 42 42 41 40 39 38 38 40 39 38 38 38 39 41 44 43 42 44 41 39 39 39 39 41 38 39 41 37 38 40
25 27 24 21 20 16 17 17 22 26 29 30 32 34 36 39 42 43 43 42 42 42 40 39 38 37 38 39 39 39 42 43 43 42 41 43 39 37 38 37 37 40 40 39 40 41 41 42 40
26 26 24 23 21 20 18 20 22 27 28 29 30 32 35 38 40 41 42 42 42 41 40 39 38 38 38 37 37 40 39 39 40 41 37 35 35 36 36 37 37 39 39 38 39 40 40 40 40
25 27 27 26 25 21 23 24 28 31 28 31 33 34 35 36 38 40 42 42 41 41 39 37 36 36 38 37 37 39 36 36 38 35 32 32 34 36 33 36 37 38 38 38 38 41 40 39 39
28 26 25 23 23 22 27 24 31 30 30 32 34 36 37 37 37 39 40 40 40 39 39 39 39 38 37 38 37 36 37 35 34 32 31 31 34 32 34 36 36 35 35 37 37 38 38 38 37
27 26 22 22 20 21 17 23 27 28 30 30 31 33 36 36 37 37 37 38 39 38 38 40 39 38 38 38 37 37 37 36 34 32 30 31 33 35 36 37 36 37 36 36 36 36 36 37 36
28 21 22 25 30 23 23 26 27 28 28 29 28 29 35 36 36 35 37 39 39 39 40 40 40 39 34 35 35 35 36 37 36 33 32 35 36 35 37 37 36 35 35 36 35 35 35 36 36
24 24 24 22 19 16 19 26 28 30 31 27 27 30 32 35 37 37 38 39 38 40 41 40 39 38 36 35 37 38 37 37 39 36 35 34 34 34 34 33 34 33 33 34 36 35 34 34 34
26 27 25 24 23 19 20 20 29 29 29 29 31 34 35 35 36 37 37 38 39 38 38 38 38 38 37 36 36 35 35 35 36 34 32 32 32 33 32 31 30 30 31 32 34 34 34 34 33
26 26 27 22 27 29 27 20 31 30 30 30 33 34 35 35 36 37 37 36 34 34 33 33 35 38 37 37 37 36 35 33 34 32 30 30 29 30 31 29 25 24 23 24 27 31 32 29 24

GFSSGP_sfc_30mbdewp_006.txt.gz
Dewpoint
33 31 34 28 21 22 18 22 37 39 42 48 49 49 49 50 48 47 64 66 68 69 69 69 69 70 70 70 70 69 69 69 68 68 68 67 66 64 65 65 65 64 63 62 62 62 62 63 64
34 33 31 25 21 18 28 32 39 42 43 46 47 50 52 54 60 62 63 67 68 68 69 68 70 70 70 70 70 69 69 69 69 68 67 66 65 64 64 64 64 62 61 61 62 63 63 64 64
35 33 21 20 20 15 27 30 34 39 41 43 45 47 48 54 60 61 65 67 68 68 69 69 70 70 70 70 70 70 70 70 69 67 66 65 64 64 63 62 61 60 60 60 60 60 62 63 63
29 26 18 15 15 15 27 32 36 41 44 45 46 45 47 52 58 64 67 69 68 69 69 69 70 70 70 70 69 69 69 69 67 66 66 64 64 62 62 61 60 59 59 59 59 59 59 60 61
36 22 15 14 16 31 33 34 35 35 46 45 45 44 48 59 66 67 68 68 67 68 70 70 70 70 70 69 69 68 68 68 67 67 65 64 63 62 61 60 59 59 59 58 58 57 57 57 58
21 18 14 13 27 29 27 34 35 45 46 45 45 46 47 58 65 66 68 68 68 67 69 70 70 70 70 69 68 67 66 66 66 66 65 63 63 62 61 59 59 58 57 57 57 56 56 56 56
19 17 14 24 31 29 21 25 32 41 45 46 45 44 45 54 62 65 67 68 69 69 69 69 69 68 67 67 66 66 66 65 65 65 64 62 61 61 60 59 58 58 56 56 55 55 55 55 55
20 18 13 22 30 20 17 18 24 36 41 46 46 43 43 45 56 61 65 66 66 66 66 66 66 65 65 65 65 65 64 63 63 63 62 61 60 59 60 59 58 58 56 56 56 56 55 55 54
20 16 12 12 20 19 12 19 17 26 36 38 40 45 44 45 49 54 57 59 61 62 63 63 62 62 63 64 64 64 63 62 62 62 62 62 61 59 59 60 57 59 57 57 58 58 57 55 55
20 12 10 11 17 13 9 11 15 26 38 44 46 46 44 42 46 48 50 54 56 58 60 59 60 60 61 61 63 62 62 62 61 62 62 62 62 62 59 59 60 59 60 59 60 60 60 58 56
12 6 2 6 12 7 5 5 12 24 35 45 45 44 42 40 41 45 45 49 53 56 58 59 60 60 59 59 60 61 62 61 62 62 62 62 62 59 61 59 59 60 59 59 60 59 58 57 56
7 5 1 4 4 4 4 5 10 18 21 45 46 44 43 41 40 40 41 45 50 55 56 58 60 60 57 59 60 60 60 61 62 62 60 59 58 54 54 54 55 54 54 55 57 57 56 54 55
4 2 2 6 12 7 2 0 3 12 22 45 46 45 45 43 42 41 41 43 50 54 56 57 57 56 55 55 58 58 59 60 61 60 59 56 55 52 52 52 51 50 50 50 49 51 49 48 49
6 3 1 4 11 12 6 9 12 11 26 45 46 46 46 46 44 43 42 41 49 56 57 59 58 58 55 56 56 56 56 56 57 58 56 53 52 54 53 51 51 50 52 52 51 49 49 49 50
6 3 5 3 13 11 15 15 10 13 22 44 46 46 46 46 46 44 43 40 47 56 58 58 58 57 54 54 56 56 50 51 53 52 51 51 51 51 51 49 47 49 50 49 49 49 49 48 48
9 9 6 12 16 16 13 10 15 12 13 28 41 44 44 45 44 44 44 43 49 58 58 60 54 56 53 53 53 50 49 49 49 51 48 49 49 48 46 43 43 46 46 46 44 46 45 44 45
13 7 12 13 17 17 15 15 16 14 11 12 19 31 35 40 44 45 43 44 58 59 59 57 58 57 54 52 51 49 48 47 45 44 43 46 44 43 42 41 41 44 44 43 44 42 44 41 41
8 12 13 13 15 19 16 16 18 20 29 35 39 42 44 43 44 46 49 51 54 58 57 55 57 56 51 47 46 45 44 44 41 40 42 43 42 42 41 41 43 44 43 40 40 39 39 41 42
14 16 16 17 16 14 20 23 26 36 39 39 41 44 43 42 43 45 46 46 47 47 49 48 50 48 43 45 43 42 39 40 40 42 43 43 44 43 42 43 42 43 41 40 39 40 40 37 39
20 18 18 18 19 14 23 25 30 35 37 38 40 42 42 42 41 42 43 43 43 42 43 43 42 43 44 44 44 43 41 41 43 44 42 43 41 40 39 38 39 41 39 38 39 41 39 40 40
26 21 21 19 20 19 24 24 29 31 33 34 36 40 42 42 41 41 41 40 39 38 38 38 39 40 40 40 39 40 41 42 43 40 41 38 37 38 37 37 38 39 40 38 38 40 40 39 41
24 27 24 21 17 8 18 20 25 30 32 35 38 40 41 42 42 42 41 40 40 39 38 37 37 37 38 38 38 39 41 40 42 42 38 34 36 36 36 37 38 40 39 38 40 41 40 39 38
25 26 24 23 21 22 20 21 25 29 30 32 36 39 40 41 41 41 41 41 40 40 39 38 38 38 37 37 38 40 39 38 41 37 33 32 35 35 36 38 38 37 38 38 39 40 39 40 39
25 27 29 28 26 20 25 24 26 28 29 32 35 37 38 39 40 41 42 41 40 40 38 37 36 36 38 37 37 39 37 38 35 32 31 31 34 34 36 36 36 36 37 37 37 36 37 37 36
27 29 23 22 22 20 28 27 29 31 32 34 35 36 37 39 40 41 40 39 39 39 39 39 39 38 38 39 38 38 37 34 32 32 33 31 32 35 37 37 36 36 37 36 36 35 35 36 35
26 26 22 21 18 19 25 25 27 32 35 36 36 36 37 37 40 40 40 39 39 41 41 40 37 36 37 36 36 37 36 36 36 36 34 35 37 37 37 36 35 34 34 35 35 34 34 34 33
27 22 25 25 28 21 25 26 28 29 30 31 31 33 36 37 37 38 39 39 40 39 39 38 36 34 34 35 37 37 38 38 38 39 37 36 36 36 35 35 33 33 33 33 34 33 33 33 32
21 25 24 22 16 15 23 25 25 29 28 29 32 34 36 37 37 37 38 38 38 37 37 38 39 36 35 37 38 38 38 38 39 37 35 33 33 34 32 31 30 30 30 32 33 32 32 33 33
26 25 26 25 23 16 19 21 29 31 31 32 34 35 36 37 37 37 36 36 35 33 33 35 36 38 37 37 37 37 36 36 36 35 33 32 33 33 31 30 28 25 25 26 27 28 31 33 28
26 27 26 18 25 28 25 23 30 30 32 34 35 35 36 37 37 37 36 34 32 32 30 27 30 31 31 35 37 38 37 35 34 33 32 32 31 30 28 27 25 22 22 23 23 26 26 23 21

GFSSGP_sfc_30mbdewp_009.txt.gz
Dewpoint
34 30 34 27 22 22 17 21 42 41 46 50 52 50 53 55 50 47 63 66 68 68 69 69 69 69 69 69 69 69 69 68 68 67 67 66 64 64 64 64 63 61 61 61 61 62 62 63 63
31 32 29 25 21 13 26 36 42 45 47 47 49 52 54 55 61 63 63 68 68 68 68 69 70 70 70 69 69 69 68 68 68 67 66 65 64 63 63 62 62 61 60 60 59 60 61 62 63
32 33 21 20 20 15 26 39 42 45 46 44 46 47 51 57 62 62 66 68 68 68 68 70 70 70 70 70 70 69 69 69 68 67 66 64 63 62 61 61 60 59 59 58 58 58 58 60 60
26 26 17 16 14 16 26 34 41 41 44 46 47 48 50 59 61 64 67 68 68 68 69 69 69 70 70 70 70 69 69 68 67 66 65 64 63 61 60 60 59 58 57 57 56 56 57 57 58
32 21 14 13 14 23 25 37 41 42 44 45 46 47 51 63 64 66 68 68 67 68 69 69 69 69 69 69 69 69 68 66 66 66 64 63 62 61 60 59 58 58 57 56 56 56 56 56 56
21 19 13 13 26 29 28 34 44 45 45 47 49 50 50 64 65 67 67 66 67 68 69 69 69 69 69 69 68 67 67 67 66 65 64 63 62 61 59 58 57 57 56 56 56 56 56 56 55
19 15 13 19 31 28 29 31 45 44 45 45 47 46 54 62 66 67 66 66 66 66 67 69 69 69 69 67 66 65 65 65 65 64 64 63 61 60 58 58 58 57 55 55 56 56 55 56 55
21 17 14 28 30 32 28 22 39 45 45 46 46 47 56 58 65 67 66 66 66 66 66 67 67 67 66 66 65 64 64 63 64 64 62 61 59 59 59 58 58 58 55 56 56 56 56 55 56
20 17 13 15 22 31 33 18 21 36 45 42 43 46 56 60 64 64 64 64 64 65 65 65 65 64 64 64 64 64 63 62 62 62 62 61 60 59 58 59 59 59 58 57 57 58 58 57 56
22 17 13 12 23 25 16 26 35 41 43 45 44 45 55 57 60 60 60 60 62 62 63 63 62 62 62 63 63 62 62 61 61 61 61 61 61 60 59 59 59 60 60 60 60 60 60 60 57
18 15 5 5 20 16 15 17 19 40 41 44 43 45 51 55 55 54 55 55 56 58 60 60 60 60 61 60 62 61 61 61 61 61 61 61 61 61 60 60 58 59 59 58 59 58 58 57 56
16 10 6 6 12 6 5 8 26 22 39 46 44 44 46 48 49 50 52 54 55 57 57 59 59 59 58 60 60 59 60 61 61 61 61 60 59 56 56 55 53 51 51 50 54 55 55 54 52
12 4 5 7 6 5 3 5 11 14 31 46 43 41 43 44 45 47 50 51 54 56 57 59 60 58 58 58 58 59 59 60 61 61 60 59 56 52 52 52 51 51 51 51 50 49 49 48 49
6 3 4 10 11 5 2 9 12 15 46 45 42 40 40 40 42 42 44 47 52 55 56 58 59 58 56 56 58 58 59 60 60 60 59 57 54 53 53 50 49 49 50 49 49 48 48 48 48
5 1 4 5 11 10 14 12 10 19 45 45 43 43 43 42 42 41 41 44 51 55 56 57 58 58 55 56 56 57 57 56 58 56 53 52 52 51 48 45 44 45 48 46 45 45 45 42 43
9 9 7 9 14 16 9 3 14 21 44 44 45 45 46 45 45 44 44 41 49 56 57 59 59 57 56 55 56 52 50 50 52 51 49 48 47 47 45 42 42 44 46 45 43 44 40 40 41
12 7 9 12 15 16 13 15 17 14 38 37 41 42 42 44 46 49 47 47 52 58 58 57 60 59 57 53 51 51 49 46 45 44 47 45 44 43 42 42 44 45 44 42 41 40 41 39 40
5 8 11 11 15 18 14 19 29 32 30 38 42 42 43 45 48 49 52 57 57 56 56 57 55 53 51 48 46 47 46 44 44 43 43 43 44 42 42 41 43 43 40 39 39 39 40 40 41
14 15 14 16 17 23 26 32 37 39 42 42 41 42 43 44 44 45 46 49 49 50 51 51 50 48 46 45 45 45 41 42 43 44 44 41 41 38 37 38 38 39 38 38 40 40 38 37 41
20 17 18 20 23 27 31 32 35 37 41 42 41 41 41 42 42 42 43 44 44 46 46 45 44 44 45 45 45 44 43 43 46 42 39 39 39 37 36 36 38 39 38 37 38 39 38 39 41
25 21 19 19 25 28 30 30 30 33 37 40 42 42 41 41 41 41 40 40 41 41 40 40 40 41 41 42 43 41 42 43 42 41 37 36 37 36 36 37 39 39 39 38 40 40 39 38 39
22 26 23 21 23 21 23 26 28 32 37 39 41 41 41 41 41 39 38 37 37 37 37 37 37 37 38 39 38 38 38 39 42 39 34 34 36 36 37 38 38 38 38 38 40 40 39 39 38
25 26 23 23 20 20 22 24 27 32 35 37 39 41 41 41 40 39 39 38 38 38 37 37 38 37 37 38 38 40 40 39 39 34 32 32 35 37 37 36 36 37 37 37 36 36 35 35 34
26 28 29 29 25 19 24 24 26 29 32 36 38 40 40 41 41 41 41 40 40 40 39 37 38 38 39 38 38 40 38 37 32 34 35 33 34 36 37 37 37 37 36 36 35 35 34 34 35
27 27 22 21 21 21 27 26 27 30 31 35 37 38 39 41 41 41 40 40 40 40 40 40 39 38 37 37 36 36 33 32 35 36 36 35 36 38 36 37 36 36 35 35 34 33 33 33 30
26 27 23 19 21 19 26 25 27 32 34 35 37 37 38 40 41 39 39 40 39 37 35 34 35 34 35 35 35 35 34 35 36 37 37 37 37 37 37 36 34 33 33 34 34 32 32 32 30
25 21 26 25 26 22 25 26 29 33 35 34 36 37 37 38 38 39 39 39 38 38 38 37 35 34 35 37 38 38 38 38 38 39 39 37 37 37 36 35 34 35 33 32 33 30 29 31 31
24 28 21 22 13 15 23 25 25 29 31 31 32 36 37 38 37 38 37 35 34 35 36 37 38 37 36 36 37 38 38 38 38 38 37 36 34 35 34 35 35 31 28 29 30 29 29 31 31
26 24 25 26 23 14 19 24 28 28 30 32 35 37 36 36 37 37 35 34 33 32 30 32 32 28 26 28 32 33 33 33 36 36 35 33 33 34 34 33 29 27 25 25 24 24 26 29 29
26 26 24 14 21 25 22 21 30 32 33 35 35 36 37 36 36 35 33 32 31 24 23 23 24 22 24 27 29 29 31 32 35 35 34 33 32 31 33 34 33 28 23 22 22 23 28 24 21

GFSSGP_sfc_30mbdewp_012.txt.gz
Dewpoint
44 39 34 29 12 20 16 24 40 42 48 52 53 53 54 56 50 46 64 66 68 68 69 69 69 69 69 69 68 69 68 68 67 67 66 64 64 63 63 62 62 60 60 60 60 60 61 62 62
29 32 28 25 18 14 22 27 43 46 48 49 50 51 54 53 61 62 63 68 68 68 68 69 69 69 69 69 69 69 68 68 67 67 65 64 63 62 61 62 62 59 58 57 57 57 58 58 59
31 31 21 20 19 13 23 41 45 46 46 45 46 50 52 53 62 62 66 68 68 68 69 69 69 69 69 69 69 69 69 68 68 66 65 64 62 61 60 60 60 58 56 55 54 54 55 56 57
27 25 17 15 14 17 29 40 46 45 47 46 44 46 51 59 61 65 67 68 67 68 69 69 69 69 70 69 69 69 69 68 67 66 64 63 61 60 59 59 57 56 55 54 55 55 56 56 56
28 19 13 12 14 18 21 37 42 43 45 43 43 44 51 63 65 67 67 67 66 68 68 69 69 69 69 69 69 69 68 67 66 65 64 63 62 60 59 58 57 56 56 56 56 57 57 56 56
23 18 13 12 23 30 31 40 44 45 46 46 47 50 54 65 65 66 67 67 67 67 68 68 68 68 69 69 69 68 67 66 66 65 64 63 62 60 58 58 57 56 57 57 58 57 57 57 56
19 15 13 24 30 30 27 44 44 42 43 46 48 50 58 63 65 66 66 67 68 67 68 68 68 68 68 68 67 67 66 66 65 64 63 63 61 59 58 58 58 56 56 56 56 57 57 57 57
21 16 20 32 31 31 33 30 43 43 45 46 48 51 56 61 65 65 65 64 65 65 65 66 66 68 67 66 66 64 64 64 64 63 62 61 60 59 59 58 58 58 57 57 57 57 57 57 57
20 16 14 28 32 31 33 27 32 42 45 44 44 53 58 64 64 63 63 64 64 65 65 66 66 66 65 64 64 64 63 63 62 62 61 60 58 58 58 59 59 59 59 59 59 59 59 59 58
22 17 14 21 31 34 37 29 35 43 44 44 48 58 63 63 62 61 60 60 62 62 63 64 65 64 63 63 63 62 61 61 61 61 61 60 60 59 60 59 59 60 60 60 60 60 60 59 57
20 18 12 15 32 33 25 28 28 43 42 44 50 57 60 62 61 61 61 61 61 63 63 63 63 62 61 61 62 60 61 60 60 60 60 60 60 60 59 59 58 57 56 54 55 56 56 56 55
16 15 11 7 24 21 20 18 34 37 37 45 53 57 58 58 58 57 57 57 58 59 61 61 60 60 60 60 60 59 60 60 60 61 61 60 59 58 56 54 51 50 50 50 51 51 52 50 49
19 14 6 7 14 10 9 14 30 24 40 45 52 55 54 55 55 53 53 54 55 56 58 58 59 58 59 58 59 59 59 60 60 60 61 59 57 53 52 51 51 50 51 50 48 48 48 48 47
15 4 6 11 5 4 4 8 11 19 45 43 49 51 51 52 51 50 51 52 54 56 57 58 59 59 57 58 58 58 59 60 60 60 59 57 54 53 52 49 48 47 48 47 47 47 46 45 44
5 1 4 7 10 8 13 10 10 32 45 42 43 46 44 43 43 44 45 49 52 55 57 58 59 57 57 57 57 58 58 57 58 57 54 53 52 52 47 44 43 44 47 45 44 44 41 40 41
8 9 3 7 13 15 6 2 15 43 44 43 43 43 44 45 45 44 45 43 49 57 58 59 59 59 59 57 57 55 52 53 52 51 51 48 46 44 43 43 44 45 43 41 41 42 39 40 40
11 7 9 10 15 15 11 15 32 29 44 42 42 42 45 45 48 50 51 45 53 58 59 58 59 59 58 55 54 51 48 47 46 45 44 44 44 43 42 43 43 41 39 39 39 39 38 38 39
5 8 9 10 15 22 20 33 38 38 40 42 42 43 45 46 46 50 54 55 57 58 57 57 56 55 53 49 48 48 46 47 46 44 42 42 41 40 40 39 39 39 37 38 38 36 38 39 40
13 12 11 14 19 31 34 36 38 42 41 40 42 43 44 45 45 49 49 51 52 53 55 52 53 51 48 47 46 43 43 45 44 42 40 40 38 37 36 37 38 38 37 38 39 38 37 36 41
19 18 18 23 28 32 33 33 35 38 41 41 42 43 44 44 44 44 46 48 48 50 52 50 47 46 47 45 46 47 44 45 42 39 37 38 36 37 37 38 39 38 37 38 39 38 36 37 41
24 19 20 21 30 31 31 31 34 38 41 41 41 42 42 43 43 42 42 43 45 45 44 43 44 43 44 45 43 42 43 44 41 39 34 36 36 37 37 38 38 37 37 38 38 38 37 36 38
21 26 22 26 25 23 26 25 31 36 39 40 41 41 42 41 39 39 37 37 37 37 38 38 39 38 39 39 38 38 38 39 40 35 33 35 36 36 37 36 37 36 38 39 38 38 36 37 34
25 27 23 22 20 20 24 26 27 35 37 39 40 41 41 39 38 37 36 36 37 38 38 38 38 39 38 38 40 40 39 40 35 33 34 33 35 35 35 36 37 38 37 36 36 35 33 34 32
27 28 28 28 25 17 22 23 26 32 34 37 39 41 41 40 40 39 40 40 39 39 38 38 39 38 39 38 39 38 38 33 32 35 35 35 35 36 36 37 37 37 36 35 34 34 33 33 32
28 26 21 21 21 19 26 25 24 31 34 37 38 39 40 41 40 40 40 40 40 39 39 38 36 35 35 34 34 34 33 32 34 35 36 36 37 38 38 37 36 35 35 34 33 31 30 30 28
25 26 21 17 19 22 26 25 27 31 33 37 38 39 40 41 41 40 39 37 35 34 34 35 34 34 36 37 36 36 36 36 37 38 38 38 38 37 37 36 34 33 33 32 33 33 30 31 28
25 19 26 24 25 21 24 27 30 34 33 35 36 37 39 40 39 39 39 38 37 38 37 35 35 35 35 35 36 37 38 37 37 38 38 38 37 37 37 35 36 36 35 35 33 32 28 29 29
25 28 19 21 8 9 22 25 25 32 32 34 35 36 38 38 38 38 36 35 36 36 38 38 33 27 26 27 30 29 28 29 32 34 35 36 36 36 35 35 35 35 33 30 31 30 28 28 29
26 24 25 25 22 10 13 21 28 31 33 33 34 36 38 37 37 34 34 33 31 31 29 26 23 21 22 24 26 27 29 30 31 32 35 35 34 34 34 35 32 29 30 30 27 25 25 25 29
27 25 22 12 16 23 21 17 29 31 32 33 35 37 37 37 35 34 32 30 24 22 22 21 21 21 23 24 25 27 29 30 30 31 33 33 33 33 32 32 34 34 31 27 23 22 23 26 23

GFSSGP_sfc_30mbdewp_015.txt.gz
Dewpoint
50 39 35 30 16 18 16 19 39 44 50 53 54 53 53 54 50 48 65 66 67 68 68 67 67 69 68 68 68 69 68 67 67 66 64 64 63 63 62 62 62 60 58 58 57 57 57 57 57
29 32 29 26 14 10 20 31 44 46 51 51 50 48 51 52 59 63 64 67 67 68 68 66 67 69 68 68 69 69 68 67 67 65 64 63 62 61 61 61 60 58 55 54 54 54 54 55 56
31 30 23 21 19 12 25 44 45 45 48 47 50 53 53 52 61 63 66 67 68 68 67 67 68 69 68 69 69 69 69 68 67 65 64 62 60 60 60 60 59 55 54 54 53 54 54 55 56
28 26 19 18 15 18 30 44 46 45 45 46 48 48 56 60 61 64 67 67 67 67 67 68 68 69 69 69 69 69 69 68 67 65 63 62 60 59 59 59 57 56 56 56 56 56 56 56 57
26 20 16 14 15 18 22 44 46 43 43 41 44 46 53 63 65 67 67 66 66 67 67 67 68 68 69 70 69 69 68 67 66 65 64 62 60 58 58 58 57 57 57 57 57 57 57 57 57
25 20 14 12 27 29 35 43 44 45 43 45 48 49 56 65 65 66 66 66 66 67 68 68 69 69 69 69 69 68 67 66 65 65 64 62 61 59 59 58 57 58 58 58 58 58 58 58 58
21 16 14 24 31 31 33 45 44 43 44 45 51 52 59 63 66 66 66 66 66 67 67 68 68 68 68 68 68 67 66 65 64 64 63 62 60 59 59 59 59 58 58 58 58 58 58 59 59
21 18 24 32 31 36 36 37 46 45 45 48 52 52 57 62 66 66 66 66 66 66 67 67 67 67 67 67 67 66 65 64 64 63 62 60 59 58 58 57 58 59 59 59 59 59 59 59 59
21 17 26 31 32 38 40 33 36 45 46 45 46 56 59 64 65 64 63 64 65 65 66 65 65 66 67 66 65 64 64 63 63 62 61 59 58 58 58 59 59 60 60 60 60 60 60 60 57
22 18 18 26 35 37 37 34 38 45 45 44 56 61 63 64 63 62 62 62 63 63 64 65 65 65 66 63 63 62 61 60 60 60 61 60 60 60 60 60 59 59 59 58 57 58 58 57 54
22 19 17 16 35 36 32 30 37 44 43 44 53 59 60 61 60 60 60 60 61 62 62 64 64 65 64 62 62 60 60 60 61 62 62 61 61 61 60 60 57 56 53 52 53 54 53 54 52
17 18 9 10 32 34 31 27 39 43 40 44 57 60 60 60 59 59 59 59 60 62 63 64 65 63 62 61 61 60 59 60 60 61 62 62 61 59 57 53 53 53 53 52 51 50 52 51 49
19 17 10 9 20 25 21 26 37 36 44 51 58 60 60 61 61 60 58 58 59 59 60 62 61 61 60 60 60 59 60 61 61 61 62 61 59 56 55 54 51 50 49 48 48 48 48 46 45
18 7 7 10 12 9 21 13 26 29 45 53 57 58 59 58 57 54 53 53 55 56 58 59 60 59 59 59 60 60 61 61 62 62 61 60 57 56 54 49 46 46 48 47 46 47 44 42 41
7 5 7 10 7 6 13 11 15 38 44 51 55 53 53 52 51 51 50 51 53 55 57 59 59 59 59 59 59 59 56 57 58 58 57 55 54 50 47 46 47 47 46 45 45 44 42 41 38
8 10 5 9 13 14 7 7 29 36 43 45 47 47 48 46 46 46 48 47 52 57 58 60 59 59 59 58 57 52 53 54 54 53 52 50 48 48 48 46 46 45 43 43 42 40 38 38 37
12 7 8 10 21 15 14 18 36 38 44 42 43 44 44 47 48 52 55 50 56 58 59 59 60 58 58 57 53 51 50 50 48 49 48 47 46 46 45 44 43 42 40 40 38 37 38 36 34
6 9 11 12 20 27 28 34 38 41 43 43 43 45 46 46 47 52 55 57 58 58 59 59 58 55 54 53 50 50 50 49 47 46 43 42 42 42 41 41 42 39 38 38 37 36 35 36 35
9 10 11 17 28 34 35 36 38 41 41 42 43 44 45 46 49 53 54 56 56 57 57 56 56 53 50 47 49 49 49 47 43 40 41 40 39 39 40 39 39 39 37 39 37 35 33 30 36
19 18 21 27 32 33 34 35 39 40 41 42 43 44 45 46 48 51 52 54 55 55 54 55 53 49 48 49 49 48 47 45 40 38 39 38 39 39 38 40 38 39 37 39 39 36 31 33 38
23 20 20 24 32 33 32 32 37 40 41 43 43 44 45 47 49 49 50 53 54 55 52 47 47 47 47 47 45 45 46 44 41 37 36 37 38 38 39 40 40 39 39 38 39 38 36 32 34
21 25 27 29 26 23 27 17 33 39 40 42 43 43 44 45 46 45 44 44 45 44 44 43 43 41 41 42 42 43 41 41 40 36 35 36 39 39 38 39 40 40 39 39 38 36 35 31 26
25 26 26 22 21 22 25 23 28 38 39 41 41 42 42 41 40 38 38 38 38 39 40 41 41 41 41 42 43 42 41 39 36 36 39 38 39 39 38 38 39 39 38 38 36 32 29 27 24
30 28 28 28 25 17 22 22 25 35 37 39 40 41 41 39 39 38 39 39 39 40 41 41 39 38 40 40 41 40 38 36 36 38 38 39 39 39 40 39 39 39 37 35 33 33 30 28 26
28 26 21 21 22 17 27 25 24 30 35 39 39 40 41 41 40 40 40 40 41 41 39 38 37 36 37 37 37 37 37 37 38 39 38 39 37 39 39 40 39 36 34 34 33 30 29 28 24
27 26 20 14 18 21 27 26 26 31 33 38 39 40 41 41 41 41 40 38 38 38 37 37 36 37 38 38 38 39 39 37 34 33 32 32 34 36 40 39 36 35 34 31 32 31 31 30 28
25 20 27 24 24 21 23 26 29 34 32 37 38 39 40 41 41 40 38 38 37 36 37 37 34 32 31 32 31 30 30 29 29 31 32 31 35 37 39 38 35 38 35 34 33 32 31 30 29
25 28 21 22 10 10 18 24 23 31 32 36 37 38 40 41 40 39 38 38 39 38 38 35 27 25 26 27 28 27 29 30 29 29 27 29 33 37 38 37 36 36 35 32 32 30 29 30 27
26 24 25 25 22 8 7 13 29 31 33 34 36 38 39 40 40 38 35 36 36 38 31 26 24 23 24 24 27 28 28 29 29 28 29 30 34 35 35 36 36 34 32 32 33 30 28 26 25
27 25 23 13 14 23 21 15 27 31 33 35 36 37 39 39 38 34 33 32 31 27 24 23 23 23 23 25 26 27 28 29 29 29 30 32 32 33 34 34 33 34 35 34 30 25 23 24 24

GFSSGP_sfc_30mbdewp_018.txt.gz
Dewpoint
50 35 23 27 20 18 18 20 36 47 48 51 52 51 51 51 51 48 63 63 64 65 64 65 68 68 68 68 68 68 68 67 66 64 64 63 62 62 62 62 61 58 57 56 55 54 53 54 55
22 20 28 23 18 16 17 21 34 46 47 47 45 48 49 48 57 62 62 65 65 66 64 63 68 68 68 69 69 68 68 67 65 64 63 62 62 61 61 60 59 57 54 53 52 52 54 56 57
21 29 20 14 13 13 17 35 42 45 45 42 45 51 52 51 55 61 65 66 66 66 64 64 68 68 68 68 68 68 68 67 66 64 62 61 61 60 60 59 58 56 56 56 55 54 56 57 57
18 23 20 13 13 14 28 40 42 42 44 44 45 47 51 56 52 61 66 66 67 67 65 67 67 67 67 67 68 69 68 67 66 65 62 60 59 58 58 58 58 57 57 56 56 56 57 58 58
21 18 14 12 13 14 31 43 43 40 39 41 42 46 47 56 61 63 66 66 65 67 66 66 67 66 66 67 69 69 68 67 66 65 63 60 57 57 58 58 58 58 57 57 57 58 58 58 59
15 18 11 12 20 27 23 42 43 39 37 40 40 45 53 62 62 65 66 66 65 65 65 65 65 65 67 69 69 68 67 66 65 64 63 60 59 58 58 58 58 58 59 58 58 58 59 59 59
17 10 11 19 28 33 34 43 41 39 35 41 46 46 59 63 64 65 64 64 65 65 65 65 64 66 68 68 67 66 66 65 64 64 63 61 59 60 60 59 58 58 59 59 60 60 60 60 60
21 13 16 24 30 36 41 43 39 38 40 48 48 45 56 62 64 64 64 64 65 65 65 65 64 65 65 65 67 65 65 64 63 63 61 59 58 58 58 58 60 60 60 60 60 60 60 59 58
23 11 16 28 31 37 35 34 39 40 43 47 48 51 57 63 63 63 63 64 64 64 64 63 62 63 62 61 65 64 63 63 62 61 60 57 54 55 55 58 59 60 60 60 60 60 59 56 55
20 14 15 29 33 35 36 32 32 42 44 45 53 57 60 62 62 61 61 61 62 63 63 64 64 65 64 60 60 57 55 53 56 56 57 56 58 57 57 58 58 57 55 54 54 55 54 53 44
21 15 16 31 35 30 30 32 32 37 42 43 51 58 60 61 61 61 60 61 61 61 62 63 64 65 61 58 56 52 53 56 58 60 60 60 59 59 55 52 51 52 52 49 49 48 46 49 46
19 19 14 28 35 28 26 30 32 37 38 43 52 58 60 60 60 59 59 56 55 58 59 62 64 63 60 56 53 54 54 57 58 60 61 61 58 57 54 50 52 52 50 49 46 45 48 47 45
19 18 15 14 27 31 30 28 33 37 40 49 55 56 57 57 55 54 52 52 53 53 57 60 60 60 59 57 56 57 59 58 60 61 62 61 59 58 53 53 51 49 47 46 45 44 43 42 41
19 15 10 10 26 27 26 26 33 33 46 51 54 54 55 55 53 51 50 50 52 52 57 59 57 57 56 58 59 60 61 62 62 63 62 60 60 59 55 52 48 46 46 45 44 43 40 39 40
14 10 10 10 21 23 24 20 21 37 45 48 49 50 53 53 53 49 47 46 47 51 56 58 58 57 59 59 59 57 57 59 60 61 59 58 57 54 50 50 49 47 45 44 42 41 40 39 38
9 9 6 13 16 13 18 14 27 39 43 45 47 50 52 50 49 48 48 46 47 51 56 59 59 59 59 58 57 57 56 57 57 57 57 55 52 50 51 47 46 46 43 41 40 39 37 37 36
8 1 4 13 20 14 10 10 30 40 42 43 46 47 48 47 48 51 51 47 49 53 57 60 60 59 59 58 56 55 54 55 54 52 49 49 48 48 45 44 44 42 40 40 38 36 37 34 34
5 8 3 6 21 9 13 25 29 40 41 41 42 44 45 46 47 51 52 52 53 56 58 60 60 59 59 57 56 53 51 48 47 45 44 43 43 43 41 42 42 39 37 37 38 38 37 37 36
8 9 8 15 29 26 24 25 30 36 41 42 42 44 45 45 49 53 54 56 56 58 58 59 58 58 57 54 51 48 49 47 44 42 43 42 41 40 40 37 38 39 38 40 39 37 35 34 35
14 10 17 23 29 28 27 29 33 34 38 41 42 43 44 46 49 53 55 56 56 57 57 58 57 56 52 50 49 49 47 44 42 41 41 40 38 38 36 38 38 39 38 37 39 38 34 31 34
20 18 21 19 27 29 26 26 32 37 38 40 43 43 45 46 49 52 54 56 57 56 57 55 53 50 49 49 47 46 46 43 41 40 38 38 39 38 38 39 38 37 36 34 38 37 36 32 31
20 23 24 26 22 15 26 11 30 35 37 39 42 43 45 48 51 52 51 51 53 52 49 47 47 47 45 42 42 43 41 41 40 38 38 38 40 40 38 37 38 38 37 37 37 34 33 30 27
24 27 26 24 21 21 22 17 26 36 35 39 42 45 47 49 47 45 44 46 45 47 45 44 42 41 42 43 43 42 40 38 38 38 39 39 38 38 38 37 36 38 37 37 37 33 30 30 30
29 27 26 25 23 17 18 20 14 30 32 37 42 43 45 45 41 39 40 39 40 42 43 42 41 41 41 41 40 40 38 36 34 34 32 27 26 25 27 33 38 38 38 38 34 31 33 32 27
28 22 17 18 17 16 25 21 15 25 33 36 40 41 43 41 38 37 38 37 39 42 42 40 39 39 39 37 34 34 34 33 26 23 21 21 19 20 22 27 32 36 38 36 33 34 33 27 24
25 23 17 12 15 13 26 16 18 30 32 38 40 38 40 39 38 38 38 39 41 41 40 39 38 36 34 33 32 29 24 22 20 22 23 22 22 23 27 31 34 37 36 35 34 34 30 27 25
25 21 28 26 26 22 15 22 26 31 32 35 38 37 38 38 39 39 40 40 40 40 40 38 33 29 29 28 27 25 25 25 25 26 25 23 23 24 27 34 36 37 38 36 36 31 29 27 25
26 27 23 23 18 13 11 15 12 29 31 34 36 36 37 37 39 40 39 40 39 39 38 33 28 26 27 28 27 24 25 25 26 25 24 23 24 25 27 31 34 35 36 36 33 29 31 26 23
26 24 23 23 23 10 4 3 26 27 31 33 36 36 37 38 39 40 39 39 39 38 33 28 27 27 28 26 25 26 25 25 25 25 24 24 26 25 26 28 31 32 34 33 31 32 33 26 21
28 25 21 13 16 24 25 9 26 31 32 33 35 36 37 40 40 40 38 38 38 35 29 28 28 27 26 24 23 24 24 24 25 25 24 25 26 27 28 29 29 29 30 30 32 32 27 20 20

GFSSGP_sfc_30mbdewp_021.txt.gz
Dewpoint
48 42 28 15 20 20 17 17 21 42 46 51 51 47 50 51 53 49 59 62 63 62 61 64 68 68 68 68 68 68 67 65 65 64 63 62 62 62 61 61 60 56 55 53 52 52 55 57 57
37 19 10 18 18 14 13 16 27 44 46 47 48 49 47 48 57 60 61 63 63 62 61 62 68 68 68 69 69 68 67 65 64 63 62 61 61 60 60 58 58 55 54 53 52 55 55 55 57
28 15 15 13 16 14 14 25 42 45 45 45 45 46 47 47 56 60 62 64 65 63 62 64 68 68 68 68 68 68 67 66 65 63 61 60 59 59 58 58 58 57 56 55 55 55 56 56 55
14 10 17 16 15 14 16 37 42 40 43 42 43 41 48 52 55 60 64 65 65 64 65 67 67 67 67 67 68 68 67 66 65 63 60 59 58 57 58 59 58 57 56 56 56 57 58 58 58
14 14 11 14 15 15 30 42 43 44 40 42 40 40 41 51 54 61 63 65 65 66 67 66 66 66 65 67 68 68 67 66 65 64 61 58 57 57 59 59 59 58 58 57 58 58 59 59 59
8 12 11 13 14 17 17 41 39 39 38 37 40 42 46 52 55 59 64 64 62 65 66 66 65 64 65 67 68 67 66 66 65 64 61 58 58 58 58 59 59 58 58 58 58 59 60 60 60
10 8 10 12 23 26 22 44 48 37 35 37 39 41 52 53 57 62 60 61 60 63 66 64 63 64 66 67 67 66 65 65 64 64 62 60 60 60 59 59 59 59 59 59 60 60 60 60 58
10 12 8 12 28 32 33 40 41 42 45 44 44 45 46 54 62 64 63 65 62 63 64 64 64 63 65 66 66 65 64 63 63 62 60 58 58 58 58 59 60 60 60 61 61 61 59 57 56
17 13 7 16 33 37 36 35 38 37 38 43 47 48 53 60 62 62 62 63 63 64 64 63 61 61 61 63 64 63 63 62 61 59 57 56 53 55 54 55 58 59 59 58 56 56 55 52 53
12 8 9 28 38 40 32 32 32 35 33 39 48 52 59 60 59 59 60 60 60 61 61 62 62 60 58 55 58 54 52 51 54 54 54 54 55 55 54 54 56 56 52 54 52 52 51 53 45
13 14 16 23 37 35 36 33 31 37 36 39 45 51 56 58 58 58 57 58 59 60 62 63 65 63 55 55 52 49 51 55 57 58 57 57 55 55 54 51 51 52 50 50 49 49 47 48 46
15 15 16 24 32 27 26 29 31 42 46 39 46 53 57 55 57 56 56 52 53 57 61 63 64 61 55 52 49 51 52 55 54 56 59 58 57 55 52 50 50 51 49 49 48 47 47 45 43
17 17 19 27 28 22 26 26 36 39 36 42 49 54 53 54 52 50 48 48 50 51 56 60 59 57 56 52 55 56 56 60 61 60 61 61 58 59 59 58 54 50 49 48 47 46 44 43 41
17 17 14 20 25 32 25 23 34 33 37 44 49 49 46 48 46 45 45 45 47 49 54 55 55 55 53 56 58 60 60 60 62 63 63 62 60 57 55 55 54 50 49 48 45 44 42 41 40
17 13 11 15 24 26 23 17 23 35 38 41 43 43 44 44 43 43 43 45 46 48 53 54 55 55 57 60 57 57 57 57 59 61 61 60 60 58 56 53 52 49 47 45 42 42 40 38 37
14 13 11 13 22 25 24 14 25 35 36 37 39 41 44 45 44 42 42 42 44 48 54 56 55 58 58 57 58 58 58 57 59 59 59 58 57 53 53 51 48 48 44 42 41 39 38 38 37
13 9 11 13 18 22 21 16 23 33 33 36 39 43 44 44 44 45 44 42 44 50 55 58 58 59 58 59 58 57 57 56 56 54 51 51 50 49 47 45 45 44 41 40 40 39 40 38 38
8 6 4 9 17 19 9 16 20 30 32 36 38 41 43 43 44 47 48 45 45 49 55 59 60 59 59 59 57 55 56 54 51 48 46 45 45 45 43 43 44 42 40 40 42 42 41 39 36
11 9 2 8 16 9 7 16 21 27 31 34 35 38 41 43 46 50 51 51 51 54 57 60 59 60 59 56 55 54 49 48 47 44 44 44 43 42 42 40 40 41 41 41 40 40 39 32 30
8 7 11 13 16 20 12 15 21 26 29 32 34 36 38 42 46 50 52 53 53 55 57 59 58 58 57 54 51 49 48 45 43 43 43 42 41 41 39 42 41 40 39 37 35 35 35 32 30
12 9 16 14 19 20 16 18 25 29 31 36 37 37 39 41 46 50 52 54 55 56 57 56 56 55 51 50 49 48 46 44 41 42 40 41 42 41 40 40 39 38 35 32 33 34 35 31 30
15 21 17 19 19 13 17 11 20 29 31 34 37 39 40 42 46 50 52 54 55 55 55 53 51 50 50 45 42 42 41 41 42 40 41 41 41 41 39 37 37 36 35 34 33 31 34 32 29
27 24 22 19 17 19 18 13 29 30 28 32 35 37 40 43 47 49 51 51 51 50 49 48 47 43 43 44 44 43 42 41 40 39 37 35 31 28 27 26 28 35 36 34 35 35 33 32 32
25 24 23 20 13 14 12 15 20 26 26 31 36 40 43 47 47 44 45 46 46 46 46 44 41 42 43 43 43 42 39 36 33 30 25 23 21 21 21 23 26 28 33 35 34 34 34 34 33
22 20 16 14 14 14 18 17 13 13 27 28 37 41 45 45 42 39 40 40 42 43 43 42 41 42 42 39 36 36 34 27 25 23 21 22 21 21 22 26 28 30 30 33 33 35 35 36 29
21 17 16 9 10 12 21 12 11 26 25 29 37 41 44 42 38 37 37 38 40 42 42 40 41 39 37 35 32 28 27 27 24 24 25 23 22 22 24 26 30 32 32 33 37 35 37 34 31
19 20 22 21 24 19 10 7 19 29 29 31 37 39 41 39 37 37 38 39 41 42 41 41 39 35 32 30 32 30 28 27 27 27 26 23 23 22 22 26 27 30 31 34 38 37 37 31 29
25 24 19 16 13 12 6 8 5 25 25 31 35 37 39 38 37 37 38 41 42 41 42 40 35 31 32 33 31 31 28 27 27 27 26 24 24 25 25 25 25 27 29 35 34 33 31 31 32
25 20 20 21 22 16 8 7 16 15 24 28 32 36 38 37 38 38 40 40 41 41 40 37 31 33 33 30 29 28 26 27 27 27 26 24 25 25 24 25 26 27 26 27 28 29 32 31 31
26 23 23 19 15 20 24 13 20 23 25 29 31 35 37 38 37 39 40 40 40 40 37 33 33 34 30 28 26 26 26 25 25 26 26 25 25 25 24 25 26 25 25 26 29 30 32 31 27

GFSSGP_sfc_30mbdewp_024.txt.gz
Dewpoint
43 40 38 31 12 20 18 16 16 39 46 48 47 44 48 52 54 50 65 62 61 61 65 66 68 68 68 68 68 68 66 65 64 64 64 64 63 62 62 60 58 57 53 53 55 54 54 55 56
41 39 31 11 13 16 15 23 43 44 46 47 47 47 46 50 57 62 63 63 61 61 62 65 68 68 69 69 68 67 65 64 64 63 62 62 61 59 60 60 59 58 55 55 54 54 54 54 55
40 28 6 7 12 15 14 29 40 45 45 45 45 47 46 50 58 60 63 63 62 60 62 66 68 68 68 68 68 67 66 65 63 62 60 59 57 58 59 61 60 58 56 56 56 57 58 58 59
27 15 9 16 14 13 14 40 42 41 43 43 44 42 47 50 57 61 66 65 63 63 65 67 65 66 67 67 68 67 66 65 63 62 60 58 57 59 60 61 60 58 57 57 57 58 59 59 58
23 11 7 9 12 15 18 43 44 46 50 42 40 37 44 50 61 62 64 65 65 65 65 65 65 64 66 67 67 67 66 65 63 62 60 58 58 59 60 61 60 59 58 58 58 59 59 59 58
13 10 10 10 10 13 15 42 46 48 51 45 40 38 47 52 58 63 65 66 66 65 65 66 64 64 66 68 67 66 66 65 63 61 59 59 59 60 60 60 60 60 60 60 60 60 60 60 58
17 7 7 10 12 21 35 46 45 43 46 42 46 46 50 52 59 63 63 63 65 64 65 66 65 65 66 66 66 65 64 64 64 61 60 60 60 60 59 60 60 60 60 61 61 60 59 58 57
11 10 10 10 9 25 43 44 41 44 41 48 51 45 49 59 63 63 61 60 62 65 62 64 64 66 66 65 64 63 63 63 62 59 58 58 58 58 58 59 59 59 59 59 58 57 55 55 55
11 9 11 10 15 40 45 45 44 40 43 48 47 51 59 62 61 61 60 58 60 61 64 63 63 65 65 64 63 63 62 61 60 57 57 57 56 57 57 57 56 56 56 56 53 51 51 53 54
11 11 11 25 38 44 42 42 40 35 36 44 48 56 59 61 59 60 60 58 58 59 62 61 63 64 64 60 61 59 58 58 57 54 54 57 58 53 54 56 53 53 51 53 52 52 51 52 49
12 11 12 28 41 42 41 36 34 40 41 44 50 52 56 57 58 58 59 60 59 60 62 63 62 61 58 58 60 56 55 58 60 59 59 58 58 56 55 57 53 56 53 55 52 53 51 49 48
12 11 14 27 42 40 42 38 38 41 42 45 47 51 53 55 56 57 56 58 60 61 62 63 62 60 56 55 54 53 56 59 59 60 60 60 59 58 59 59 57 55 53 52 52 51 51 48 46
11 16 16 28 30 38 40 39 40 38 43 44 48 51 50 52 52 52 51 55 57 59 62 62 62 58 55 56 58 62 63 63 63 64 64 64 61 60 58 56 55 56 53 52 51 49 46 45 45
14 19 16 25 30 26 32 36 37 40 42 45 49 48 49 47 46 45 46 50 51 57 59 60 58 57 57 59 62 61 60 60 62 63 63 62 61 58 56 57 55 54 51 49 49 48 46 44 43
21 16 15 17 26 24 33 30 32 38 41 42 42 41 43 43 43 43 44 46 49 55 56 57 57 56 60 60 58 58 57 57 61 61 62 61 60 59 56 55 54 52 49 47 47 45 44 42 41
17 17 16 14 24 28 27 23 24 34 36 38 40 40 40 40 40 42 44 45 48 53 54 56 55 60 61 58 58 58 59 59 60 60 59 59 58 55 54 53 51 49 49 45 44 44 44 43 43
16 16 14 13 22 26 25 24 22 28 35 35 37 38 40 42 41 41 42 43 46 54 55 56 58 60 59 59 60 59 58 57 57 55 54 53 51 50 50 48 49 47 46 45 45 46 45 44 42
17 13 13 12 11 21 20 20 21 25 33 35 36 38 42 42 42 44 43 43 46 55 58 58 60 60 59 60 58 57 57 56 54 52 50 49 47 47 47 48 46 45 45 45 45 45 45 43 38
16 15 11 9 14 14 13 15 16 23 28 33 37 39 41 42 45 47 47 47 46 57 60 60 60 61 60 59 58 55 55 52 50 47 47 45 45 43 43 45 45 45 44 44 42 40 39 39 38
13 13 8 8 12 12 8 9 15 21 26 31 33 38 41 42 44 49 50 51 51 57 60 60 60 60 59 59 57 54 51 50 47 46 45 44 44 43 43 43 43 43 42 39 40 38 38 38 37
12 14 17 11 9 5 22 8 16 18 24 28 32 33 37 40 46 48 51 53 54 59 60 59 59 59 59 56 52 50 47 46 44 45 44 43 43 43 42 41 41 40 39 38 39 38 37 36 34
18 25 20 20 16 12 22 19 31 32 23 25 30 32 35 38 45 48 51 53 58 58 58 58 57 57 53 50 48 46 44 44 44 44 44 43 42 40 37 35 37 40 40 39 40 36 38 36 33
25 23 25 18 14 23 22 23 26 32 30 29 33 36 38 39 43 48 51 55 56 57 57 57 53 50 48 46 47 46 45 44 43 41 37 35 31 28 27 29 33 34 34 38 39 39 37 36 34
26 25 23 16 15 21 19 27 23 28 30 34 32 35 38 41 45 48 51 52 52 53 51 50 45 44 45 46 46 44 40 37 35 30 28 27 26 27 29 30 32 34 35 36 39 38 38 37 38
17 16 16 23 25 17 16 16 23 27 36 41 43 36 39 43 46 49 49 48 48 49 48 45 43 44 45 44 41 38 32 32 31 30 28 26 26 26 29 29 31 33 35 36 38 38 37 38 38
27 14 19 25 24 20 20 16 15 28 29 36 38 40 44 46 47 45 46 45 46 46 45 43 43 43 41 39 35 33 32 32 32 31 27 27 26 27 27 30 31 32 34 35 37 38 37 38 38
17 17 19 24 26 20 14 8 12 25 26 25 38 41 44 44 42 41 41 43 44 44 45 44 42 40 38 35 35 34 32 31 31 30 29 28 27 25 28 29 30 30 31 34 33 39 39 39 37
21 19 20 17 12 12 10 9 15 25 23 27 34 39 42 43 40 39 38 41 43 44 44 44 42 38 35 35 37 34 32 32 31 30 29 27 27 28 29 29 29 30 30 30 33 35 34 34 35
23 21 17 15 20 21 18 12 15 17 20 25 29 38 40 42 39 38 38 41 43 44 44 44 40 34 34 36 35 33 34 31 30 30 29 27 27 28 27 28 28 28 29 29 31 32 32 32 33
23 23 19 23 19 23 26 20 19 19 20 25 27 32 39 40 39 38 39 41 42 43 43 42 37 34 36 34 31 32 32 30 31 29 28 28 27 28 27 27 27 28 28 29 31 32 30 30 30

GFSSGP_sfc_30mbdewp_027.txt.gz
Dewpoint
46 45 42 37 23 17 17 18 26 41 46 48 48 51 54 56 55 50 65 65 66 67 69 68 68 68 69 68 68 67 66 64 64 64 64 63 62 61 61 60 58 57 55 53 53 52 52 53 55
42 39 36 32 10 10 15 24 43 46 47 47 47 49 53 55 61 63 61 63 65 66 67 67 68 69 69 68 67 66 64 64 64 64 62 61 60 60 61 61 59 58 56 56 56 56 57 57 59
40 41 32 10 6 8 13 34 44 46 47 46 45 47 49 57 62 63 64 64 64 64 66 68 68 68 67 67 67 66 65 64 63 62 60 59 60 60 60 60 59 58 57 57 57 57 57 57 55
34 27 14 9 12 13 13 39 45 46 49 50 49 44 48 59 61 63 64 63 62 65 66 66 65 65 66 67 67 66 64 63 62 61 60 60 60 60 61 61 60 58 58 58 58 58 58 57 57
34 23 7 9 12 16 26 45 46 43 48 47 50 44 48 61 65 65 65 65 65 65 65 64 64 65 67 67 66 66 64 63 62 61 61 61 60 60 61 62 61 59 59 59 59 59 58 57 56
27 15 10 8 8 25 45 47 46 45 48 48 46 45 50 62 63 64 66 65 64 64 64 65 65 66 67 67 66 65 64 62 61 61 61 61 61 61 61 61 61 61 60 60 60 59 58 58 55
26 19 13 8 9 35 46 46 46 46 47 46 49 49 53 61 63 64 63 63 65 65 64 65 66 67 66 65 64 64 63 61 60 60 60 60 59 59 59 60 60 60 60 59 58 56 57 56 53
19 16 13 11 9 40 44 46 49 47 43 49 52 49 53 60 61 62 62 62 62 63 63 63 65 65 65 64 63 63 62 60 59 58 58 58 57 58 58 58 58 57 56 56 55 52 53 53 53
21 14 9 8 30 39 45 41 49 49 46 46 53 57 61 60 59 60 60 60 57 60 63 63 64 64 64 63 62 62 61 58 57 58 57 58 58 57 59 57 55 54 53 53 51 51 52 53 50
18 14 11 33 39 40 43 41 42 44 42 51 52 58 60 57 56 56 57 57 56 57 62 64 62 64 62 60 61 60 61 58 55 55 56 56 57 56 58 56 54 53 53 54 52 52 53 53 47
16 13 12 34 40 42 41 40 42 42 42 47 49 55 58 59 57 55 54 54 55 58 62 62 62 64 60 59 58 58 58 56 54 53 55 57 59 55 56 56 54 55 55 55 55 53 50 46 46
15 14 13 37 41 40 42 44 34 37 44 48 47 52 56 58 55 56 56 56 57 58 61 61 63 62 58 59 58 55 56 59 59 60 62 60 60 59 57 56 55 55 55 51 51 47 46 46 45
15 13 17 36 41 44 43 39 39 36 44 52 54 54 55 56 57 57 58 57 58 61 61 60 61 57 57 58 61 61 62 63 64 63 62 61 59 55 55 56 54 53 51 49 48 47 45 42 41
14 13 18 30 41 42 40 41 39 38 42 46 51 53 55 55 56 58 58 58 60 61 60 61 59 56 61 62 61 60 61 62 62 61 61 61 59 57 57 55 54 50 48 47 46 44 44 42 41
22 17 16 24 31 35 36 37 32 38 41 45 49 49 49 48 51 55 57 59 59 59 60 60 55 60 60 59 58 56 58 60 61 61 61 60 59 57 54 53 50 48 49 45 43 45 44 44 44
19 18 17 17 28 30 27 23 37 40 41 43 43 42 43 43 44 51 53 58 58 58 58 58 57 60 58 57 58 57 57 60 60 59 59 59 57 54 54 51 47 47 47 46 45 45 44 44 43
18 15 17 17 23 26 24 23 39 42 42 41 40 40 41 41 43 46 49 55 56 56 56 56 61 58 58 58 57 57 58 58 57 56 55 55 54 52 49 48 45 45 46 46 45 44 45 43 42
16 18 18 16 22 25 23 21 26 35 37 39 40 40 41 40 41 43 45 51 54 56 56 59 59 58 58 58 58 58 57 57 55 54 52 48 47 45 48 46 44 45 45 44 41 41 40 42 38
22 18 15 14 16 24 22 20 23 27 36 37 40 43 42 41 43 42 43 49 54 57 58 60 58 59 58 57 56 56 56 54 51 48 47 46 44 44 44 44 45 43 42 40 40 39 38 36 39
23 21 18 14 16 18 17 18 21 23 31 39 35 40 42 44 45 46 48 51 57 57 60 60 59 59 59 57 57 56 54 51 46 46 44 44 43 43 43 43 42 40 38 38 39 38 36 39 36
24 24 21 15 9 9 16 19 23 24 26 37 39 41 42 44 46 48 49 54 59 60 60 60 59 59 59 58 58 53 49 46 45 44 44 43 43 42 42 41 40 39 39 38 38 38 38 35 34
17 24 23 20 21 10 23 17 27 28 24 28 33 39 42 43 48 49 51 53 59 60 60 60 60 58 59 59 50 46 44 43 45 45 44 43 44 37 32 32 33 33 36 36 40 39 38 36 34
23 23 22 24 22 22 23 19 23 27 21 27 33 35 38 45 48 50 52 57 59 59 59 59 58 58 57 53 47 46 44 44 44 42 37 28 29 29 30 32 31 32 34 35 36 38 38 37 35
25 23 24 27 25 19 19 19 25 29 27 30 33 34 37 43 48 51 55 56 57 58 58 57 53 47 47 47 46 44 43 36 31 28 27 26 29 30 31 29 31 32 34 35 37 39 37 37 37
26 23 20 18 20 20 29 22 25 30 31 30 29 32 37 46 49 52 54 54 54 52 51 46 45 46 43 40 38 37 34 30 29 29 28 26 26 27 27 28 30 31 33 35 38 37 37 37 36
21 23 23 18 21 23 28 23 23 28 31 33 35 36 39 46 49 51 50 50 49 47 44 43 45 43 40 38 32 32 32 31 32 30 29 28 27 27 29 29 29 30 31 31 36 37 37 37 37
20 18 27 28 31 27 24 14 26 30 33 38 37 38 45 47 48 48 48 48 47 45 44 44 44 41 39 35 32 32 32 32 32 30 29 28 28 26 28 29 29 30 30 30 31 33 38 38 38
22 23 21 23 17 17 13 17 24 26 27 35 37 42 46 45 44 45 46 46 46 45 45 44 43 40 36 34 34 33 32 33 32 31 29 27 28 27 28 28 29 29 29 30 31 33 33 33 34
23 21 19 20 22 18 19 15 19 21 27 33 40 44 45 44 41 42 43 44 45 45 45 44 41 38 34 36 35 33 32 34 32 31 30 28 28 27 28 27 27 27 28 30 31 32 31 31 32
24 23 27 17 17 25 24 20 21 19 24 28 30 42 44 43 40 40 41 43 44 44 44 44 38 35 37 37 35 33 33 34 31 32 30 29 27 28 27 28 27 28 29 30 31 31 30 28 28

GFSSGP_sfc_30mbdewp_030.txt.gz
Dewpoint
51 48 40 36 23 17 15 16 17 29 45 49 54 54 55 57 54 48 63 65 67 68 69 68 68 68 68 68 67 66 65 63 62 62 63 62 61 61 60 60 59 57 55 55 55 55 55 56 57
45 39 36 30 15 9 10 18 19 44 49 49 49 54 56 57 61 62 63 66 67 68 68 67 68 68 68 67 66 65 63 62 62 61 61 61 61 61 61 60 60 59 57 56 56 55 55 56 58
40 41 36 24 8 8 10 29 46 47 49 46 46 49 53 59 61 61 64 66 67 67 67 68 68 68 67 66 65 65 65 64 62 61 61 61 60 59 60 61 60 59 57 56 55 55 56 57 57
34 28 21 8 6 9 11 13 46 46 46 49 48 46 54 62 62 63 64 65 66 66 66 67 67 67 67 66 65 65 64 63 62 62 62 61 60 60 61 61 60 58 58 57 57 57 58 56 55
34 21 12 7 8 13 43 46 48 46 46 48 48 49 56 62 63 63 63 64 65 65 65 66 67 67 66 65 65 64 64 62 62 63 62 61 60 60 61 62 61 59 58 58 58 57 56 56 54
27 17 10 8 9 43 46 47 47 48 49 50 46 50 57 63 63 64 65 65 65 64 64 65 65 66 66 65 64 64 63 62 63 63 62 62 61 61 61 61 61 60 59 58 57 56 54 54 55
27 23 17 15 14 26 46 47 46 46 47 47 50 51 58 60 64 63 64 64 64 64 64 64 63 64 65 65 64 63 61 61 62 62 61 61 60 60 60 59 59 59 58 56 55 55 54 52 52
23 20 13 11 9 23 45 46 48 46 45 50 54 51 55 59 62 62 62 62 62 61 62 62 63 63 64 63 63 61 59 59 60 60 59 58 59 58 58 58 58 57 55 53 53 53 52 52 53
20 19 14 13 15 38 45 42 48 49 47 56 58 58 59 60 61 60 59 60 60 61 61 59 59 64 63 63 62 61 59 59 58 59 59 58 58 58 58 56 56 55 55 53 51 52 54 50 50
20 16 15 17 37 40 42 44 44 42 51 53 56 58 58 59 58 57 57 58 59 60 60 61 63 63 62 60 61 60 58 58 57 57 57 55 56 57 58 56 57 56 53 53 55 54 52 48 48
19 16 15 20 41 41 40 41 45 43 45 50 51 55 56 56 57 56 56 57 57 59 57 60 63 62 60 59 59 59 57 55 55 55 56 57 58 57 56 55 54 54 55 53 50 48 46 46 46
15 15 15 31 43 41 40 42 35 41 44 50 54 56 55 55 55 56 55 55 56 59 59 61 63 62 59 57 57 56 54 56 56 60 59 59 59 57 56 54 55 54 51 49 48 46 44 42 43
16 16 23 38 41 41 42 41 39 46 48 53 56 56 55 54 54 53 53 54 56 59 60 61 62 61 59 58 56 57 61 62 63 61 61 59 55 55 55 54 52 50 49 48 45 45 42 42 41
24 19 35 40 41 41 36 39 39 45 50 51 54 56 56 54 52 55 55 55 56 58 60 61 61 58 58 60 61 62 63 62 61 60 60 58 56 57 55 53 50 48 47 46 44 44 43 43 43
26 16 28 39 41 40 38 35 34 42 49 51 52 55 54 52 55 54 55 56 58 61 61 61 58 60 61 60 60 60 61 60 60 60 60 59 58 55 54 50 48 48 47 45 45 45 44 43 43
22 19 16 35 38 38 29 28 35 42 47 48 50 52 55 53 55 56 56 57 60 60 59 58 60 59 58 57 56 58 59 59 60 60 59 58 56 55 52 48 46 47 47 46 45 44 43 43 42
19 14 17 20 31 32 28 28 36 40 43 45 46 49 52 55 57 57 58 59 60 58 59 57 59 58 57 56 56 57 58 58 58 57 57 56 54 53 48 46 45 47 45 44 43 42 41 41 38
19 19 18 17 19 26 24 28 37 40 41 44 43 43 43 50 54 56 58 59 58 58 58 59 58 58 57 56 57 57 57 56 55 54 53 48 48 49 47 46 45 44 41 39 39 37 38 39 38
22 22 22 22 18 24 23 25 37 40 41 42 41 41 41 46 50 51 57 58 56 56 58 58 58 57 56 55 55 56 55 54 53 52 48 45 45 45 44 44 42 41 39 38 39 38 36 36 37
25 24 23 21 19 22 23 20 33 35 39 40 40 41 41 42 43 48 54 55 55 56 58 58 58 57 56 56 56 56 55 52 50 47 45 44 44 44 43 42 41 40 38 37 37 38 36 38 35
24 25 24 22 16 14 19 21 22 25 37 40 41 41 42 41 42 45 50 54 55 56 58 58 58 58 56 55 56 54 50 47 45 44 44 43 43 42 42 41 40 40 40 39 39 39 37 35 35
23 24 23 22 19 11 21 18 26 26 29 39 38 40 43 43 43 48 50 54 56 58 59 59 59 58 57 56 56 53 49 44 44 44 44 44 43 37 35 33 33 33 34 34 36 39 38 37 34
25 25 22 23 23 22 21 17 20 29 22 34 35 36 40 44 45 49 54 57 57 59 59 59 59 58 58 58 54 51 47 45 45 44 42 35 31 33 32 31 32 34 35 35 35 37 38 37 35
27 24 26 29 26 19 25 21 19 25 23 21 27 34 37 43 48 50 56 59 59 59 59 59 59 58 57 58 51 49 45 44 42 39 31 28 31 32 31 32 32 31 33 35 36 38 37 37 37
25 22 16 16 18 16 28 24 21 25 28 27 26 31 37 44 49 53 56 58 59 59 58 58 55 51 49 52 47 45 42 39 36 31 28 29 29 29 28 30 30 31 32 32 36 37 36 36 36
24 22 18 15 15 19 28 22 23 26 29 32 33 36 42 47 51 53 55 56 57 57 56 51 47 43 42 42 40 36 33 32 31 31 30 29 29 29 29 29 29 30 30 29 31 33 35 37 37
23 20 25 25 31 26 25 22 25 31 31 33 36 36 42 48 52 52 53 53 52 49 47 46 43 40 37 36 35 33 33 33 32 30 30 30 29 29 30 29 28 29 29 29 31 32 34 38 36
26 24 19 25 17 17 16 18 23 26 26 31 36 36 44 49 50 50 50 49 48 46 45 45 42 40 37 34 33 32 33 33 31 31 29 29 29 28 28 28 28 27 27 29 31 32 32 32 33
23 21 20 23 20 15 17 16 19 25 27 32 34 37 45 47 49 49 49 48 46 44 44 44 41 38 37 34 33 33 31 33 33 32 30 29 28 28 28 28 27 27 28 29 31 31 31 30 32
28 24 26 21 15 24 22 19 24 23 28 35 35 39 46 46 47 48 48 47 46 45 45 43 41 37 34 34 34 33 33 34 33 32 30 30 28 29 28 28 27 27 28 28 30 31 31 28 27

GFSSGP_sfc_30mbdewp_033.txt.gz
Dewpoint
50 46 39 35 22 17 14 14 16 18 39 53 54 53 54 58 53 46 64 65 68 67 69 68 68 68 68 66 66 65 64 61 60 61 61 61 61 62 60 59 59 58 56 55 54 54 54 57 61
45 38 35 23 16 11 10 15 19 27 48 54 53 56 56 56 60 61 62 67 68 67 68 67 68 68 67 66 65 64 62 61 61 60 60 60 60 60 61 61 60 59 57 54 54 54 55 56 59
39 40 36 24 10 9 9 19 46 47 49 49 47 50 56 58 61 62 65 66 68 67 67 68 68 67 66 66 64 63 63 62 62 61 60 60 59 59 60 61 60 59 56 55 55 54 55 58 59
33 30 18 10 5 8 10 19 25 46 47 50 50 48 59 63 61 63 66 67 67 67 67 68 67 66 66 65 65 64 63 63 63 62 62 60 59 59 61 61 60 59 57 56 56 56 58 56 57
32 20 14 7 7 11 42 46 48 47 49 50 50 53 57 62 63 65 65 66 65 66 67 67 67 66 66 65 65 64 63 63 63 63 62 62 61 61 62 62 61 60 58 57 57 57 57 56 52
26 17 11 8 9 26 45 48 47 48 48 47 48 53 57 63 62 63 65 64 65 65 65 65 64 65 65 65 64 64 63 64 63 63 63 62 62 62 62 61 60 59 58 57 54 54 55 57 53
25 22 17 14 14 13 45 47 46 46 47 49 52 51 57 61 63 64 63 62 61 62 64 64 64 63 65 64 64 63 63 64 63 63 63 62 62 61 60 59 58 58 57 56 54 53 54 55 52
25 20 15 12 10 13 44 46 48 46 45 51 55 53 53 59 61 63 61 60 59 60 61 62 62 63 63 62 61 61 61 62 63 61 61 60 59 59 58 58 58 57 56 55 54 54 54 55 53
19 20 15 14 14 33 44 43 48 52 53 56 58 56 59 61 61 60 60 59 57 58 59 60 62 62 61 62 60 59 60 60 61 60 59 59 59 58 58 58 57 55 54 53 54 55 50 49 53
22 17 16 17 28 38 44 44 45 49 53 53 54 58 59 60 59 58 56 57 54 55 56 56 60 62 62 61 61 59 59 59 59 58 58 57 57 58 57 57 56 54 54 55 55 52 49 48 47
20 18 18 16 36 41 42 42 45 48 49 52 52 54 57 58 58 57 57 58 57 57 58 56 57 63 61 60 60 58 57 57 57 57 56 56 57 58 55 54 53 55 52 49 47 46 46 45 43
18 17 16 20 42 41 40 41 38 43 45 54 55 56 56 56 56 56 57 58 59 58 58 58 61 63 60 59 58 57 55 55 55 55 56 58 57 57 55 55 56 51 50 47 46 44 42 42 42
16 17 18 24 42 41 42 38 44 49 52 55 55 55 54 55 56 56 57 56 58 58 58 60 62 63 60 57 57 56 56 56 60 60 59 58 55 54 54 53 51 50 48 46 44 43 43 42 42
24 25 37 40 41 41 41 44 44 48 55 55 54 52 50 49 54 53 54 54 57 58 59 60 61 62 59 57 57 59 60 62 61 60 59 55 55 54 53 50 49 47 46 45 44 44 43 43 41
27 28 37 39 40 39 39 36 43 48 55 54 53 53 52 51 53 53 53 53 55 57 59 60 61 60 58 58 59 61 61 61 60 59 58 56 57 55 52 49 48 47 45 45 45 45 44 43 40
21 19 21 37 39 38 30 31 40 49 51 53 54 55 54 53 52 54 54 53 55 58 60 61 60 59 59 59 59 60 60 60 59 59 59 58 55 54 50 47 47 47 46 45 44 43 41 41 37
20 14 19 33 36 35 29 29 38 47 50 51 54 55 53 52 52 54 54 55 57 59 60 59 60 59 58 58 58 58 58 58 58 58 58 57 55 52 47 46 47 45 43 42 41 39 39 37 36
19 19 20 20 19 30 34 28 39 43 48 49 50 53 53 50 51 55 55 56 58 60 60 59 59 58 57 56 57 57 57 56 56 55 55 52 52 48 46 46 44 42 40 39 38 36 38 38 37
24 24 23 23 23 23 26 27 37 41 43 45 46 48 53 53 53 56 56 57 59 59 58 59 57 57 56 55 55 55 54 54 53 53 47 48 48 46 45 43 42 41 39 38 38 37 36 36 35
25 23 22 24 21 21 23 23 35 39 41 44 44 44 46 53 54 56 57 58 59 58 58 58 57 57 55 55 55 56 55 54 52 50 46 46 45 45 43 42 41 39 38 38 38 37 36 38 35
24 23 23 23 22 20 22 21 23 32 39 41 43 43 44 47 52 54 56 57 57 57 57 58 58 57 55 55 56 54 50 49 47 45 44 44 44 43 43 41 40 39 39 36 37 38 37 35 35
22 25 25 23 20 10 20 14 24 27 35 38 41 41 42 43 48 50 54 56 56 55 57 58 58 57 56 55 55 53 51 49 45 44 43 44 43 40 36 34 34 34 34 34 36 37 37 37 35
23 27 25 24 23 21 22 17 19 29 26 34 39 41 42 42 44 46 52 55 55 56 57 58 58 58 57 55 55 53 50 46 45 44 43 34 34 33 32 33 34 33 34 35 35 37 38 38 35
27 25 26 28 26 18 25 21 19 24 24 27 38 39 41 43 43 46 48 53 55 57 58 58 58 58 58 56 55 54 49 45 43 42 36 31 33 32 32 32 32 33 33 31 36 37 37 37 37
26 22 15 15 18 16 27 23 21 22 25 26 30 37 37 40 46 50 53 55 56 57 58 58 58 58 58 57 55 51 48 45 43 40 33 32 30 30 30 31 31 30 30 30 33 35 36 36 36
25 21 17 13 15 16 27 23 22 27 30 30 31 30 35 40 47 52 55 57 57 57 58 58 58 55 54 55 53 47 45 44 43 39 35 32 30 30 31 30 31 30 30 29 30 31 32 36 36
24 21 25 25 30 24 23 25 21 28 30 35 35 37 40 44 49 53 56 57 58 58 58 57 54 51 48 48 45 42 42 41 40 36 32 31 32 30 30 30 29 30 29 29 30 31 32 37 36
25 27 20 23 17 16 18 18 19 24 23 29 35 35 42 47 51 53 55 56 56 56 53 52 49 47 42 41 40 38 37 36 33 32 31 30 30 32 30 29 29 28 28 28 30 31 32 32 32
24 22 22 22 20 14 14 17 20 25 25 24 27 35 40 48 50 52 53 53 53 51 50 49 44 40 39 39 37 35 34 34 32 30 30 30 32 31 29 29 28 27 27 29 30 30 31 31 30
27 24 22 18 17 24 22 19 23 21 24 28 30 34 40 48 50 51 51 50 49 50 48 46 42 39 38 38 37 35 34 33 32 31 31 32 29 30 30 29 28 28 28 28 29 29 30 31 28

GFSSGP_sfc_30mbdewp_036.txt.gz
Dewpoint
50 43 38 31 20 16 12 13 16 16 32 54 56 54 53 57 52 45 64 65 67 68 68 69 68 67 66 66 66 65 64 63 61 61 62 63 62 61 60 60 60 59 58 56 57 60 63 64 63
41 37 33 22 15 10 9 14 16 39 48 50 49 53 56 54 60 61 62 67 67 67 68 68 68 66 66 66 65 63 62 62 61 61 61 62 61 61 62 61 60 59 58 55 55 58 60 63 65
38 38 33 22 11 8 9 12 36 48 49 49 48 53 57 57 60 62 65 67 67 67 67 68 68 66 66 65 64 63 62 62 62 61 61 61 60 60 61 61 60 59 58 54 54 55 57 59 62
33 32 14 11 5 8 9 12 45 46 48 50 49 52 60 62 62 64 66 67 67 66 67 67 67 66 65 65 64 63 63 63 62 62 61 61 61 60 62 61 60 59 58 55 54 54 58 59 59
28 20 15 8 7 8 25 45 48 47 48 50 51 52 56 61 65 65 66 66 66 66 66 67 66 66 65 65 64 63 64 64 63 62 62 62 62 62 63 62 61 60 60 58 57 57 56 58 57
25 16 11 9 8 11 43 47 47 48 49 50 52 52 56 62 63 63 63 63 65 65 66 66 66 66 65 64 64 64 65 64 64 63 63 63 63 63 62 60 59 58 58 59 59 57 55 56 55
24 21 15 14 14 13 41 47 46 46 46 47 51 52 57 61 61 60 61 61 62 65 64 64 62 60 63 64 64 64 65 64 64 64 64 63 62 61 60 59 59 58 56 57 58 57 54 54 57
25 20 16 13 10 11 41 46 48 46 47 53 57 51 54 60 60 59 60 60 60 61 63 61 60 59 63 63 63 64 64 64 63 63 61 60 59 59 59 59 59 57 55 55 55 58 55 52 55
21 20 15 14 14 20 44 44 48 55 53 55 56 57 59 61 60 58 57 58 59 59 60 59 60 62 61 61 61 62 63 62 61 60 59 59 59 58 56 58 57 55 55 56 56 53 55 54 54
22 19 17 18 16 31 43 42 46 49 52 52 55 59 60 60 59 57 55 55 56 57 58 60 59 61 61 60 59 59 60 60 59 58 57 57 57 56 57 57 56 56 56 57 53 52 50 47 45
20 18 19 18 19 39 42 43 46 50 49 51 53 56 58 59 58 56 54 54 54 55 57 58 58 59 60 60 58 57 58 57 57 57 56 56 58 57 55 54 54 52 50 47 46 44 43 42 41
19 19 18 18 39 41 41 42 43 45 47 54 55 56 58 57 57 57 53 54 55 55 56 57 58 60 61 60 57 56 55 56 56 56 56 57 57 55 54 55 52 49 48 44 43 43 43 42 41
17 17 21 24 41 42 41 40 44 50 54 54 55 55 55 56 56 57 58 55 56 57 56 55 58 62 60 58 57 55 55 55 55 56 57 58 56 55 54 53 51 49 47 44 43 43 43 41 39
24 27 35 41 41 42 44 45 44 51 54 54 55 55 55 56 56 56 57 57 58 57 57 55 58 62 60 57 56 55 56 57 59 59 58 56 55 54 52 50 48 46 45 44 44 43 43 40 38
27 30 36 40 40 40 40 35 43 53 54 52 53 52 51 55 54 54 55 56 57 58 58 58 60 62 60 57 56 57 58 61 60 59 57 55 55 53 50 48 47 45 45 45 45 43 43 39 36
20 20 20 36 39 39 34 31 46 54 51 51 52 52 53 52 53 53 54 54 56 57 58 60 61 60 59 57 57 58 60 60 59 58 57 56 56 53 49 48 46 46 45 44 43 41 40 37 36
20 15 21 33 38 36 33 33 45 52 52 50 52 52 54 53 52 53 54 54 55 57 58 59 60 59 59 57 58 59 60 59 59 59 58 56 54 51 47 47 46 45 44 42 39 39 38 35 36
20 20 21 21 22 35 34 29 43 49 50 51 51 53 54 53 52 53 54 54 55 57 60 59 59 59 58 57 58 58 57 57 57 57 57 55 53 48 46 46 44 42 40 39 37 36 38 37 36
24 24 23 23 24 23 26 32 39 46 48 49 51 52 53 52 52 52 54 55 56 58 59 59 58 57 57 57 57 56 55 55 54 54 52 52 49 46 46 44 42 41 39 38 37 37 35 37 35
24 23 22 23 21 22 23 28 38 43 46 48 49 49 51 53 51 51 55 55 56 58 59 59 58 57 56 56 55 55 54 53 53 50 47 49 47 45 44 42 41 39 38 38 38 37 37 37 35
23 22 23 23 25 21 22 22 35 39 43 44 46 47 48 51 52 53 55 55 56 58 58 58 58 57 56 55 55 53 51 50 49 46 44 46 45 44 43 41 40 39 37 35 37 37 36 34 35
22 25 25 24 21 13 21 13 23 34 40 40 42 44 45 47 51 53 55 56 56 57 58 58 58 57 55 55 54 53 52 50 48 45 44 44 44 42 40 36 34 34 35 34 35 37 37 36 34
22 27 26 24 22 21 22 17 18 28 32 37 39 42 43 44 46 51 54 56 57 57 57 58 58 57 56 55 55 53 52 51 47 44 43 39 37 35 34 34 34 34 34 34 36 37 37 37 35
27 25 23 27 25 18 22 21 20 25 25 31 37 40 42 42 43 47 51 54 57 56 56 57 57 57 57 56 55 54 51 48 46 43 38 35 34 33 33 32 31 31 32 33 36 37 36 36 36
26 22 16 13 18 16 26 24 22 22 24 26 27 35 40 42 43 44 47 51 54 55 56 57 57 57 57 56 55 54 51 48 46 43 37 33 32 32 32 31 32 32 31 33 34 33 35 35 35
23 21 16 12 14 14 26 20 18 26 29 33 31 30 39 41 43 44 47 49 53 55 56 57 57 57 57 57 56 54 53 49 46 43 37 35 33 33 32 32 34 36 32 30 30 30 31 33 35
24 20 23 24 29 24 21 24 21 27 32 34 32 34 34 39 42 45 49 51 53 55 56 57 57 57 57 57 55 53 51 49 46 42 39 35 33 32 33 39 36 32 30 29 29 29 29 33 36
25 27 21 23 18 16 19 18 16 18 23 32 33 34 37 42 45 48 52 54 55 56 56 57 58 57 54 53 52 50 48 47 46 41 37 35 32 32 37 33 30 30 29 29 29 30 32 34 33
25 23 22 22 21 14 14 16 21 20 25 26 27 34 36 42 47 50 53 56 56 56 56 56 55 53 49 48 47 45 44 45 43 41 36 33 32 35 35 30 30 29 28 29 29 30 31 31 31
25 23 23 19 18 24 21 18 23 20 21 24 25 30 36 41 47 51 53 54 54 55 53 53 51 48 45 43 42 42 41 41 39 36 31 32 32 35 31 32 30 29 28 29 29 29 30 30 30

GFSSGP_sfc_30mbdewp_039.txt.gz
Dewpoint
51 41 38 29 17 16 12 12 16 18 30 54 57 53 53 54 51 46 64 65 67 66 65 67 67 67 67 67 66 66 65 64 62 63 64 63 62 61 61 61 60 60 60 62 63 62 61 61 64
41 36 33 24 14 8 6 14 18 45 46 51 51 54 54 54 59 61 62 66 67 66 64 64 67 67 66 66 66 65 63 62 62 63 63 62 62 62 61 61 61 60 61 62 63 64 63 63 65
39 36 32 23 14 7 9 13 35 47 50 49 49 56 56 56 60 61 65 66 67 66 65 65 66 66 66 65 64 63 63 62 63 63 62 62 63 62 62 61 60 59 59 59 61 63 64 64 64
33 32 16 13 10 11 11 14 44 45 48 50 50 53 59 62 62 64 66 67 67 66 65 67 66 66 65 64 64 63 63 63 63 62 62 63 62 62 62 61 60 60 58 56 58 60 62 61 61
26 22 19 11 9 8 12 41 48 47 48 50 51 53 56 61 65 66 66 66 66 66 66 66 66 65 65 64 64 64 63 63 63 63 63 63 63 63 63 62 61 60 59 57 58 59 59 59 59
25 17 13 10 10 11 33 46 48 48 48 51 51 52 56 63 61 62 64 65 66 66 66 66 65 65 65 64 64 64 64 64 63 63 63 64 63 63 62 62 61 61 60 58 58 59 58 58 57
25 21 16 14 14 14 37 47 46 47 46 47 53 52 58 59 60 61 62 63 65 65 64 63 63 62 65 65 65 65 65 64 64 64 64 64 62 61 61 60 59 59 60 59 57 57 58 58 58
26 21 17 15 11 12 39 46 47 46 47 55 57 51 54 58 60 61 61 61 62 62 61 58 58 60 62 63 64 64 64 64 64 63 62 60 60 59 59 58 58 58 58 59 57 56 59 59 57
22 21 16 15 15 18 44 44 50 55 53 54 56 57 58 59 59 59 59 58 58 57 57 55 54 59 62 62 63 63 64 63 62 61 59 58 54 56 55 57 56 56 58 57 58 56 56 55 53
23 20 18 18 18 26 42 43 47 50 51 51 54 59 59 58 57 56 56 55 55 54 54 54 59 57 60 59 61 62 62 60 58 56 56 55 57 55 55 55 56 57 58 57 55 53 49 45 43
22 20 20 19 19 34 40 43 46 48 47 50 52 55 58 58 56 55 56 55 54 55 55 56 58 59 60 58 58 60 59 58 56 57 56 57 57 57 55 55 55 56 51 47 46 45 43 44 42
20 20 20 19 38 42 42 43 48 46 48 53 54 57 58 56 55 55 55 55 55 54 55 57 56 55 57 59 57 58 56 56 55 55 57 58 57 55 55 55 52 50 48 47 45 45 45 44 42
20 19 23 32 41 42 42 42 45 49 54 55 56 56 56 57 54 54 55 54 55 54 55 54 56 56 60 60 57 56 56 56 57 56 58 59 57 56 56 54 51 48 46 46 45 45 43 42 40
25 27 38 41 42 42 43 45 44 51 54 54 53 53 54 55 56 55 55 54 53 53 54 56 56 57 61 58 57 56 56 56 57 56 59 59 58 57 55 52 49 47 46 46 45 44 42 40 40
27 29 35 40 40 42 40 35 42 52 53 53 53 53 55 55 56 56 54 54 55 55 55 55 57 60 61 58 57 56 56 57 57 59 60 58 58 56 53 51 48 47 47 47 46 45 43 40 37
20 21 20 36 39 40 31 30 44 53 52 51 52 52 52 55 55 56 57 56 57 55 54 54 57 60 61 58 57 57 58 60 60 60 59 57 56 54 52 49 48 48 47 46 45 43 40 39 36
21 16 23 33 38 39 33 32 43 52 50 48 50 50 52 51 53 54 56 56 57 57 56 56 58 59 61 59 58 58 59 60 60 60 58 58 56 53 51 49 48 48 46 45 42 42 39 36 35
20 20 22 22 25 36 36 31 45 50 50 48 48 50 52 52 51 53 54 54 55 57 58 58 59 60 60 59 58 58 59 60 60 60 59 57 55 52 50 49 48 46 43 41 40 39 39 38 37
24 23 22 23 24 28 32 33 41 48 49 49 49 50 52 52 53 52 53 54 54 56 57 58 59 60 59 58 57 57 58 59 59 59 59 57 53 50 49 47 45 44 42 40 41 39 39 37 38
25 23 22 24 21 23 22 25 35 46 47 48 49 50 51 52 53 52 53 54 54 54 56 59 59 59 59 58 57 57 57 57 56 55 54 55 51 49 48 45 43 42 41 41 41 40 37 38 38
24 22 23 24 25 22 24 22 29 40 45 46 48 50 50 51 52 51 52 53 54 54 56 58 59 59 58 58 57 55 54 53 53 50 50 51 49 47 46 45 42 42 41 39 38 38 37 33 37
21 24 25 25 22 15 21 14 20 32 39 42 45 46 48 49 51 52 52 53 54 55 56 58 59 58 58 58 56 55 55 53 52 49 48 47 47 45 44 43 42 39 37 36 36 37 37 37 32
22 27 27 25 22 22 22 17 18 28 31 38 42 43 45 47 48 51 52 53 55 56 58 58 59 58 58 57 57 56 55 54 52 48 47 46 45 44 41 39 37 36 35 37 38 39 39 39 37
28 26 23 27 25 18 22 21 19 23 24 31 37 42 42 45 46 48 52 54 55 57 58 59 58 58 58 57 57 56 55 52 50 47 44 43 41 39 37 36 35 35 35 36 39 39 39 38 37
26 23 18 14 19 17 27 24 21 23 25 26 28 35 40 43 45 46 48 52 54 57 58 58 58 58 58 57 56 55 54 52 50 47 44 41 38 37 36 35 35 34 34 36 37 39 37 38 36
25 23 18 11 13 15 26 19 18 26 28 32 35 34 32 40 44 45 46 48 53 56 57 58 57 57 58 57 56 56 54 52 51 48 45 41 39 37 35 34 35 35 36 36 36 35 35 35 36
24 21 24 24 29 23 21 23 22 25 28 32 34 35 33 36 41 43 45 47 51 55 56 57 57 57 58 58 57 56 55 53 51 48 45 42 39 37 36 36 37 38 36 33 33 33 33 35 37
26 27 22 24 18 17 19 19 14 17 21 26 28 32 35 39 39 43 45 48 50 54 56 57 57 57 57 58 57 56 56 54 51 47 44 43 39 36 36 38 40 35 34 33 32 32 33 34 36
26 25 23 23 22 16 14 16 22 19 22 26 26 30 35 37 42 45 48 52 53 54 55 56 56 57 57 56 56 55 53 53 51 48 45 42 39 36 35 39 35 33 31 31 32 32 32 33 33
26 25 25 21 20 23 21 18 23 24 23 23 24 28 36 37 41 47 50 53 55 55 56 56 56 56 55 54 52 52 51 50 48 47 45 42 39 36 35 36 33 33 31 31 31 31 34 32 31

GFSSGP_sfc_30mbdewp_042.txt.gz
Dewpoint
50 38 30 27 16 10 8 8 11 14 26 46 51 50 48 53 51 46 63 65 65 62 60 66 68 69 68 68 67 67 66 65 64 64 64 63 62 63 62 62 62 63 62 62 62 63 63 61 62
33 30 28 19 8 6 5 10 11 30 36 51 51 53 50 52 57 60 63 65 64 63 61 61 68 68 67 67 66 66 64 63 64 64 63 62 63 63 63 63 63 65 65 62 62 63 63 62 63
37 34 23 15 8 3 5 11 23 34 44 44 47 54 54 55 57 60 63 66 65 63 61 62 68 67 67 66 66 64 63 64 64 63 63 63 63 63 62 62 63 65 65 64 63 64 64 63 63
30 29 20 9 5 5 9 10 27 32 42 46 46 48 56 61 61 61 64 67 65 63 62 66 67 66 66 65 64 64 64 64 63 63 64 63 63 62 62 62 61 62 63 64 64 63 62 61 61
25 21 14 8 6 8 8 11 34 37 43 46 48 50 54 62 64 64 65 66 65 65 64 65 66 66 65 65 64 64 64 63 63 64 63 63 63 63 63 62 61 61 61 62 62 60 60 60 60
21 17 9 5 4 7 10 30 37 44 45 48 48 50 55 62 63 65 65 66 66 65 65 66 65 65 65 64 64 64 64 63 64 64 64 64 64 64 63 63 61 60 61 62 60 60 60 59 59
19 14 9 8 9 17 31 43 43 44 44 44 51 48 57 60 61 63 64 66 66 66 65 65 64 63 63 65 65 64 64 64 65 64 64 64 63 62 61 61 61 60 58 60 60 60 60 59 59
22 17 10 11 18 20 30 43 46 45 44 52 54 47 53 59 61 61 61 63 62 63 63 62 60 58 59 63 65 65 65 65 65 64 62 61 60 60 60 59 60 60 59 59 60 60 59 58 56
23 16 10 14 14 16 36 34 47 50 48 51 54 55 58 60 62 59 57 57 57 58 60 59 59 58 57 60 63 64 65 64 63 61 59 55 50 50 51 55 58 60 60 59 60 59 57 55 55
21 15 13 16 17 17 26 35 43 47 47 48 54 58 59 60 59 57 56 54 53 54 56 57 55 56 57 60 60 60 59 55 56 55 52 48 51 49 50 55 59 59 59 57 56 53 49 48 45
21 18 19 19 19 20 29 40 44 43 41 45 50 55 57 58 58 57 56 55 53 54 54 54 55 56 57 60 60 60 58 58 54 54 51 53 52 52 51 53 53 53 52 48 47 46 45 45 43
20 21 21 21 29 31 37 42 44 44 49 52 55 57 57 56 56 56 55 54 53 53 55 52 52 51 55 58 57 56 51 52 51 52 52 53 51 52 51 52 54 52 51 49 48 47 47 45 44
22 22 25 31 32 39 41 40 43 50 53 54 56 57 56 56 55 56 54 54 54 54 55 55 56 55 55 55 56 56 53 53 50 53 52 51 50 52 52 53 52 51 50 48 47 46 45 45 43
25 25 36 37 38 38 38 41 43 51 52 51 53 53 55 54 54 55 55 53 52 53 53 55 54 53 56 53 53 56 55 52 54 51 54 55 52 53 55 55 52 50 48 48 47 46 45 43 42
25 26 34 36 39 38 39 35 43 50 49 49 49 52 54 53 53 53 54 54 51 49 51 51 53 54 53 55 54 50 52 51 50 51 58 58 57 57 55 54 51 49 49 49 48 47 45 42 39
22 22 19 27 37 38 38 28 45 48 47 47 48 47 52 54 53 53 53 52 49 50 52 53 52 55 58 57 55 49 52 51 50 55 59 60 59 57 56 53 51 50 49 48 47 45 42 41 37
21 15 17 21 36 36 34 27 40 48 45 43 45 45 48 53 53 53 52 52 51 51 52 54 55 55 59 59 55 54 53 53 53 58 59 59 58 56 54 52 51 51 49 48 46 44 42 37 32
14 16 19 21 29 35 32 30 38 45 44 40 42 43 45 50 53 55 54 52 53 52 52 53 54 58 59 59 57 52 50 52 57 59 59 59 57 55 54 52 52 50 48 46 44 42 38 33 31
21 17 17 20 23 25 24 26 30 41 45 42 41 43 45 45 47 52 54 55 54 54 53 54 56 57 58 60 56 51 49 52 58 60 61 59 57 56 54 52 51 48 46 45 44 40 38 35 31
24 19 19 23 23 23 20 20 27 37 43 43 42 43 44 45 47 48 52 53 54 54 55 55 55 56 58 58 57 51 52 52 55 58 60 60 58 55 53 51 49 47 46 44 42 39 35 31 33
24 21 22 21 25 23 22 19 26 35 42 44 45 42 43 44 46 48 48 50 53 52 54 55 55 57 58 57 57 53 55 57 57 59 58 58 56 54 52 50 48 46 44 43 41 38 32 34 37
20 23 23 25 23 15 23 13 20 26 35 40 41 44 41 43 46 47 48 48 49 51 52 53 55 57 57 58 56 54 52 51 54 56 55 54 55 53 50 49 47 46 43 40 38 34 36 35 36
22 26 25 25 22 21 19 14 16 24 22 29 37 40 42 40 43 45 47 48 49 50 52 54 55 57 57 58 57 56 55 53 54 56 53 53 52 51 49 47 46 44 40 38 34 37 37 39 38
28 26 25 27 23 17 18 17 14 16 16 19 27 34 40 43 43 44 45 49 50 51 53 54 55 56 58 59 59 59 58 57 56 54 51 50 50 49 47 46 45 42 37 37 38 39 40 39 37
26 23 20 17 17 16 24 20 16 19 23 25 26 27 35 40 43 44 45 47 49 52 55 56 55 54 58 59 59 59 59 58 56 54 52 49 48 47 46 44 42 39 37 37 40 41 39 37 36
23 22 20 14 15 15 24 16 16 24 26 28 32 33 34 33 39 42 45 46 48 51 55 57 57 56 58 59 58 58 58 58 57 56 53 50 47 47 44 42 40 36 36 39 41 39 38 35 33
25 22 24 23 28 19 15 17 18 22 23 26 28 33 33 33 33 37 42 45 47 51 54 57 57 57 58 58 58 57 57 57 56 55 53 49 47 44 42 40 37 37 39 40 38 35 34 32 34
26 26 21 22 17 14 15 16 11 16 16 22 21 25 32 36 36 38 40 42 46 49 53 57 58 56 57 59 58 58 57 57 56 56 53 49 46 43 41 39 38 39 39 37 35 33 32 32 34
26 24 24 23 22 17 15 14 17 17 19 23 24 26 30 34 38 41 42 46 48 49 52 55 56 55 56 58 58 57 57 57 57 55 53 50 48 45 41 38 38 40 37 35 34 33 31 34 37
22 21 23 20 18 23 24 18 19 20 25 25 24 26 31 36 37 41 46 49 51 52 52 54 54 54 55 57 57 57 57 56 56 54 52 50 46 41 41 39 40 35 34 34 34 33 32 40 36

GFSSGP_sfc_30mbdewp_045.txt.gz
Dewpoint
52 45 33 22 14 10 5 6 7 13 17 31 40 38 40 42 41 46 64 64 62 61 63 68 69 70 70 69 69 68 67 66 65 65 64 64 63 64 64 64 64 64 64 64 60 59 60 60 61
37 26 23 18 11 2 4 3 7 10 29 36 43 44 40 45 55 60 63 65 63 62 62 67 69 69 69 68 68 67 65 65 64 64 63 63 64 64 64 65 65 64 64 63 61 60 60 61 61
37 28 22 17 10 3 -0 8 8 24 31 30 34 44 45 50 56 59 63 65 64 63 60 67 69 68 68 67 66 65 64 64 64 63 64 64 64 64 65 66 66 65 64 63 62 60 61 61 62
27 25 19 7 4 5 3 10 12 20 25 32 32 40 54 59 59 58 64 67 65 64 62 67 68 67 67 66 65 65 64 64 64 64 64 64 64 63 64 66 66 66 65 64 61 61 60 62 61
23 17 12 11 5 4 6 6 10 23 28 35 38 38 48 61 63 63 64 65 65 63 65 66 67 67 66 65 65 65 64 64 64 64 64 64 63 64 63 64 65 66 65 63 60 60 60 61 60
20 15 8 6 4 3 6 11 23 25 35 40 41 39 57 62 63 65 65 65 64 65 66 66 66 66 65 65 65 65 64 65 65 64 64 64 64 64 63 63 64 64 64 62 61 61 60 59 59
18 14 10 5 5 15 26 37 38 36 35 39 47 42 56 59 62 64 65 66 66 66 66 65 63 65 65 65 65 64 64 65 65 65 65 65 64 63 62 61 62 63 62 61 60 60 59 59 59
15 14 9 7 19 25 28 30 40 40 42 48 48 43 49 59 61 61 62 63 64 64 63 61 60 63 64 64 65 65 65 65 65 64 63 62 61 60 60 59 60 61 61 61 60 59 59 58 56
17 13 9 9 14 16 23 28 37 44 43 47 50 55 58 60 60 59 58 58 60 61 61 60 59 56 59 63 65 65 65 64 63 62 60 56 53 50 53 57 61 60 61 61 59 58 55 53 51
17 14 12 14 16 17 22 30 37 43 38 42 54 57 59 60 60 58 56 54 56 57 58 56 54 54 54 54 59 61 60 59 57 56 55 51 52 51 52 58 60 59 60 60 58 53 50 49 45
18 16 16 16 22 23 24 30 39 39 41 48 48 56 58 59 58 58 56 56 55 56 56 56 54 54 55 56 58 58 57 55 55 55 55 53 53 53 52 54 53 54 52 48 48 47 47 48 45
18 19 18 19 22 26 33 32 37 39 47 52 55 57 57 57 56 56 54 53 53 53 54 55 57 57 57 57 57 58 57 56 55 53 55 55 52 53 52 51 52 51 51 49 49 48 50 48 47
19 20 23 28 28 34 38 36 41 48 51 55 57 56 56 56 56 55 54 54 53 51 52 53 54 55 55 56 55 54 52 51 50 52 53 54 52 53 51 51 52 51 52 51 49 49 48 47 46
22 21 29 30 32 34 35 37 40 48 48 51 53 54 55 55 55 54 53 53 54 51 51 52 54 55 54 53 55 57 57 55 54 53 55 54 50 52 51 53 52 52 51 50 49 48 48 46 43
20 20 27 28 30 31 36 37 36 46 45 44 48 53 53 54 55 54 53 53 53 53 54 54 54 53 50 51 51 50 57 54 54 53 56 55 54 55 53 54 53 51 51 50 49 49 48 44 40
17 18 24 24 29 33 38 37 39 43 43 43 41 49 51 52 54 54 53 51 53 53 50 50 46 46 53 51 50 49 52 51 49 50 54 56 54 55 56 54 53 52 52 51 50 49 46 42 39
16 16 23 24 26 34 29 35 39 40 40 41 40 45 50 48 52 52 52 50 49 50 48 50 52 53 55 53 53 50 49 50 47 49 52 57 58 58 57 55 54 54 51 50 50 48 45 41 36
10 13 15 23 37 26 25 29 36 40 37 39 38 42 47 44 49 51 50 48 47 50 50 50 52 54 57 58 53 51 48 51 48 49 52 57 58 58 57 54 54 54 51 51 49 47 43 38 35
15 15 17 22 20 19 21 21 31 37 39 35 39 39 43 47 48 52 50 50 49 50 52 52 53 52 57 57 52 48 46 47 48 51 53 56 57 57 56 54 54 54 51 50 48 46 41 38 35
17 15 13 16 19 20 19 22 20 33 36 36 35 39 39 41 48 51 51 49 51 50 50 51 52 53 57 57 55 50 47 45 48 51 57 59 58 57 56 55 54 53 50 49 48 44 40 38 36
19 18 21 17 22 21 18 17 17 25 34 36 36 36 40 40 41 47 49 49 49 49 50 50 52 54 54 54 54 52 48 47 48 51 54 59 58 57 56 55 53 52 50 49 47 44 41 36 39
17 18 20 20 18 16 23 18 27 22 29 35 36 35 36 39 41 42 45 49 50 50 51 52 52 53 55 54 54 51 47 48 51 53 57 58 59 58 55 54 53 51 50 48 47 44 40 38 39
19 23 22 21 20 19 17 12 21 18 21 27 34 35 35 36 39 41 42 42 48 51 51 53 52 52 53 55 54 54 51 50 51 53 55 57 56 57 55 53 52 51 50 47 45 40 40 41 41
23 24 23 23 21 19 16 14 21 16 13 14 26 33 35 35 37 40 43 43 43 46 51 53 52 52 53 54 54 55 54 54 53 55 55 54 55 55 54 52 52 52 49 46 43 40 43 42 42
24 23 20 18 17 17 23 16 16 29 17 18 20 23 32 36 36 38 40 43 44 46 48 51 52 50 53 55 57 57 58 58 57 58 57 54 54 53 53 52 51 50 47 44 42 43 44 43 39
22 22 21 24 15 16 23 14 15 20 21 21 24 26 27 32 37 38 38 40 43 46 49 51 51 52 52 56 59 61 60 60 59 59 58 56 55 54 53 51 48 46 44 42 43 44 41 39 40
21 20 23 25 22 18 17 15 15 16 17 19 21 27 30 31 31 36 38 39 41 45 50 54 54 53 53 57 60 61 59 59 59 59 58 57 55 53 51 48 45 44 41 42 43 41 36 38 36
23 24 21 21 18 19 13 14 13 16 15 16 17 21 26 33 32 32 35 38 42 45 49 55 56 56 56 59 59 59 59 58 58 58 57 56 54 50 47 45 44 41 40 42 41 37 35 35 38
23 24 22 22 21 21 17 14 19 16 16 17 20 20 23 25 35 37 38 38 41 44 47 52 56 56 57 58 59 57 56 57 58 58 57 55 52 49 45 44 42 41 43 42 38 34 34 36 38
22 21 22 20 18 21 21 19 20 18 18 21 22 22 24 27 30 37 41 44 45 47 48 52 55 55 55 59 58 58 57 57 57 57 56 55 52 50 46 44 41 44 42 38 35 35 34 36 41

GFSSGP_sfc_30mbdewp_048.txt.gz
Dewpoint
50 48 42 34 18 15 10 7 8 4 20 39 43 46 46 43 41 42 59 58 60 62 69 70 70 70 70 69 69 69 68 67 66 66 65 64 65 66 66 66 66 66 61 60 60 59 57 57 59
43 41 30 20 16 12 5 5 3 17 37 35 35 45 41 37 51 59 61 57 57 66 67 69 70 70 69 69 68 68 66 66 66 65 64 65 65 65 65 65 66 65 62 60 60 59 58 58 59
43 33 23 19 17 10 6 11 13 16 30 32 33 32 40 52 52 60 64 64 65 64 66 68 69 68 69 68 67 66 66 65 64 64 64 65 65 66 66 66 65 65 63 60 59 59 59 60 60
33 26 23 15 5 4 4 12 14 13 18 28 34 25 56 61 60 60 65 64 64 63 66 68 68 67 67 67 66 66 65 65 64 65 65 65 66 67 67 66 65 65 63 60 59 59 60 59 58
27 19 15 13 10 11 4 9 9 10 18 34 37 35 54 61 64 64 65 63 63 66 67 68 67 67 67 66 66 65 65 65 65 65 65 65 66 67 67 66 66 66 63 60 59 60 60 58 55
24 20 13 8 10 11 32 35 37 20 20 40 42 45 46 58 62 65 65 65 64 66 67 67 67 67 66 66 66 65 65 65 65 65 65 65 65 65 66 67 66 65 63 62 62 61 59 57 54
19 16 12 10 16 22 33 37 36 40 44 47 48 45 45 55 61 64 65 66 66 66 66 66 66 66 66 65 65 65 66 65 65 65 65 65 63 64 65 66 65 63 62 62 61 60 59 57 51
18 13 11 11 13 22 25 31 38 33 45 50 47 47 50 59 61 62 63 64 64 64 63 63 63 63 61 63 65 65 65 66 66 64 63 62 62 62 63 63 62 62 61 60 60 59 58 55 51
17 14 14 15 19 18 20 22 31 44 40 50 50 55 59 60 60 59 59 60 61 61 61 61 61 61 61 61 64 65 65 64 63 62 60 57 55 55 57 61 62 62 61 60 59 56 54 50 46
14 14 18 16 15 18 19 23 41 45 44 44 43 49 58 58 59 56 56 57 57 57 59 60 59 57 57 59 61 63 63 61 60 58 55 53 53 55 57 60 60 61 60 59 55 52 51 49 45
15 14 18 16 20 20 19 25 29 36 45 44 44 51 56 57 58 57 55 55 56 56 56 56 57 56 56 57 58 57 58 58 58 57 56 57 56 57 59 58 57 58 57 52 51 52 51 50 49
15 15 18 17 23 22 22 33 36 45 53 51 55 57 57 56 56 55 53 54 55 56 54 54 55 55 55 55 56 56 58 56 56 56 58 57 56 56 56 55 56 53 52 49 50 50 52 50 48
16 16 19 25 26 24 28 37 43 48 54 56 56 56 56 55 54 54 53 53 53 53 55 56 56 56 55 54 55 56 56 55 53 53 56 56 55 55 54 55 55 54 54 52 53 52 50 49 47
16 20 18 27 26 30 38 41 45 48 49 52 53 54 55 54 54 53 53 52 52 52 53 55 56 56 55 55 53 55 54 53 50 50 56 54 56 54 55 57 56 56 54 54 52 51 50 50 46
18 15 17 25 28 28 37 35 39 41 44 49 51 52 54 54 53 53 53 52 51 51 53 55 55 56 55 54 56 55 54 55 55 56 56 57 57 54 57 55 56 54 54 53 53 51 51 47 45
18 15 15 23 30 38 35 34 37 40 41 41 50 51 52 50 53 53 53 51 51 51 53 53 54 54 54 55 56 54 53 54 55 55 57 56 57 56 56 57 56 55 54 53 52 51 50 48 44
16 13 17 21 28 31 40 40 42 44 40 38 46 47 50 52 53 52 53 52 52 51 53 52 52 52 51 52 43 44 47 54 55 54 56 58 57 58 58 58 57 56 54 54 53 52 51 46 42
13 13 14 23 28 26 28 40 45 49 37 37 41 46 47 47 49 51 50 51 51 51 51 50 49 49 52 52 43 47 51 53 53 52 53 57 59 59 59 58 56 56 55 54 53 51 48 46 42
11 12 19 24 26 29 19 23 40 40 40 36 38 44 44 47 50 51 49 51 51 49 49 48 46 49 54 54 51 53 50 52 53 52 52 58 58 59 59 58 57 56 55 54 53 51 47 41 39
14 12 14 14 23 19 13 18 37 44 41 35 37 42 42 45 50 49 48 49 50 50 50 51 52 52 55 55 55 54 52 50 51 52 53 59 58 59 59 58 57 56 55 54 52 50 45 44 41
15 14 17 22 22 21 18 14 25 33 32 33 36 39 42 44 48 50 49 49 50 52 52 52 53 53 54 57 57 55 51 49 48 50 56 59 59 59 58 58 57 57 56 53 52 51 47 43 41
14 17 17 19 18 14 22 17 20 22 34 32 33 37 39 40 48 50 51 51 51 51 53 53 53 53 53 57 56 55 51 49 47 49 55 59 60 59 58 58 57 56 55 53 52 50 47 45 43
17 24 22 20 18 17 20 21 18 22 26 30 32 35 39 40 41 49 49 50 50 51 52 53 52 52 54 55 56 55 53 49 51 50 54 57 59 59 59 58 57 56 55 53 52 49 48 45 44
20 21 23 22 21 19 19 17 23 24 28 25 31 35 36 38 40 43 46 49 50 51 53 53 52 52 54 55 54 56 55 53 52 55 57 58 58 59 58 57 56 56 54 53 52 49 45 44 43
21 21 21 20 18 19 20 18 21 26 27 24 28 32 36 36 38 41 43 43 48 51 52 54 54 53 54 57 56 56 56 56 55 56 57 57 58 58 57 56 55 55 54 51 48 46 46 43 43
22 21 23 24 25 26 27 18 17 24 22 21 21 22 32 36 37 39 42 43 43 47 52 54 54 53 53 55 57 56 56 58 58 57 59 58 56 57 56 56 54 53 50 47 46 46 45 43 42
21 20 23 30 29 28 27 25 24 20 17 18 21 23 27 27 37 38 40 44 45 46 48 52 53 53 53 55 58 57 56 59 59 60 59 59 58 57 55 55 51 48 46 44 45 45 42 40 41
21 23 22 21 22 22 15 13 15 18 16 16 16 22 28 32 32 34 39 41 44 47 49 51 52 52 53 54 59 58 55 57 60 60 59 59 58 56 54 51 48 46 44 45 44 42 40 40 39
21 21 27 25 21 21 20 20 30 24 17 17 19 21 22 27 35 35 36 38 42 45 49 52 54 53 54 56 60 60 59 58 59 59 58 58 57 52 49 48 46 44 43 45 43 41 37 36 39
23 22 25 23 23 27 28 23 24 24 20 20 22 22 23 26 29 38 39 40 41 42 47 55 56 56 58 59 60 60 59 59 58 58 58 57 52 49 47 47 45 43 44 44 41 37 35 41 40

GFSSGP_sfc_30mbdewp_054.txt.gz
Dewpoint
47 47 46 38 26 22 20 16 19 17 16 33 43 40 39 47 50 45 61 62 62 65 67 67 68 69 69 69 68 68 67 66 66 67 68 68 66 65 65 64 63 60 59 59 59 59 60 61 62
44 43 40 34 22 16 15 17 16 18 19 41 43 41 44 47 52 57 58 60 62 62 67 67 67 68 68 69 68 67 66 66 66 67 68 68 66 65 64 63 62 60 59 59 59 59 59 58 60
40 38 30 27 19 16 16 17 19 30 38 38 37 55 52 50 51 54 59 61 62 62 65 68 67 67 67 68 68 67 66 66 67 67 67 68 65 65 64 63 62 59 58 58 59 58 58 58 60
37 32 28 22 19 19 19 19 27 35 38 44 42 48 57 56 58 59 61 61 60 62 63 62 66 67 68 68 67 66 65 66 67 67 67 67 65 65 64 63 61 59 58 58 58 58 56 57 59
38 30 23 20 19 20 21 28 30 43 44 44 45 42 50 55 61 63 65 65 64 65 66 66 67 66 66 67 66 66 66 66 66 66 67 67 66 65 64 63 62 60 59 57 57 56 55 57 60
28 28 22 19 19 18 19 33 42 43 42 43 44 45 42 55 59 62 65 66 67 66 66 66 65 64 67 66 64 65 66 66 66 66 67 67 66 65 64 63 62 62 61 59 57 56 55 55 57
25 23 21 19 18 15 24 34 37 43 45 44 48 46 46 49 59 62 65 66 65 66 66 64 65 66 66 65 63 62 66 67 67 67 67 67 67 66 64 64 63 62 60 57 55 53 52 53 54
25 22 20 19 14 15 23 34 42 43 46 51 50 44 47 57 61 63 63 63 65 65 65 64 65 65 63 63 62 61 66 66 67 67 67 67 67 66 64 63 62 61 58 55 53 51 50 50 54
24 21 19 18 14 18 32 33 43 48 48 49 49 51 54 59 60 61 60 60 61 62 64 64 63 62 62 61 60 59 65 65 65 66 66 65 65 64 61 62 61 59 57 54 53 52 50 46 51
21 18 18 18 17 31 44 41 44 44 45 45 46 52 59 58 59 59 58 56 59 59 60 62 61 60 58 57 60 63 63 62 62 61 61 61 62 61 61 61 60 58 56 55 54 52 49 48 45
18 16 16 16 17 34 41 41 47 39 36 50 51 53 57 56 56 57 58 58 58 59 59 60 60 60 58 57 57 63 60 58 56 56 58 60 61 60 60 59 58 57 56 54 51 49 48 49 45
15 16 17 17 25 36 39 44 46 47 51 56 56 57 56 56 56 55 56 56 57 58 58 58 59 59 59 60 62 60 58 56 55 55 57 58 58 56 57 57 56 53 52 51 49 48 50 47 45
22 21 23 21 36 39 41 40 42 50 54 56 56 56 56 55 55 54 55 56 55 56 56 56 57 56 55 55 59 59 57 55 57 57 56 55 54 54 54 55 54 51 51 48 48 50 50 46 45
25 25 23 19 36 38 35 39 41 43 53 53 54 55 54 54 53 53 53 54 54 55 55 56 56 56 55 54 57 58 56 56 58 57 56 54 53 53 52 53 51 51 51 48 50 51 48 46 42
25 22 21 21 32 34 39 36 36 48 53 52 52 54 54 53 53 53 53 53 54 55 55 55 55 55 53 53 54 55 54 54 55 56 57 56 55 53 53 55 54 53 52 51 52 51 49 46 45
23 23 18 19 34 37 37 30 36 49 52 52 52 52 52 51 52 52 52 53 54 54 54 54 55 54 53 51 50 53 54 55 53 54 56 57 56 56 56 56 57 56 56 54 52 51 50 48 45
23 16 19 20 26 36 36 32 38 42 44 52 52 52 51 51 52 52 52 52 54 53 53 53 54 52 52 52 49 51 52 54 54 52 54 55 56 58 57 57 57 58 56 54 52 51 50 47 45
15 20 19 17 30 35 35 34 36 44 49 50 51 51 51 51 51 51 51 52 53 52 51 52 53 52 53 53 51 52 52 52 53 50 53 55 55 55 57 57 57 57 55 53 52 51 51 49 47
22 21 20 21 22 31 28 31 34 41 45 50 51 49 50 51 52 51 51 51 52 52 52 52 52 52 53 52 50 50 49 50 51 52 52 52 55 55 55 58 58 57 55 53 52 51 50 47 44
23 23 23 18 26 26 31 30 37 38 42 44 49 50 50 51 51 51 51 50 51 51 51 51 51 51 52 52 50 48 47 48 51 51 50 52 53 56 56 57 58 57 55 54 53 52 49 46 40
24 24 22 16 23 25 30 30 38 39 42 44 47 50 50 50 50 51 50 49 51 50 51 51 51 50 50 52 50 46 46 50 50 51 52 52 54 55 57 58 58 57 56 54 53 52 48 46 42
23 24 19 20 21 18 21 17 31 38 36 42 45 47 47 49 50 50 50 49 50 50 50 51 51 49 49 51 51 44 43 44 48 51 52 52 54 56 58 58 58 57 57 55 54 53 50 47 44
23 24 20 24 22 22 21 19 21 37 36 40 44 45 46 48 49 49 50 49 50 50 49 49 49 49 48 48 53 48 46 47 50 52 50 51 55 57 58 58 58 58 57 57 56 54 51 48 46
25 23 24 25 24 20 22 21 22 35 34 39 40 44 46 48 49 49 49 49 49 49 49 48 47 48 48 47 51 52 49 50 52 52 50 50 54 58 58 58 58 58 58 57 57 55 52 49 46
24 21 18 19 20 19 25 26 24 31 35 39 39 42 44 48 49 49 48 48 49 48 48 49 46 46 46 46 49 51 51 51 53 54 51 51 54 57 58 58 58 57 57 57 57 54 51 48 46
23 21 19 17 20 24 29 23 22 27 29 38 40 39 42 44 49 49 48 48 48 49 48 49 49 46 46 47 49 50 51 52 55 56 54 52 54 56 57 57 57 57 57 56 54 51 49 47 47
22 20 24 26 33 28 27 28 27 26 24 29 36 37 39 43 46 49 49 47 48 48 50 49 49 49 49 49 51 52 53 53 56 57 56 55 55 56 57 57 57 56 55 54 50 48 46 46 46
22 25 23 28 22 21 25 27 24 23 21 20 24 32 37 40 43 46 49 50 49 49 50 52 51 51 51 53 53 53 53 55 56 57 56 56 56 56 56 56 56 54 53 50 48 46 46 45 44
21 21 24 25 26 20 20 21 27 26 24 20 18 27 32 38 40 44 48 49 50 51 51 51 52 52 52 53 53 54 54 55 57 57 57 57 57 57 55 55 54 52 49 47 46 45 44 43 43
23 22 22 21 25 27 24 23 27 26 25 23 22 25 32 35 39 40 43 48 49 50 51 52 52 53 53 53 54 55 56 57 58 58 59 59 58 56 55 54 52 50 47 46 45 44 44 43 42

GFSSGP_sfc_30mbdewp_057.txt.gz
Dewpoint
50 51 45 35 23 23 21 18 20 17 18 31 43 39 41 48 50 41 61 62 66 68 68 67 66 65 66 67 68 67 67 67 68 68 66 66 66 65 64 62 63 63 62 61 61 61 61 62 63
43 44 37 30 22 15 14 17 16 18 34 43 42 45 45 47 52 58 60 61 64 65 65 65 64 63 62 64 67 67 66 67 68 67 66 66 65 64 63 62 63 63 62 60 60 60 61 62 63
40 35 28 26 19 16 16 17 19 22 40 39 42 54 51 45 51 57 59 61 62 62 67 65 63 62 62 63 66 67 66 67 68 67 66 65 65 64 62 61 62 62 62 59 58 57 59 62 61
37 31 27 23 20 20 19 19 20 36 38 43 45 48 56 56 57 57 61 61 62 62 67 66 63 60 65 64 66 66 66 67 67 67 65 65 64 63 62 61 62 62 61 58 55 58 61 61 61
37 30 23 19 19 20 20 21 31 39 42 41 45 41 50 56 57 63 63 61 61 62 63 66 66 65 65 66 65 64 67 67 67 67 65 65 64 63 62 61 61 62 60 57 56 60 62 61 60
28 26 21 18 18 20 19 27 37 42 42 43 44 42 43 55 58 61 64 64 63 63 65 64 66 65 65 65 65 64 66 67 67 67 65 65 64 63 63 62 61 61 60 58 58 61 61 60 58
25 23 21 20 19 18 19 34 38 43 44 44 49 46 48 50 59 61 65 65 66 65 65 65 65 64 63 62 60 60 62 66 65 66 65 65 65 64 63 62 61 59 57 56 56 57 59 59 57
25 23 21 20 16 15 23 36 43 44 43 51 50 44 48 56 60 63 64 63 65 64 63 65 65 65 62 61 60 60 63 65 64 65 66 66 65 64 63 61 59 57 57 56 56 56 59 59 58
24 20 19 19 16 16 36 36 44 47 47 49 49 50 55 58 60 60 59 61 63 63 63 64 63 62 61 60 59 60 63 66 66 66 67 65 64 62 60 59 58 57 57 57 55 53 57 59 57
22 19 18 20 18 17 37 40 39 43 44 45 47 55 58 58 58 58 57 58 59 61 61 61 61 60 59 59 58 60 63 64 66 66 65 64 62 60 60 59 57 55 55 54 54 53 50 51 53
20 16 16 16 17 24 41 44 46 43 39 47 49 52 57 56 56 56 57 58 58 60 60 60 59 58 56 54 55 59 62 62 62 61 62 62 61 60 59 58 57 56 53 51 48 48 47 46 49
15 17 17 19 20 36 39 42 44 46 47 55 54 54 56 55 55 56 56 57 58 58 59 59 58 57 57 55 54 57 60 59 60 60 61 60 59 57 57 56 55 53 51 48 48 50 47 43 45
20 23 24 24 32 37 41 38 43 50 55 56 56 56 55 55 54 54 56 56 57 57 58 59 59 58 56 54 55 60 58 58 58 60 60 58 56 55 56 55 53 51 50 47 47 50 46 45 40
24 25 24 23 35 39 35 38 41 48 54 55 55 54 54 54 53 53 54 54 56 56 57 58 58 58 58 58 60 58 56 57 58 58 57 55 54 55 53 53 51 50 48 48 48 50 46 45 39
25 21 22 23 34 34 38 35 36 45 53 52 53 53 52 53 53 53 53 54 55 56 56 56 56 56 57 58 58 57 56 56 56 55 55 54 53 53 52 53 52 51 50 48 51 50 48 44 40
22 22 18 23 31 34 36 23 34 49 52 51 52 53 51 51 52 52 53 54 55 55 55 56 56 55 56 57 57 55 55 56 55 56 55 55 54 53 53 53 53 53 52 50 51 51 48 45 44
22 13 17 18 25 31 35 29 36 51 52 51 52 51 51 50 51 52 52 54 54 55 55 55 55 53 53 54 53 53 54 54 55 56 56 55 54 53 53 55 55 55 54 53 52 51 50 47 46
14 17 19 18 24 35 35 34 36 44 45 47 51 51 51 50 50 51 52 53 53 54 54 54 54 54 52 52 53 53 52 53 54 53 55 57 57 57 57 57 57 56 56 55 53 51 50 49 46
20 20 20 21 23 27 30 33 33 43 47 49 50 50 50 50 51 51 51 52 52 52 52 53 53 53 53 51 52 51 50 50 51 53 53 55 56 56 57 57 57 57 56 54 53 51 50 48 46
22 21 21 23 24 27 27 27 34 39 43 49 49 50 49 50 50 50 49 51 52 51 51 52 52 52 52 50 49 48 48 49 51 50 51 52 52 55 55 57 57 57 55 54 53 51 49 49 44
23 23 23 23 24 28 28 25 33 37 40 44 49 51 50 49 50 49 49 49 52 52 51 51 51 51 51 51 50 48 47 47 49 50 51 51 52 53 55 56 57 57 56 54 53 52 50 49 44
21 24 24 23 20 18 23 18 20 35 36 41 43 49 50 50 51 51 50 48 50 51 51 51 50 50 51 52 51 48 45 44 46 49 50 50 53 52 55 56 56 56 56 55 54 53 51 50 47
23 26 25 24 22 21 21 19 20 37 34 35 40 46 49 50 50 50 50 49 49 50 51 51 51 50 50 51 52 49 46 45 45 49 50 51 52 54 55 56 56 57 57 56 55 54 52 50 49
25 25 25 27 24 20 21 21 21 28 28 31 37 44 47 48 49 50 50 50 49 50 50 50 51 50 49 49 51 51 47 46 46 47 49 50 52 53 55 56 57 57 57 57 56 56 54 52 51
25 22 20 18 20 19 26 25 24 25 30 31 34 40 46 47 49 49 49 49 49 49 50 49 49 49 49 48 48 51 51 48 47 48 50 51 52 52 55 56 57 57 57 58 57 56 55 55 52
23 22 20 16 17 18 29 24 24 27 28 32 37 39 44 46 47 49 48 49 48 49 49 49 48 48 49 49 47 48 51 51 49 48 51 53 52 53 55 56 57 58 57 57 56 56 55 53 50
22 21 24 23 32 27 25 27 28 26 26 31 37 40 41 45 47 48 49 48 48 48 48 48 48 47 47 48 48 47 48 50 49 50 52 55 55 54 55 57 56 56 56 56 55 54 52 50 48
22 26 22 27 20 21 23 26 22 24 24 26 30 38 39 42 46 48 49 49 48 48 48 48 48 47 46 46 47 46 47 49 49 50 53 56 56 56 56 56 56 55 55 55 53 51 49 48 47
22 21 24 26 25 18 19 21 26 25 28 23 21 25 37 39 43 47 49 49 49 49 50 49 48 48 48 46 46 46 47 49 51 52 54 57 56 56 56 56 56 55 54 51 50 48 47 46 45
22 22 23 20 23 27 23 20 26 27 28 27 22 21 28 37 41 43 46 49 49 48 49 50 51 50 50 49 48 48 49 51 52 53 56 57 57 57 57 57 55 54 53 51 49 47 45 44 44

GFSSGP_sfc_30mbdewp_060.txt.gz
Dewpoint
48 51 44 32 20 21 18 19 21 18 18 22 38 39 37 43 43 36 61 64 68 68 68 69 68 68 68 68 68 68 68 68 68 67 67 67 66 64 64 64 64 64 63 61 60 60 60 60 61
43 45 35 28 17 14 14 18 16 18 21 41 44 46 45 46 52 58 61 63 68 68 67 67 68 68 68 68 68 68 68 68 67 67 66 66 65 64 64 64 64 63 63 61 60 62 61 61 61
39 34 27 23 18 15 15 18 18 20 30 40 43 53 52 45 51 59 59 63 65 65 65 66 66 65 66 67 67 68 68 68 67 66 66 65 64 64 65 64 64 63 63 61 62 62 62 61 61
36 30 25 23 18 20 19 19 20 23 39 43 46 46 56 56 55 57 62 62 62 63 65 64 63 64 64 63 67 67 68 67 66 66 66 65 64 64 64 64 63 62 61 61 61 63 62 61 60
34 28 22 19 19 20 21 21 22 33 40 42 44 41 51 55 57 62 63 63 61 61 65 66 63 65 65 64 65 66 67 67 66 66 65 64 63 64 64 63 62 60 59 59 62 61 61 60 59
27 26 20 15 17 20 20 20 32 40 41 42 43 41 42 55 54 59 61 61 61 61 63 66 63 65 65 65 64 64 64 65 65 65 65 64 63 63 64 63 61 60 61 62 63 62 60 60 58
25 22 19 20 19 18 16 35 38 39 42 42 48 44 47 49 57 61 61 64 63 62 64 66 64 64 65 63 61 62 63 63 65 65 65 64 63 63 63 62 60 60 62 63 62 60 59 59 58
25 23 21 20 17 16 21 33 42 43 40 50 50 43 47 56 59 63 63 63 64 64 64 64 64 61 61 62 61 60 60 64 65 65 65 65 64 63 62 59 58 58 59 61 61 60 59 58 58
24 21 19 20 18 16 27 28 42 47 47 49 49 49 55 57 59 59 59 61 62 62 63 64 62 60 60 59 59 59 60 60 64 65 65 64 63 61 58 57 59 58 58 59 60 60 59 58 57
23 20 19 20 19 17 19 31 39 42 44 45 47 53 57 57 58 56 56 57 60 61 62 63 62 60 60 59 58 56 58 57 59 64 64 63 61 58 58 59 58 56 55 57 60 60 59 57 56
21 18 17 18 19 19 20 39 45 43 38 42 44 49 55 56 56 57 57 57 59 60 60 60 60 60 59 59 58 58 58 58 57 64 63 61 60 60 58 57 56 55 54 50 52 52 51 53 52
18 18 18 19 22 28 31 41 41 41 39 51 54 53 55 54 54 56 56 57 58 59 59 60 60 60 59 57 56 58 55 58 59 61 62 60 59 57 56 55 54 51 49 48 48 47 48 49 50
17 20 23 24 25 33 40 39 41 46 53 56 56 55 54 54 54 55 57 57 58 58 58 59 58 56 56 54 55 58 58 59 60 60 61 58 56 55 55 54 52 50 49 49 48 45 45 46 46
24 24 25 24 26 36 35 37 41 40 54 54 54 52 52 53 53 54 55 55 57 58 58 58 57 56 56 53 57 60 58 59 60 59 60 57 55 55 53 52 50 49 48 49 48 46 44 41 40
25 23 22 20 28 32 38 34 36 42 53 53 53 53 52 52 54 54 54 55 56 57 58 57 58 57 56 54 59 57 57 58 59 60 58 55 55 54 53 52 50 50 48 50 50 47 46 41 37
23 22 17 20 31 34 35 24 30 47 51 51 52 52 50 50 51 52 54 55 56 56 56 57 58 58 58 57 58 56 57 58 58 57 56 54 54 53 53 52 50 51 49 51 51 48 46 43 39
22 17 15 17 26 32 35 27 36 49 51 49 51 51 50 50 51 51 52 54 55 56 56 56 56 57 57 58 56 55 56 56 56 56 55 54 53 53 52 52 52 52 52 50 51 50 48 45 44
18 18 19 18 23 31 32 30 35 47 50 50 50 51 50 50 50 51 52 53 55 55 56 55 55 55 55 55 55 54 54 55 56 56 55 54 54 53 53 54 53 54 54 53 52 51 50 48 46
18 19 18 18 21 23 23 27 26 37 48 47 47 50 50 49 50 51 52 53 53 54 54 54 54 54 53 53 53 53 52 52 54 55 55 55 55 55 56 55 55 56 55 54 53 52 50 49 47
21 21 19 20 23 24 24 25 29 36 42 45 45 47 49 49 50 50 49 51 52 52 53 53 53 53 54 54 53 53 52 51 52 52 54 55 56 57 57 57 56 57 56 55 54 52 51 50 46
22 21 19 20 24 24 27 25 27 34 39 45 49 49 50 49 49 49 48 50 52 51 52 52 52 53 53 53 52 48 48 51 49 50 50 51 52 54 56 56 57 56 56 54 53 52 51 50 47
19 23 21 22 22 21 25 20 21 24 33 40 43 49 49 49 50 49 48 48 51 51 52 52 52 52 51 52 51 49 48 49 48 48 50 51 51 52 53 55 55 56 56 55 54 53 51 50 48
18 24 23 24 23 22 22 19 20 33 26 28 37 43 48 50 50 50 49 48 49 51 51 51 51 51 51 50 49 49 47 46 47 49 48 50 51 52 53 54 55 55 56 55 55 54 52 51 50
26 25 25 27 24 21 21 21 20 21 23 26 31 39 44 49 50 50 50 49 50 51 51 51 50 50 50 51 51 49 48 46 45 45 47 48 50 51 53 54 55 55 55 56 55 55 54 53 51
24 23 20 19 21 20 23 22 22 25 26 29 29 34 42 48 49 50 50 49 49 49 50 51 51 50 49 50 51 51 49 48 46 45 46 47 48 50 51 54 55 55 56 56 56 56 56 55 53
24 23 20 17 18 18 27 23 22 27 29 29 31 34 43 47 48 49 50 50 49 49 50 50 50 50 50 49 49 50 51 50 48 47 48 48 49 50 52 53 54 55 56 56 57 57 56 55 54
21 21 24 23 30 26 25 26 27 25 25 26 33 38 40 45 47 48 49 49 49 49 49 50 49 50 50 50 49 48 49 51 51 49 48 49 52 52 53 53 54 55 56 56 56 56 55 54 53
22 26 23 26 20 20 22 25 20 21 21 25 28 34 39 43 46 48 49 49 49 48 49 50 49 49 49 49 49 48 48 49 50 51 50 49 50 53 54 54 54 55 55 55 55 53 52 52 50
22 21 24 25 25 19 18 21 27 23 26 27 26 27 35 40 44 47 48 49 49 48 49 49 49 48 48 48 48 49 48 48 49 49 50 51 52 55 55 55 56 56 55 55 54 52 51 51 49
22 22 23 20 21 26 22 20 25 26 27 28 27 25 22 33 40 44 48 49 49 48 48 48 48 48 48 48 47 47 48 48 48 48 49 51 52 55 55 56 56 57 55 53 52 51 50 49 48

GFSSGP_sfc_30mbdewp_063.txt.gz
Dewpoint
49 49 41 32 20 20 17 18 21 19 19 21 41 37 38 44 40 37 61 65 67 66 66 67 68 69 69 69 69 69 69 69 68 68 68 67 67 66 65 64 64 63 62 60 60 60 60 61 61
44 43 35 27 17 14 14 19 17 18 20 38 44 47 44 42 53 57 61 64 67 66 66 66 68 69 69 69 69 69 69 68 68 68 67 67 66 65 65 64 64 63 62 60 59 59 60 62 62
39 33 28 22 19 15 15 18 18 19 21 33 40 53 47 45 51 59 60 63 67 66 67 67 68 68 68 68 69 69 68 68 67 67 67 65 66 65 65 64 64 63 63 61 60 59 60 61 62
35 30 26 23 18 20 19 19 21 21 36 42 45 47 55 57 53 57 61 64 65 66 67 68 66 66 68 68 68 68 67 67 67 66 66 65 66 65 65 64 64 63 62 62 60 60 61 61 61
33 28 22 20 19 21 22 21 22 23 39 42 44 39 49 56 57 60 63 63 63 64 65 65 65 64 66 68 68 68 67 67 66 66 65 65 65 65 64 64 64 63 63 63 61 59 60 60 60
27 27 21 16 17 20 21 22 25 34 40 42 43 41 42 55 54 58 61 63 63 64 65 64 63 64 65 65 65 67 67 66 66 65 64 65 65 64 64 63 62 62 64 64 61 60 60 59 59
26 23 18 19 19 19 18 32 36 36 41 40 46 42 48 48 56 60 62 63 62 63 64 65 63 65 65 64 61 64 66 66 66 65 64 64 63 63 63 61 62 62 64 62 61 60 60 59 58
26 24 21 21 19 16 18 32 39 38 36 50 50 43 45 55 58 61 62 63 64 63 63 65 64 65 65 64 63 63 64 66 65 64 63 63 63 63 63 61 63 64 64 62 60 60 59 59 58
25 22 19 20 19 17 20 27 40 46 45 48 49 49 53 57 59 59 60 62 62 63 63 64 63 64 64 62 62 62 61 64 65 65 64 63 63 62 58 58 63 64 62 60 60 60 59 58 58
24 22 20 21 20 18 19 24 27 40 44 45 47 50 56 57 58 57 56 57 59 60 62 63 62 62 62 59 60 61 61 61 62 64 63 62 61 58 54 58 61 62 61 61 60 59 59 54 52
23 19 21 19 20 20 19 32 40 40 38 42 43 48 53 55 55 57 57 57 59 60 61 62 60 59 59 58 58 60 62 62 60 63 62 61 58 58 57 56 56 58 59 57 57 56 52 52 51
20 20 19 18 20 24 24 38 42 43 41 50 51 52 54 53 54 56 57 57 58 59 59 59 59 59 59 58 57 57 56 59 59 62 61 58 57 56 55 52 52 52 53 57 56 53 53 52 51
19 18 20 20 24 26 38 36 39 42 49 55 55 55 54 53 54 55 57 58 58 58 59 59 59 59 59 58 58 59 57 58 59 60 60 56 54 54 53 53 50 49 51 52 52 52 51 51 51
23 20 22 25 23 31 32 35 40 39 53 54 54 53 52 53 53 54 56 56 58 58 58 59 58 58 58 57 58 58 58 59 59 59 59 56 55 55 54 51 50 49 49 48 49 50 50 49 49
25 24 24 23 23 28 38 32 34 42 53 52 51 52 52 51 53 54 55 56 57 58 57 57 57 56 55 56 58 59 59 58 59 59 59 56 55 55 52 51 50 51 52 49 48 48 47 45 44
23 23 20 18 31 34 34 19 29 45 50 51 51 52 51 50 52 53 54 56 57 57 57 58 57 56 54 58 58 58 58 58 58 59 58 56 55 54 54 52 52 52 52 50 48 47 44 41 39
23 17 17 16 26 32 33 24 32 49 49 49 51 51 50 49 50 51 52 54 57 57 57 57 57 56 55 57 58 57 58 59 58 56 57 56 55 54 53 52 53 53 53 53 50 49 47 44 41
18 20 20 18 25 29 29 29 29 43 49 47 49 51 50 49 49 50 51 53 56 56 56 56 57 56 56 57 57 57 56 57 59 57 55 55 54 54 54 53 54 54 52 54 53 51 51 47 46
20 19 18 18 20 21 23 25 25 32 46 47 49 50 50 49 50 51 51 53 55 55 55 55 55 56 56 56 55 55 56 56 56 57 56 55 54 54 54 55 54 55 54 53 54 54 52 50 49
21 20 20 21 23 22 24 24 25 32 37 44 45 47 49 50 50 51 49 52 53 54 55 55 54 55 56 56 55 53 55 55 56 56 56 55 55 54 55 55 56 55 55 55 55 54 53 52 49
22 21 21 18 23 24 25 23 23 29 38 42 45 45 48 50 49 49 49 50 52 52 54 54 54 54 55 55 54 53 52 52 53 54 54 55 55 57 57 57 57 57 58 56 56 55 54 53 51
20 23 22 21 18 19 24 19 23 23 27 35 40 46 48 49 50 49 49 49 51 52 53 54 53 54 54 55 53 53 51 51 52 52 53 55 56 56 56 56 58 58 58 57 57 56 55 54 52
18 23 23 22 21 23 23 20 21 26 24 25 30 42 47 49 50 49 49 49 50 51 52 53 53 53 53 53 52 50 51 51 50 51 51 52 53 54 53 51 53 56 55 57 57 56 55 54 53
24 23 26 27 25 22 22 21 19 22 23 25 28 36 44 48 50 50 50 49 49 51 52 52 52 52 52 52 52 50 49 49 50 49 50 51 52 52 53 53 55 56 56 57 57 57 56 55 54
24 22 20 21 22 21 24 21 20 24 25 27 28 30 40 47 49 50 50 49 49 50 51 51 51 51 51 51 51 50 50 49 50 48 49 50 51 51 53 54 55 56 56 56 57 57 56 56 55
23 21 21 18 19 19 26 21 20 27 29 30 30 31 36 46 49 50 50 49 49 50 50 51 50 50 51 51 50 50 50 50 49 48 48 49 50 50 52 53 53 54 56 56 57 57 57 57 55
25 22 25 24 29 24 24 26 26 25 24 26 27 36 39 45 48 49 50 50 49 49 50 50 50 50 51 51 51 51 51 50 49 49 50 49 50 50 51 52 53 54 55 56 57 57 57 57 56
24 26 21 24 19 20 22 24 20 21 21 24 28 28 38 43 47 48 50 50 50 49 50 50 50 50 50 51 51 50 50 51 51 51 50 50 50 50 51 51 52 53 54 55 56 56 57 56 56
22 22 25 25 24 19 18 20 28 24 24 25 29 29 29 39 45 47 49 50 50 49 49 50 50 50 50 51 51 50 50 50 51 51 52 52 51 51 51 51 51 51 52 55 56 56 56 54 55
23 22 24 20 23 26 23 20 24 27 28 28 28 29 28 26 38 45 48 49 49 49 49 49 50 50 50 51 51 51 51 50 50 50 50 52 52 52 51 52 52 53 54 55 55 55 54 52 52

GFSSGP_sfc_30mbdewp_066.txt.gz
Dewpoint
46 44 40 34 20 15 10 13 18 17 19 25 34 36 32 36 30 30 60 64 65 64 64 66 69 70 70 70 69 70 69 69 68 68 68 68 69 68 67 66 65 65 64 62 60 60 62 63 63
40 43 36 25 16 9 9 15 17 17 20 24 38 41 40 36 46 51 59 64 65 64 64 65 69 70 70 70 70 69 69 68 68 68 68 68 67 67 66 65 64 63 63 61 60 59 61 62 62
40 38 26 21 15 9 10 16 17 21 21 22 35 43 42 37 50 57 61 64 67 63 63 65 68 67 70 70 69 69 69 68 68 68 68 67 66 66 65 64 63 63 62 60 59 61 61 62 62
30 28 26 19 13 16 17 19 21 22 29 32 35 36 49 56 53 58 61 64 67 64 62 66 68 67 68 69 69 69 68 68 68 67 67 67 66 65 65 64 63 62 61 59 60 61 62 62 61
33 26 14 14 14 19 21 22 23 23 30 37 40 32 39 55 57 59 61 64 66 66 64 66 66 64 64 64 68 69 68 68 67 66 66 66 66 65 65 64 64 63 62 60 60 61 61 61 61
25 25 12 6 13 19 20 22 22 26 28 33 38 36 38 52 55 57 61 63 66 66 65 64 64 63 63 64 67 68 67 67 66 66 66 66 66 65 65 64 64 64 63 61 61 61 60 60 59
22 15 5 8 13 17 18 26 26 24 24 28 39 37 40 47 54 58 59 61 65 65 65 63 62 63 64 62 65 67 67 67 66 66 66 66 65 65 65 65 65 65 63 61 61 61 60 59 59
22 17 12 10 12 16 17 23 27 28 25 47 43 31 36 53 55 58 59 60 63 64 64 64 64 63 62 62 64 63 65 66 65 66 65 65 64 64 63 63 65 64 62 61 61 60 60 59 59
24 15 11 10 13 16 19 23 24 34 32 42 44 44 48 53 55 56 57 60 62 63 62 63 62 63 62 59 62 63 63 64 65 65 64 64 62 61 60 60 65 63 61 61 60 60 60 59 58
20 13 10 14 15 17 20 21 24 30 28 35 42 47 51 53 54 54 54 58 60 61 62 63 63 62 63 63 62 62 63 64 64 64 62 62 62 60 55 61 64 63 61 60 60 60 58 54 50
17 13 11 17 18 18 20 22 29 28 23 27 34 43 49 53 54 55 56 57 58 60 62 63 64 64 64 63 62 62 63 63 62 62 61 62 61 55 57 60 61 58 57 54 55 54 50 47 46
16 17 14 15 17 19 21 24 28 31 31 43 41 47 51 52 53 53 54 57 58 59 60 61 62 61 60 61 61 61 60 61 60 58 61 61 57 57 57 56 56 55 53 53 52 50 50 49 47
19 12 16 18 18 20 24 25 25 29 34 46 49 51 52 52 52 53 55 57 57 58 59 59 59 59 59 59 60 59 58 58 59 59 59 59 56 56 54 54 54 53 53 54 52 51 51 49 48
14 16 14 14 18 21 25 21 34 25 34 47 49 49 51 52 51 52 54 56 57 59 59 59 59 59 59 58 59 59 60 59 60 60 58 58 55 55 52 52 51 51 53 53 51 50 48 47 47
18 18 17 19 20 19 26 21 24 27 44 45 47 49 50 50 50 51 53 55 57 59 59 59 59 59 58 58 58 59 60 59 59 58 57 57 54 54 53 50 50 49 49 50 49 49 47 46 46
19 18 14 13 15 21 28 12 16 35 42 44 45 49 50 50 49 50 53 55 58 58 57 58 58 57 58 58 58 58 58 58 58 59 56 54 54 54 53 51 48 49 49 48 48 48 47 46 45
20 14 14 13 18 22 29 17 30 39 39 39 45 48 49 49 49 50 52 54 57 58 58 58 57 56 58 58 59 59 57 57 59 59 55 52 54 54 52 51 50 53 50 48 47 47 47 45 44
14 17 14 14 18 22 21 24 22 29 37 40 41 46 48 48 48 49 51 53 56 57 58 57 57 56 57 58 58 59 58 57 58 59 55 52 50 51 50 50 52 53 53 51 49 50 50 48 46
14 14 13 11 15 16 14 17 21 23 32 39 40 43 47 48 50 49 51 52 55 56 56 57 56 55 56 56 56 56 56 57 56 56 56 55 53 54 53 51 54 53 52 53 53 53 52 51 50
15 14 13 13 19 19 11 17 21 21 26 31 38 41 45 48 50 49 50 51 53 56 56 56 56 56 55 55 55 53 56 55 56 54 56 55 55 55 55 54 52 52 52 53 55 54 53 52 52
16 14 14 14 19 19 20 19 19 19 28 34 37 38 43 47 48 49 49 50 53 54 55 56 56 55 55 55 56 53 54 54 55 56 55 55 55 54 54 55 53 53 53 53 54 54 53 52 54
15 17 17 17 17 7 22 14 16 19 19 24 29 39 40 45 48 49 49 49 51 53 55 56 55 56 56 56 55 52 51 50 52 52 55 54 56 54 54 55 54 56 57 56 56 55 54 55 52
18 17 20 19 18 14 13 18 13 19 19 18 20 30 40 44 47 48 49 48 49 52 53 55 55 55 55 55 54 53 51 50 52 53 53 54 56 56 56 57 56 58 58 57 57 57 57 55 53
21 20 20 20 16 15 16 19 14 14 19 19 22 27 36 43 47 48 49 49 48 51 52 53 53 54 55 55 55 53 52 52 52 53 54 53 54 54 56 56 57 57 57 56 55 54 57 54 55
21 18 17 16 17 13 19 20 18 18 19 22 25 26 33 41 46 48 48 48 47 49 51 52 52 52 54 54 54 52 52 52 51 52 53 52 53 53 54 54 53 54 52 53 55 55 54 55 55
19 18 16 13 15 17 22 19 18 21 22 26 27 27 31 39 45 47 48 49 48 48 50 52 51 51 53 54 54 52 51 51 51 51 52 52 52 52 53 55 53 53 53 53 53 54 54 54 55
21 20 21 21 26 20 20 21 23 21 21 22 25 29 33 36 42 46 48 49 49 48 49 51 50 50 51 52 54 53 51 51 50 51 51 51 52 51 52 54 54 54 52 52 52 53 53 54 55
24 23 20 21 18 18 18 20 18 19 20 20 26 27 33 39 41 45 47 50 50 49 49 50 50 49 51 52 53 53 52 52 50 51 50 50 50 50 50 51 51 51 50 51 52 52 52 53 55
22 22 23 21 19 18 18 19 24 22 22 23 25 27 30 37 42 44 46 49 50 50 49 49 50 49 50 51 52 52 52 52 52 52 51 50 50 50 50 50 50 50 49 50 51 52 52 53 55
20 21 22 20 21 22 22 20 25 27 26 28 26 26 30 28 35 42 46 47 49 50 49 49 49 49 49 50 51 52 52 52 52 52 52 52 52 52 51 51 49 49 49 50 51 52 52 54 55

GFSSGP_sfc_30mbdewp_069.txt.gz
Dewpoint
44 38 35 30 21 14 9 9 12 11 15 20 26 27 27 31 24 29 58 61 63 61 66 66 69 70 70 70 70 70 70 69 69 68 68 69 68 68 68 67 67 66 64 62 64 64 64 64 65
35 36 34 28 14 10 8 12 13 13 16 21 27 29 28 27 35 37 52 62 63 62 65 64 69 69 70 70 69 70 70 69 69 69 69 69 68 68 67 67 66 65 63 62 63 63 63 63 63
41 34 29 19 16 11 10 12 13 15 18 18 24 29 31 32 44 50 59 63 65 63 64 65 68 69 70 70 69 69 69 68 68 69 69 69 68 67 66 65 65 64 62 60 62 63 63 63 63
31 26 24 14 11 13 15 13 17 17 19 23 23 25 36 52 49 55 59 63 65 64 63 66 67 69 68 69 69 69 69 68 68 68 68 68 67 66 65 65 64 64 63 62 60 62 62 63 62
27 22 17 13 12 13 17 16 18 18 20 26 29 26 29 51 55 56 59 62 64 66 64 66 65 67 67 68 65 66 68 68 68 68 67 67 66 65 64 64 63 62 62 62 62 62 62 62 61
22 19 15 11 7 12 18 17 19 18 20 22 28 29 30 51 50 55 59 61 64 66 65 64 65 66 66 65 63 59 67 68 68 67 67 66 65 65 64 64 63 62 62 62 62 61 61 61 59
21 18 14 8 6 10 16 20 20 19 18 19 29 29 32 45 51 56 56 59 62 65 67 65 65 64 64 60 58 60 62 67 67 67 67 66 65 65 65 64 63 62 62 62 61 61 61 60 59
21 17 13 10 8 7 15 17 19 20 20 34 30 26 29 52 54 56 57 58 61 65 66 66 65 62 61 62 60 64 65 66 66 66 66 65 65 65 65 65 63 62 62 61 61 61 60 59 58
21 15 12 9 10 9 15 17 19 20 23 22 34 39 42 51 52 53 55 57 59 63 64 65 64 64 62 60 62 63 65 64 65 66 65 65 63 63 63 63 63 62 62 61 61 61 60 59 57
18 13 11 11 11 10 13 16 17 20 19 20 26 38 45 49 49 50 50 53 57 60 62 63 64 64 63 62 61 62 63 65 64 64 63 61 62 62 62 63 62 61 61 61 61 60 59 54 49
17 14 12 12 12 13 14 15 17 20 20 21 28 31 43 47 49 51 52 54 54 58 61 62 63 63 63 63 64 63 63 64 63 64 63 63 61 60 63 63 58 57 57 54 55 54 50 45 44
13 14 13 12 12 14 15 16 17 19 21 25 34 38 42 49 49 48 50 53 56 59 58 61 63 64 63 64 64 63 63 63 62 62 61 60 60 59 60 60 55 53 52 52 50 49 47 46 44
14 13 13 12 11 13 16 16 18 19 20 24 37 46 45 48 48 48 51 55 55 57 58 60 60 62 62 61 63 64 62 62 61 60 60 59 59 57 59 58 55 52 53 52 50 49 49 47 46
14 14 15 12 12 13 14 16 19 18 21 26 37 43 46 49 47 47 51 54 56 57 58 59 59 60 60 61 60 61 61 61 60 59 60 59 59 56 56 56 55 52 52 51 49 49 48 47 46
16 13 13 15 12 11 12 14 17 18 19 27 35 42 45 47 47 47 50 55 56 58 59 59 58 59 59 59 60 59 60 59 59 59 60 59 57 57 55 55 54 52 52 52 50 49 47 46 45
17 14 13 14 14 15 15 15 15 19 26 30 37 40 44 46 47 47 51 54 56 58 59 59 59 58 58 59 59 59 59 59 58 57 59 58 56 56 55 53 52 53 53 51 49 47 45 44 44
18 14 14 15 15 14 16 16 17 28 28 30 34 38 43 45 47 47 49 52 57 58 59 58 58 58 58 59 59 60 59 59 58 57 57 57 56 55 54 52 52 54 51 50 49 47 46 45 44
15 14 16 15 16 15 13 20 18 23 29 30 32 37 42 45 45 46 49 52 56 58 59 58 58 58 58 59 59 58 58 59 59 58 56 56 55 55 53 52 55 53 50 49 49 48 48 47 46
16 14 14 17 15 16 16 14 16 17 23 27 32 34 40 44 45 47 49 51 55 57 58 57 56 57 57 58 57 56 56 57 58 57 56 54 53 53 53 51 55 55 53 52 52 51 51 49 48
18 15 15 16 14 15 14 10 11 15 18 22 28 32 36 44 45 47 49 51 53 56 57 57 56 56 57 56 56 56 55 56 54 55 57 53 51 51 50 50 52 54 54 54 54 54 53 52 52
20 19 17 16 16 18 16 14 14 15 18 20 24 27 32 40 44 47 48 50 52 54 55 57 56 56 56 56 55 56 56 55 53 54 56 56 54 53 51 52 54 55 53 55 56 56 55 52 54
18 19 18 16 16 15 15 9 15 15 17 20 23 27 29 37 44 46 48 48 51 54 56 56 56 56 55 56 54 54 53 54 53 52 54 54 56 54 54 55 55 55 54 54 56 56 56 54 52
22 20 18 17 17 17 16 12 13 16 13 15 16 21 32 35 43 45 47 47 49 53 55 56 56 56 56 56 54 54 53 52 53 51 52 54 54 56 53 56 56 54 56 56 56 56 56 56 51
20 20 19 19 19 16 17 16 14 15 15 16 16 19 29 35 41 45 46 47 46 52 54 55 56 56 56 56 56 54 53 51 51 54 51 53 55 55 55 56 56 56 57 57 56 55 54 54 54
17 18 17 17 16 16 18 16 16 15 16 17 20 20 28 34 41 44 45 46 45 48 52 54 55 55 56 56 55 55 54 51 50 53 54 52 54 55 54 56 54 53 53 53 55 55 55 54 54
19 19 18 17 18 17 19 17 19 20 19 22 23 25 25 32 41 44 44 46 45 47 50 52 52 53 55 56 55 55 54 52 51 51 53 54 54 53 53 54 54 53 53 54 53 54 53 54 55
19 17 19 18 25 22 19 20 22 23 20 19 20 25 28 31 39 43 44 46 46 46 49 51 51 51 53 55 55 55 55 54 54 53 54 54 53 52 52 52 53 53 53 53 52 51 52 53 55
25 22 18 17 21 21 21 20 19 19 19 18 22 26 30 33 37 42 44 46 47 47 47 50 51 50 50 54 55 55 54 54 53 53 53 54 54 53 52 53 53 52 52 52 52 50 52 53 54
22 21 21 20 20 19 19 22 23 22 23 21 24 26 30 36 37 41 43 46 47 48 47 49 50 49 49 51 53 54 54 54 54 53 53 53 54 54 53 54 53 53 52 52 52 51 52 52 53
25 22 23 21 21 21 22 26 23 24 25 25 24 25 27 28 38 40 43 45 48 48 48 48 49 49 49 50 51 53 54 54 54 54 53 53 53 54 53 53 53 52 52 52 51 51 51 51 52

GFSSGP_sfc_30mbdewp_072.txt.gz
Dewpoint
46 38 32 33 24 21 15 12 11 12 11 18 21 22 24 25 21 35 58 61 62 66 67 68 71 71 70 70 70 70 70 70 69 69 69 69 68 68 68 68 68 67 66 66 65 65 65 65 66
37 30 33 28 23 17 11 11 12 12 14 18 18 21 24 25 40 47 56 62 63 63 67 67 69 70 70 70 69 70 70 69 69 69 69 68 68 68 68 67 66 66 66 65 64 64 64 65 65
41 36 28 26 22 16 14 12 13 13 16 16 15 20 27 28 44 48 58 62 64 62 63 66 68 69 71 70 69 69 69 69 69 69 69 68 69 68 67 66 65 65 65 64 64 64 64 64 63
33 29 25 19 14 13 11 15 16 16 15 19 20 21 27 46 44 51 58 62 64 63 63 67 67 69 70 70 69 68 69 69 68 69 69 69 68 68 67 66 64 64 64 63 63 63 63 62 60
28 23 19 17 15 13 13 16 16 17 16 20 22 24 30 51 54 55 57 60 62 64 65 67 67 68 69 69 68 67 67 68 68 69 68 68 67 66 66 65 64 63 63 63 63 62 62 60 57
23 21 16 13 12 11 12 17 16 17 17 18 19 25 34 52 51 57 58 60 63 64 67 67 66 67 66 66 66 66 63 64 67 68 68 67 66 65 65 64 64 64 64 63 63 62 61 59 58
23 18 16 15 13 10 9 18 18 18 16 17 27 28 29 46 52 56 55 59 63 65 67 66 66 65 65 65 63 60 60 61 65 67 67 66 65 65 65 64 64 64 64 63 62 62 61 59 56
22 19 16 14 12 9 10 18 19 18 17 24 25 21 31 51 54 56 56 58 60 64 66 67 66 66 64 62 61 59 59 61 61 66 66 65 65 65 64 64 63 63 63 62 61 61 60 58 56
21 17 16 14 12 9 11 16 17 17 17 20 20 28 37 51 52 53 54 58 59 61 63 65 65 65 64 62 61 60 61 60 63 66 65 65 64 64 63 63 63 63 62 62 61 61 59 56 54
18 18 16 14 10 10 11 11 16 17 18 19 19 28 45 47 48 49 50 52 55 57 63 64 65 64 63 63 62 62 63 59 64 65 64 63 63 64 63 63 62 62 62 61 61 60 56 53 53
18 17 16 13 11 12 11 11 14 15 15 20 22 30 36 46 46 49 50 51 54 56 60 62 63 63 63 62 63 64 62 60 61 63 62 63 63 63 62 61 61 61 61 59 59 56 51 49 51
14 14 15 15 13 12 11 13 14 14 18 20 21 32 37 41 47 47 49 49 53 56 58 61 63 63 63 64 63 64 64 64 64 63 63 63 62 63 62 56 58 56 55 54 53 52 50 47 49
15 12 12 12 13 12 12 12 14 15 17 19 19 40 43 42 47 47 47 54 53 56 59 61 61 63 63 63 64 64 64 63 63 62 61 61 61 60 60 55 54 53 54 52 51 52 50 49 47
16 12 10 12 12 13 11 12 13 15 17 18 20 35 43 44 47 46 48 53 55 57 59 59 59 60 62 62 63 63 62 62 61 61 60 60 60 59 59 55 53 54 53 53 51 53 51 49 49
16 14 15 13 13 14 13 12 12 12 16 17 17 28 40 44 46 47 47 54 55 58 59 58 58 59 60 61 62 62 61 60 60 59 58 59 59 58 58 57 53 54 54 53 52 51 51 49 48
18 16 14 14 13 13 14 12 13 15 17 16 23 29 39 43 45 47 48 54 56 57 58 58 58 59 59 60 60 60 61 60 59 59 59 58 59 59 58 56 55 54 54 54 54 51 50 49 48
18 15 13 13 13 13 14 13 16 17 22 22 25 32 37 42 45 46 49 52 55 57 59 58 58 58 58 59 59 60 59 59 59 58 58 59 59 58 57 57 57 57 54 55 52 51 49 48 48
19 15 14 15 15 15 15 13 15 21 25 25 25 27 36 42 44 47 48 51 55 57 58 58 58 59 58 59 59 58 58 58 58 58 59 57 57 56 56 57 54 56 54 53 52 50 50 48 47
21 17 15 14 16 16 16 15 15 16 18 24 26 29 34 42 44 46 49 52 55 58 58 58 57 58 58 58 57 57 56 57 56 57 57 58 58 55 56 56 57 54 53 52 53 53 51 51 50
21 21 19 17 17 16 16 15 16 14 16 19 25 28 31 41 43 47 49 52 54 55 57 57 56 57 57 58 57 57 57 56 55 55 57 57 57 55 54 55 55 55 54 52 53 52 53 52 51
21 21 20 17 17 18 15 15 17 16 14 14 19 24 29 40 43 46 48 50 54 54 56 56 57 57 57 57 57 56 56 56 55 54 55 56 55 55 54 54 54 55 55 54 54 54 53 52 53
19 22 22 19 19 17 17 14 16 16 16 15 18 23 24 32 44 46 48 50 52 54 55 57 56 56 57 57 56 55 54 53 52 50 52 56 55 54 53 54 54 55 55 56 56 57 55 55 51
21 27 28 22 19 19 16 16 16 15 16 16 19 22 27 28 43 45 47 49 51 54 54 57 56 56 56 56 55 55 54 53 52 49 49 55 55 54 54 54 56 56 55 57 57 56 56 54 53
26 26 32 26 21 18 18 18 17 17 17 16 18 17 27 31 43 44 47 48 50 54 54 56 56 56 55 56 55 55 54 53 52 51 50 54 54 56 55 56 57 57 57 56 55 56 55 55 53
27 32 29 24 19 19 19 18 19 19 17 17 17 18 26 33 40 44 46 47 48 53 54 56 56 55 56 56 55 55 55 54 54 51 50 52 53 54 55 55 56 55 56 58 57 57 55 54 53
25 30 23 21 19 19 19 17 18 19 17 19 21 20 26 31 39 43 46 46 46 53 54 54 55 55 56 56 56 55 55 53 54 53 51 50 52 54 55 56 55 55 55 55 55 54 55 55 55
30 24 25 23 26 27 22 18 24 21 19 19 19 22 24 28 38 43 45 46 46 49 53 54 55 55 56 56 56 56 55 55 53 53 54 52 52 53 54 55 55 54 52 53 53 54 54 53 54
33 31 27 22 22 26 25 22 20 22 20 18 19 25 28 29 36 42 44 46 47 48 51 54 53 53 55 55 56 56 55 55 53 52 53 55 54 54 54 54 55 54 53 52 52 52 52 53 53
30 25 27 24 20 24 25 25 34 27 21 20 25 27 30 34 35 41 44 46 47 48 50 52 53 51 54 55 55 55 55 55 55 54 53 53 55 55 53 53 53 53 52 52 52 52 52 52 51
30 28 26 25 24 21 24 25 31 26 24 25 24 25 28 30 37 41 43 46 47 48 48 51 52 52 51 54 55 55 55 55 55 55 54 55 54 55 54 53 53 52 52 52 52 52 51 51 50

GFSSGP_sfc_30mbdewp_075.txt.gz
Dewpoint
49 45 38 32 29 25 21 18 19 13 19 21 21 25 25 25 28 39 61 62 68 68 70 71 70 70 70 70 70 70 70 70 70 70 69 68 68 68 67 68 68 68 67 66 64 64 64 66 67
43 37 32 31 25 22 22 21 17 16 18 17 16 18 23 36 55 60 60 62 66 67 68 70 71 70 70 70 70 70 70 70 70 69 69 68 68 68 69 68 68 67 67 65 64 64 65 66 66
43 38 32 28 26 21 21 18 14 16 17 16 15 18 24 42 49 58 62 64 64 67 67 69 70 71 70 70 69 70 69 69 69 69 68 68 68 69 68 67 67 67 66 64 64 64 65 66 66
34 34 30 23 22 23 22 20 17 17 17 18 20 22 43 47 49 58 63 64 64 63 66 68 69 71 70 70 69 69 69 69 69 69 68 69 68 68 67 66 67 66 65 65 64 64 64 63 63
31 28 23 21 20 19 19 17 18 17 18 22 24 24 39 54 57 59 61 64 63 64 67 67 67 70 70 70 69 69 68 67 69 68 68 69 68 67 66 66 66 65 65 64 64 64 62 61 61
25 25 19 17 18 19 17 17 18 19 18 18 18 22 45 54 55 59 60 62 64 65 67 67 67 69 69 69 68 67 64 62 60 62 67 68 68 66 65 65 65 65 64 63 64 63 60 60 58
25 24 19 18 17 17 16 18 17 18 17 19 26 26 49 52 57 57 59 62 63 64 67 66 67 67 67 67 66 64 64 63 62 60 66 66 66 66 65 65 65 65 64 63 63 62 61 57 56
26 25 22 20 18 16 16 18 20 19 17 26 26 23 46 52 56 56 57 59 63 64 65 67 66 65 65 63 63 63 62 61 61 59 63 66 65 65 65 65 64 64 64 63 62 61 59 56 53
27 23 20 19 17 17 17 17 18 19 16 20 21 23 44 54 56 56 57 58 60 64 64 64 66 64 63 61 61 62 61 61 61 61 58 65 64 64 64 64 64 63 63 63 62 60 57 55 55
25 20 19 19 18 17 14 13 17 18 17 19 23 50 53 53 52 52 54 56 58 59 61 64 64 65 63 61 61 61 60 61 62 61 60 65 63 62 63 63 63 63 62 62 61 58 55 53 52
25 20 19 19 20 19 17 13 13 15 17 20 27 44 48 48 48 49 50 53 54 58 61 61 62 63 64 62 61 62 60 61 61 60 61 64 63 63 63 62 62 62 61 59 58 55 53 51 51
24 22 21 19 19 17 16 14 13 14 16 21 20 29 47 47 47 49 50 51 54 57 58 61 62 62 63 64 62 62 60 61 61 63 64 64 62 62 61 60 60 60 58 57 55 51 50 50 50
24 22 19 17 16 16 15 13 13 13 16 17 20 38 39 45 47 48 53 53 55 57 60 59 60 63 63 63 63 63 61 61 60 63 64 63 62 60 58 58 57 56 56 54 51 51 47 48 49
24 23 20 19 15 13 12 13 15 14 17 17 17 39 43 43 47 48 53 53 55 59 59 58 57 60 63 62 63 64 63 63 61 62 62 63 62 58 56 55 53 54 53 50 51 52 47 47 48
24 22 21 19 17 14 12 13 14 15 15 15 17 28 44 44 47 47 51 53 57 59 58 57 58 59 61 61 62 63 63 62 61 62 61 61 60 58 56 53 53 54 53 49 51 52 50 49 51
26 22 18 19 18 17 16 13 15 15 14 13 14 20 42 45 47 47 53 55 57 59 57 57 58 59 60 61 62 61 62 61 61 60 60 59 58 59 56 52 53 54 53 51 52 52 50 49 48
24 20 20 18 18 16 15 12 14 16 15 18 21 26 39 45 47 48 54 55 57 59 57 57 57 58 59 60 61 61 61 60 60 59 59 58 58 58 58 55 54 56 53 54 53 51 50 47 47
23 22 20 17 17 16 14 13 14 18 19 21 24 26 38 43 45 49 53 55 58 59 58 57 57 58 59 59 60 59 59 59 59 58 58 58 57 57 56 58 57 57 54 56 52 51 50 49 48
26 24 23 21 18 18 18 15 15 16 17 24 25 25 33 42 46 50 54 55 58 58 58 57 58 58 58 57 57 57 56 58 58 58 57 58 57 57 57 58 57 58 56 55 52 51 49 49 48
25 23 21 22 23 22 21 24 17 17 18 19 25 26 30 43 47 49 54 55 57 57 57 57 57 57 58 57 57 57 57 57 58 57 57 56 56 56 56 56 56 58 56 56 54 51 52 50 50
23 22 21 21 22 24 20 18 15 17 18 19 24 27 30 43 47 49 53 54 55 57 57 57 56 57 58 57 57 57 57 56 56 56 55 55 55 56 55 56 56 57 57 55 53 52 50 50 51
24 26 24 22 23 27 29 19 18 17 18 19 18 26 30 43 47 49 51 53 53 54 56 56 56 57 57 57 56 56 55 54 54 55 55 54 57 56 55 55 55 55 54 53 54 54 52 52 50
25 30 30 31 32 32 29 21 19 19 18 19 18 24 30 43 47 48 50 53 53 53 56 56 57 57 56 57 56 56 55 55 54 53 53 55 55 56 54 54 54 55 55 54 55 55 54 54 53
34 33 30 34 33 29 30 25 18 18 19 20 19 23 26 43 46 48 50 52 53 55 55 56 56 56 56 57 56 55 54 54 53 52 52 53 54 56 54 55 54 54 55 56 56 56 55 55 53
32 32 29 28 28 27 26 23 20 21 21 21 21 23 28 44 45 47 49 51 52 53 54 56 55 55 56 56 56 55 54 53 52 50 49 51 53 55 55 55 56 56 55 56 57 56 56 56 54
30 35 30 24 25 22 23 19 19 22 22 20 19 25 33 43 45 47 48 50 53 53 53 54 55 55 55 56 55 55 54 54 52 50 48 49 52 54 56 55 57 56 56 57 57 57 56 56 55
33 33 34 32 29 30 30 20 21 22 22 22 22 24 32 42 44 47 47 48 52 53 53 54 54 53 56 55 56 55 55 54 54 52 49 49 52 53 54 56 55 56 55 55 56 56 55 55 55
35 35 30 32 25 25 26 28 19 20 20 20 20 23 28 38 43 46 47 47 52 53 54 55 55 54 55 56 56 55 55 55 54 54 51 50 50 52 54 55 55 55 55 54 54 53 54 54 54
35 34 36 34 33 26 28 30 36 30 27 24 28 30 33 37 43 46 46 47 49 53 54 54 55 55 55 55 56 56 55 55 55 54 54 53 51 51 53 54 55 55 54 53 52 52 52 52 52
33 37 36 31 29 29 26 29 38 32 28 26 29 28 30 36 41 45 46 47 47 50 53 54 54 55 55 55 55 55 55 56 55 54 53 54 54 53 53 54 53 55 54 53 52 51 50 51 51

GFSSGP_sfc_30mbdewp_078.txt.gz
Dewpoint
53 47 35 33 28 25 22 20 20 18 19 21 24 24 27 33 25 26 60 65 68 69 70 70 70 70 70 70 70 70 70 70 70 69 69 68 68 68 67 67 67 67 67 66 65 66 66 66 67
44 39 32 31 25 19 17 23 19 21 20 18 18 21 28 49 57 59 60 66 67 68 70 70 70 70 70 70 70 70 70 70 69 69 68 68 68 68 69 68 67 67 67 65 64 64 65 67 66
41 38 33 29 26 18 15 22 21 17 18 15 15 19 31 48 58 60 61 66 68 68 70 70 70 70 70 70 70 70 70 70 69 68 68 68 68 69 69 68 68 67 66 63 63 65 66 66 66
32 34 33 25 23 26 22 23 23 17 18 17 19 32 46 49 58 59 63 65 67 67 68 70 70 70 70 70 70 70 70 69 68 68 68 68 69 69 68 68 67 67 66 65 65 66 66 66 65
30 28 26 22 21 22 23 21 19 19 18 19 22 23 44 56 58 63 63 64 64 66 67 69 70 70 70 70 70 70 69 69 68 68 68 69 69 68 68 67 67 66 65 65 66 66 65 64 61
24 25 21 20 20 21 20 20 18 18 19 21 22 30 50 57 60 62 64 63 65 66 67 67 69 70 70 69 69 67 64 64 62 60 59 66 67 67 67 67 66 66 65 65 65 64 62 60 59
24 23 20 19 18 18 18 20 18 19 18 18 24 36 51 54 59 60 62 63 65 66 66 66 68 70 70 69 68 64 63 63 63 62 61 62 65 65 67 67 66 65 65 65 64 62 60 58 59
26 25 23 22 21 21 21 18 19 19 17 26 26 39 48 52 58 59 61 62 63 66 66 66 67 66 67 67 66 63 65 64 63 62 61 61 65 65 65 66 65 64 64 64 63 61 59 58 58
28 25 22 23 22 22 22 19 17 20 18 26 25 39 42 55 56 57 58 61 63 63 64 66 65 65 64 64 64 64 64 63 62 62 59 64 64 64 64 65 65 64 63 63 62 60 58 58 59
31 24 24 25 23 21 21 19 17 16 18 18 39 52 54 55 55 55 56 56 60 62 62 63 65 64 63 62 63 63 63 62 61 61 60 64 64 63 64 64 64 64 63 63 61 58 57 55 56
29 27 25 23 21 20 20 20 21 16 15 19 28 51 53 54 54 54 55 57 57 59 60 63 64 63 62 62 61 61 61 61 61 61 59 63 63 64 64 63 63 62 62 61 59 56 52 51 52
29 28 26 25 23 21 19 19 18 16 15 20 33 49 53 52 51 52 52 55 57 58 60 61 61 63 62 61 60 60 60 61 61 60 59 61 63 63 62 61 61 60 59 58 55 52 51 51 52
27 28 27 27 24 22 20 19 18 17 16 17 26 48 50 48 48 50 51 54 57 57 60 60 62 62 63 61 61 61 59 60 61 60 60 59 62 61 60 59 60 58 57 55 52 51 50 50 52
25 25 25 25 23 21 18 17 16 15 17 16 28 42 47 47 48 51 52 54 56 58 59 58 59 62 63 62 61 61 59 60 60 63 61 60 61 60 59 58 57 56 54 52 50 50 48 49 52
28 25 24 24 23 21 19 16 16 15 16 16 16 31 41 46 49 51 52 54 57 58 58 57 56 59 61 62 63 62 60 61 62 63 63 62 60 58 58 56 54 54 52 50 51 50 48 47 52
26 26 23 24 22 21 19 16 18 18 16 15 15 15 38 43 48 50 52 55 58 58 57 57 58 58 60 61 62 63 62 61 62 62 62 61 58 57 54 52 53 52 50 49 51 51 48 47 51
26 23 23 22 22 21 19 17 17 17 16 15 15 15 32 43 48 49 53 57 58 57 56 56 57 57 59 60 61 61 62 61 62 62 61 61 57 55 51 50 52 51 48 50 52 52 49 47 49
23 23 23 22 22 20 22 18 17 17 17 16 16 22 35 44 46 51 55 58 58 57 56 56 57 57 58 60 60 61 61 61 61 61 60 60 58 55 52 53 55 52 49 51 53 52 50 49 48
27 26 25 25 25 25 25 23 22 23 24 16 17 22 38 44 47 53 55 58 57 56 56 56 57 58 58 58 58 58 58 59 59 59 58 58 58 57 54 53 57 54 53 53 53 51 49 48 48
24 25 24 25 25 23 22 21 24 25 24 21 20 24 34 44 48 53 55 57 56 56 56 56 56 57 56 57 57 57 58 58 58 58 57 57 57 56 56 54 57 57 55 55 52 50 50 49 48
25 23 24 23 27 26 23 23 26 27 26 18 21 25 30 44 48 53 54 55 56 56 56 56 56 57 57 57 57 57 57 57 57 57 57 57 57 56 56 57 57 58 56 54 53 51 50 48 49
31 23 24 27 28 26 29 23 26 27 27 22 19 22 29 45 48 52 53 55 55 56 57 57 56 57 57 57 56 56 55 54 56 56 57 56 56 56 56 56 57 57 56 55 54 54 51 50 48
32 25 27 31 30 32 27 26 25 27 24 21 21 21 31 45 48 52 53 54 55 56 56 56 56 57 57 57 56 55 55 54 55 56 55 55 56 57 56 56 56 56 55 54 55 55 53 52 51
31 29 29 31 31 25 25 28 25 25 23 22 22 22 30 45 47 51 53 53 54 55 55 56 55 56 57 56 56 55 54 54 54 54 54 54 55 56 56 56 56 56 55 53 54 56 54 52 52
33 31 26 24 25 23 24 27 25 27 25 23 22 21 30 45 47 50 52 52 52 54 55 55 56 55 56 57 56 56 55 55 53 53 53 53 53 55 55 55 55 55 56 55 55 55 54 54 52
33 34 30 21 23 24 26 24 23 25 26 25 23 24 38 46 47 49 51 52 53 54 55 55 55 55 56 57 56 55 55 54 54 53 52 52 53 54 55 55 55 54 55 56 56 56 55 55 54
35 32 35 31 34 29 30 28 23 23 22 23 23 33 43 45 47 49 50 51 53 53 54 55 54 54 55 56 56 55 55 54 53 52 52 51 53 54 56 55 55 55 55 55 56 56 55 56 55
35 39 31 31 24 24 26 26 24 31 31 24 22 33 43 45 46 48 50 51 52 53 54 53 53 54 55 56 56 55 55 54 53 52 50 50 51 53 54 55 55 56 55 55 56 55 56 55 55
35 34 36 34 32 28 27 30 35 38 38 31 26 30 41 44 46 47 49 51 53 53 53 54 53 53 54 55 56 55 55 55 54 53 51 49 49 52 53 54 55 55 56 55 55 55 54 54 54
38 35 36 29 29 31 30 29 43 43 40 32 30 33 34 43 46 47 48 51 52 53 54 54 54 54 54 55 55 55 55 55 55 54 54 52 49 50 52 53 54 54 54 54 54 54 53 53 53

GFSSGP_sfc_30mbdewp_081.txt.gz
Dewpoint
55 44 33 33 27 25 22 19 20 18 19 20 24 25 24 26 23 20 56 63 67 68 70 70 70 70 70 70 70 70 70 70 70 70 70 69 69 68 68 69 69 68 67 67 67 67 67 66 68
45 37 33 31 26 17 13 23 22 20 20 20 24 38 37 34 55 57 60 66 68 69 69 70 70 70 70 70 70 70 70 70 70 69 69 69 68 68 68 68 68 68 68 67 66 66 66 67 67
40 37 31 28 26 13 7 22 22 23 19 18 16 24 39 43 57 59 61 67 67 69 69 69 70 70 70 70 70 70 70 69 69 69 68 68 68 68 68 68 68 67 67 67 66 66 66 67 66
33 33 31 27 20 25 20 21 25 22 20 18 17 31 45 53 57 60 63 67 67 68 69 69 70 70 70 70 70 70 70 69 69 68 68 68 68 68 68 67 67 67 66 64 66 66 66 66 65
29 30 27 26 23 23 25 25 22 21 21 20 20 28 40 54 59 62 64 67 66 67 69 69 69 70 69 70 70 70 69 69 68 66 67 68 68 68 68 67 67 66 63 65 66 66 66 65 64
21 26 23 22 21 21 21 22 20 19 19 20 23 35 47 57 60 63 64 65 66 66 68 69 69 69 69 70 70 68 66 65 64 64 65 65 65 66 66 67 67 66 65 66 66 65 64 63 63
19 23 21 21 19 18 19 21 20 19 19 20 28 37 50 57 60 63 63 64 65 66 67 68 69 69 69 69 68 67 64 63 62 61 61 64 63 64 64 66 66 66 66 65 65 64 61 63 62
25 24 22 20 19 15 20 21 20 19 18 24 39 37 45 55 60 62 63 64 65 66 66 66 68 69 69 68 65 65 63 63 63 63 61 59 61 63 65 63 65 66 65 64 63 61 61 62 61
27 22 19 20 20 18 22 21 21 20 19 19 29 46 45 54 59 60 61 61 64 65 65 65 66 67 67 66 65 64 64 63 63 63 62 60 61 62 64 63 64 65 65 63 62 60 61 61 60
30 24 21 23 20 20 23 22 22 20 20 20 25 47 55 56 57 57 58 59 61 63 64 65 65 64 64 65 65 64 64 64 63 62 61 61 62 63 63 63 64 64 64 63 61 59 61 59 58
31 23 23 24 24 25 24 21 21 20 19 19 19 29 54 55 55 56 56 58 60 61 62 64 64 63 62 63 63 63 63 62 62 61 61 62 63 63 63 62 63 63 63 61 58 59 57 57 56
30 29 27 26 27 26 24 24 22 20 19 21 20 32 54 54 54 54 55 56 57 60 61 62 63 63 62 61 61 62 61 62 61 60 61 63 62 62 63 63 62 62 61 59 56 53 53 54 54
27 30 29 28 28 26 25 23 22 22 21 20 19 38 51 53 53 54 54 56 57 58 59 61 61 62 61 61 60 60 60 61 61 60 60 62 61 61 63 61 61 60 59 57 53 51 51 52 53
22 24 25 25 26 26 25 24 22 22 20 19 18 23 50 52 51 51 52 53 56 58 59 60 61 61 62 61 60 59 60 59 59 59 59 62 61 62 61 60 59 58 57 55 52 51 51 52 53
28 27 27 26 25 24 24 22 20 21 19 18 16 23 41 50 50 50 51 53 56 58 58 59 59 61 62 61 60 60 59 60 60 59 60 59 62 62 60 59 58 57 55 52 51 49 50 52 52
26 26 24 24 25 24 23 21 22 22 19 18 17 17 36 46 48 49 52 54 57 57 57 57 57 59 61 62 61 61 59 60 60 61 61 60 62 61 60 58 56 55 52 51 50 49 48 52 52
25 21 23 24 24 23 20 19 21 20 19 18 17 17 18 36 46 50 52 55 57 57 56 56 56 57 59 61 62 62 60 60 60 63 62 60 60 59 58 55 54 53 51 50 50 49 48 51 52
22 24 24 23 23 24 24 24 26 25 24 23 21 19 17 30 39 48 52 56 57 56 56 56 56 57 59 59 61 61 61 60 61 62 61 60 59 57 54 53 52 51 48 50 51 49 49 51 52
24 24 24 26 26 25 24 24 24 26 24 25 25 24 20 25 41 51 55 57 56 56 55 55 55 56 58 58 58 59 59 60 61 62 61 59 57 54 51 52 51 50 47 50 51 51 48 49 50
18 21 22 24 25 25 24 24 25 25 25 25 26 25 21 37 49 53 56 56 56 55 55 55 55 56 56 58 58 58 59 59 60 60 60 60 57 52 51 53 50 51 49 52 52 50 48 49 49
24 28 24 23 25 25 25 23 22 23 26 28 29 25 22 37 48 53 55 55 55 55 55 55 56 56 57 58 57 57 58 58 58 58 59 59 58 56 51 53 52 53 52 52 52 51 48 47 48
29 31 29 23 26 23 31 22 27 28 27 27 28 25 26 41 48 52 54 55 55 55 55 55 56 56 57 57 57 56 56 55 56 57 58 58 58 57 56 55 57 54 53 54 53 52 50 49 47
29 34 30 29 28 28 27 27 26 26 25 26 27 25 24 37 47 51 54 54 54 55 55 55 55 56 56 56 56 56 55 55 57 57 56 57 57 58 57 57 57 57 55 55 54 53 51 50 49
34 31 29 29 29 24 26 26 24 24 25 25 26 25 23 35 46 51 54 54 54 54 55 55 55 55 57 56 55 55 55 55 56 56 56 56 56 57 57 57 57 57 56 56 55 55 53 52 50
33 30 24 23 23 21 24 24 23 24 27 27 27 25 25 36 47 51 53 53 53 53 54 55 55 55 57 56 56 54 54 54 55 55 55 55 55 56 57 57 57 56 56 55 55 55 55 54 52
32 31 26 20 21 24 23 21 22 27 28 28 29 28 26 33 47 51 52 53 53 53 54 55 55 55 57 56 56 55 54 53 54 54 55 55 55 55 56 55 56 56 56 54 54 54 55 55 54
33 31 34 30 31 29 28 30 29 40 28 35 35 34 28 36 47 50 52 52 53 53 53 54 54 55 56 57 55 55 55 55 54 54 54 54 54 54 55 55 55 55 56 55 54 54 54 55 55
33 38 31 31 22 21 25 27 33 40 39 37 33 32 31 45 47 50 51 52 52 53 54 54 55 55 55 56 56 56 55 55 54 54 53 52 53 53 55 55 55 55 55 55 56 55 55 54 54
34 31 33 34 32 26 26 31 39 40 41 40 38 38 39 45 47 49 50 52 52 53 54 54 54 54 54 56 56 55 55 55 54 53 52 51 51 52 54 55 55 55 55 55 55 55 54 54 53
35 33 35 29 29 31 29 26 42 39 40 41 39 42 41 46 47 49 50 52 52 53 53 53 53 53 54 55 56 56 56 55 54 53 52 50 50 51 53 54 55 55 55 55 54 54 54 54 54

GFSSGP_sfc_30mbdewp_084.txt.gz
Dewpoint
56 42 33 33 24 25 20 17 21 18 18 19 23 24 23 23 23 17 51 63 65 67 69 70 69 69 69 69 70 71 71 71 71 71 70 70 70 69 70 70 69 69 67 66 68 68 67 68 68
48 35 33 30 20 11 10 22 21 21 22 21 26 36 32 25 52 53 56 64 66 67 69 70 69 69 68 70 69 70 70 71 71 70 70 70 69 69 69 69 68 68 68 68 68 67 67 68 68
40 36 29 28 25 5 3 16 22 23 22 19 16 28 33 33 56 56 60 65 67 68 69 69 70 69 68 70 69 70 70 69 70 70 70 69 69 69 69 69 68 68 68 68 66 67 67 68 67
35 32 30 25 18 22 16 18 24 23 20 19 18 19 43 51 56 59 62 67 67 68 69 69 70 69 68 69 70 69 70 70 69 69 69 69 69 69 69 68 68 67 67 67 67 67 67 67 66
29 30 23 26 21 23 25 25 24 21 22 21 22 20 37 51 59 61 65 67 66 68 68 68 69 69 68 68 70 70 69 69 69 69 67 67 66 66 68 66 66 66 66 67 67 67 66 66 65
23 27 22 20 20 20 22 23 21 19 20 19 21 22 37 56 59 62 65 66 66 67 67 67 69 69 68 68 69 69 69 69 68 66 65 65 66 65 65 65 65 65 65 67 67 66 66 65 64
15 22 19 21 20 19 19 20 19 19 19 19 29 29 43 53 60 63 64 66 66 66 67 67 68 69 68 68 68 68 67 66 65 65 65 65 65 64 64 65 64 64 65 66 66 65 65 64 63
23 21 19 20 18 15 17 20 20 19 19 21 38 34 32 51 61 63 63 64 64 65 66 66 68 68 69 69 67 65 64 64 64 64 64 62 61 63 64 65 64 64 65 66 65 63 64 63 62
27 19 17 17 17 15 22 21 22 21 21 21 23 30 42 53 61 62 62 63 64 64 65 66 66 67 68 67 66 64 63 63 63 63 62 61 61 61 62 64 64 62 64 65 63 64 63 62 61
27 22 18 21 19 16 19 22 22 22 21 21 22 31 51 56 59 60 60 60 62 63 64 65 66 66 66 66 66 64 63 63 62 62 62 61 62 61 60 63 63 63 63 63 62 63 62 60 59
30 22 22 23 22 22 21 23 23 21 21 22 21 22 46 53 58 58 59 60 60 63 64 64 64 64 64 64 64 64 64 63 63 62 62 61 61 62 62 62 62 62 63 60 60 62 59 58 58
27 30 27 24 24 25 23 24 24 23 23 24 23 23 36 49 55 57 57 57 59 61 63 63 64 62 63 63 63 63 63 63 62 62 61 61 61 62 62 62 62 61 61 58 59 59 57 57 55
25 30 30 29 28 28 27 26 26 25 24 24 24 22 27 41 52 56 56 56 58 59 60 62 63 63 62 61 62 62 62 63 62 61 61 61 61 61 61 62 62 62 59 56 55 55 55 54 54
19 22 23 25 25 26 26 26 26 26 25 24 22 20 24 36 47 54 54 54 56 58 60 61 62 62 62 61 61 61 61 61 61 60 60 61 61 62 61 62 61 60 59 55 53 53 54 53 54
23 24 27 27 26 25 25 23 23 25 24 23 22 20 19 31 47 52 53 53 54 57 58 59 60 61 61 61 61 60 60 60 60 60 60 61 61 61 62 61 60 59 58 54 51 52 53 53 53
22 23 21 24 25 25 24 17 22 24 23 23 21 20 19 24 40 50 52 52 55 57 58 59 59 60 60 61 60 60 60 59 59 60 59 61 61 61 61 60 59 58 56 52 51 51 52 52 53
22 18 21 22 25 24 23 21 23 22 21 20 20 20 20 20 35 47 50 51 55 57 57 57 58 59 61 61 61 61 59 59 59 60 60 60 61 62 61 60 58 55 54 52 50 50 52 52 52
16 19 24 24 24 26 25 25 25 26 26 26 26 25 24 22 23 30 48 54 56 56 56 57 56 57 59 61 62 61 60 59 59 60 61 60 60 62 60 58 56 56 53 52 50 49 52 52 52
20 21 20 20 23 23 20 22 24 26 25 25 25 25 25 26 24 32 51 55 55 55 56 56 55 56 58 58 59 60 59 59 59 60 61 61 60 61 59 55 54 54 53 51 50 49 51 51 52
18 18 18 21 22 23 24 24 25 26 26 26 25 25 26 26 36 47 53 55 55 55 55 55 55 56 57 57 58 59 59 60 60 60 60 59 58 57 55 54 53 51 51 51 50 48 50 50 52
23 23 24 26 30 26 25 22 21 22 24 24 26 27 28 27 31 50 53 54 55 54 54 54 54 55 56 58 57 58 59 59 59 60 59 58 57 55 54 52 51 49 50 50 50 49 48 50 50
26 31 31 29 27 23 29 22 21 24 26 29 29 28 28 27 34 51 54 54 55 55 55 54 54 54 55 57 57 56 56 56 57 58 59 57 56 54 54 52 50 49 49 50 51 50 48 50 49
30 33 31 31 29 27 26 24 22 24 23 26 28 28 28 27 37 49 53 54 55 55 54 54 54 54 57 57 57 57 56 56 57 58 58 58 57 55 55 55 52 52 52 53 53 52 50 50 49
33 30 30 29 27 23 23 23 22 23 24 26 27 27 27 25 42 51 53 54 54 54 53 54 54 54 55 56 56 56 55 56 56 56 56 57 57 57 56 56 55 55 54 55 54 53 52 50 49
31 29 22 21 24 21 22 24 23 25 26 25 27 27 28 27 41 51 53 54 53 53 53 53 54 53 55 55 55 55 55 56 56 56 56 56 56 56 57 56 55 56 56 56 55 54 53 52 50
31 30 22 18 20 23 29 20 22 40 40 40 39 36 32 28 42 46 52 53 53 53 53 53 53 53 54 56 55 54 54 55 56 56 56 56 56 56 57 57 57 56 57 57 55 55 54 54 52
32 30 33 29 28 26 27 28 34 40 40 41 41 40 40 37 38 47 52 53 52 52 53 53 53 53 54 55 55 54 54 53 54 55 55 56 57 57 57 57 57 57 57 55 56 55 54 55 54
32 37 30 30 21 20 23 27 31 37 38 40 41 41 44 43 36 49 52 53 53 53 53 53 54 54 54 56 55 55 55 54 54 54 54 54 55 55 56 56 56 56 56 56 54 54 55 54 55
33 32 33 32 31 24 22 25 39 38 38 38 41 44 46 42 46 50 51 52 53 53 53 53 54 54 55 55 55 55 55 55 54 54 53 53 53 54 55 55 56 55 55 55 55 54 54 53 53
34 30 31 28 27 30 29 25 41 41 38 38 40 44 47 47 48 50 51 52 52 52 52 52 54 54 54 56 56 56 55 55 54 54 53 52 52 53 54 55 55 55 55 55 55 55 55 54 54

GFSSGP_sfc_30mbdewp_087.txt.gz
Dewpoint
56 42 34 33 22 24 17 15 21 19 19 20 23 22 23 25 35 23 54 63 66 67 68 68 68 68 70 71 71 71 71 71 71 71 71 71 71 70 70 70 70 69 69 69 69 69 68 68 69
47 34 34 31 16 4 4 22 20 21 23 24 23 34 31 25 44 50 54 64 66 68 68 68 67 68 70 71 71 70 72 71 71 71 71 71 70 70 70 70 69 69 69 69 68 68 68 69 69
38 34 29 27 21 1 1 14 20 22 24 22 17 30 31 32 54 53 57 65 66 67 68 68 67 67 68 70 71 70 70 71 71 71 71 70 70 70 70 70 69 68 68 68 67 68 69 68 68
35 33 30 24 16 19 9 17 24 24 21 20 19 19 35 47 55 58 60 65 66 67 67 68 67 67 68 70 70 69 69 70 71 70 70 70 70 70 67 67 68 68 69 68 67 68 68 68 67
31 29 20 23 21 20 23 23 25 22 21 22 21 20 30 49 58 61 64 65 65 67 68 68 68 67 69 69 70 70 68 69 70 70 70 70 69 67 66 66 65 67 67 67 67 67 68 67 66
23 27 17 12 19 18 22 23 21 19 19 20 21 21 28 55 59 62 66 66 67 67 68 67 68 68 68 68 69 70 69 68 69 70 69 68 67 65 66 65 64 65 67 67 67 67 67 66 66
18 22 12 17 18 17 15 22 20 16 18 19 27 29 37 50 59 64 65 66 67 68 67 66 68 68 68 68 69 69 69 69 69 68 67 66 66 65 65 64 63 64 66 66 66 66 66 65 64
21 20 17 20 15 11 15 20 21 20 18 23 35 29 23 46 61 64 65 66 66 67 67 66 67 68 68 68 68 68 68 68 66 66 65 65 65 65 65 65 64 64 66 66 66 66 65 64 63
26 17 16 15 16 13 21 20 22 22 21 21 23 31 35 54 62 62 63 64 65 66 67 66 67 68 68 68 67 67 67 66 65 65 64 63 64 64 64 64 63 63 65 66 65 65 64 63 62
26 21 18 20 17 14 17 19 20 21 21 21 22 26 40 56 59 60 60 61 63 64 65 66 67 67 68 67 66 66 66 65 64 64 63 64 64 63 63 63 63 63 65 65 64 64 63 61 60
29 22 22 21 21 21 18 19 20 18 19 21 19 24 38 44 53 59 60 60 61 64 64 65 66 67 67 66 66 65 65 64 64 63 62 63 62 62 62 63 63 64 64 64 64 62 61 60 59
25 30 25 21 23 24 22 19 21 22 22 24 26 27 26 34 43 52 59 59 60 62 64 64 65 65 65 65 65 64 63 63 63 63 62 62 62 61 61 62 62 62 63 63 62 61 60 59 58
29 29 29 29 28 27 27 26 26 27 26 27 27 26 26 26 35 46 53 58 59 60 63 64 64 64 64 64 64 64 64 63 63 62 62 62 61 61 61 61 62 62 61 61 61 59 59 58 57
20 22 23 24 24 24 24 24 25 24 28 27 27 26 25 26 29 38 53 56 58 59 61 64 63 64 63 62 63 63 63 64 63 62 62 61 61 61 62 62 61 62 60 60 59 58 58 57 56
21 19 24 26 26 26 26 20 22 25 27 26 26 26 26 25 25 35 41 51 56 58 60 62 63 63 63 62 62 62 62 63 62 61 62 61 61 61 61 61 61 61 59 57 57 57 56 56 55
19 22 17 23 26 26 25 16 21 22 24 24 24 24 25 24 24 30 41 48 53 56 59 61 62 61 62 63 62 61 61 61 61 61 61 62 62 62 61 61 61 60 58 56 55 55 55 55 54
19 10 20 20 25 25 23 19 24 27 27 26 26 25 24 24 25 27 39 47 53 56 58 60 61 60 61 62 61 61 60 60 60 61 60 61 61 61 61 61 61 59 57 55 54 54 54 54 53
7 15 21 19 24 23 20 20 20 24 25 26 27 27 28 28 27 28 30 42 53 56 58 59 60 60 61 61 61 61 60 60 60 60 60 60 61 62 61 60 59 59 57 54 53 53 54 54 53
20 21 20 20 20 18 16 17 20 23 23 24 25 26 27 28 28 29 31 46 54 57 57 58 59 59 60 60 60 59 58 59 59 60 60 60 61 62 61 60 58 58 57 53 53 54 54 53 53
17 15 15 20 21 24 25 25 24 24 23 23 24 26 26 27 28 30 43 51 54 55 57 57 58 58 58 59 60 60 60 60 60 60 60 60 60 62 60 58 58 57 57 54 52 53 53 53 53
19 18 21 22 27 28 26 21 20 22 23 24 24 26 26 26 27 29 45 51 54 55 56 56 56 56 57 57 58 59 59 59 59 59 60 60 60 61 59 58 57 57 56 54 52 53 52 52 53
22 26 26 29 27 19 28 15 17 22 24 25 27 28 27 27 29 31 43 51 53 54 56 56 56 56 56 57 56 56 56 56 57 59 59 58 59 60 57 58 57 55 54 54 53 52 52 53 52
28 33 30 29 28 27 25 24 21 22 21 24 27 28 30 31 31 32 45 51 54 55 54 55 55 55 55 57 57 56 56 57 58 59 57 56 56 56 56 56 53 52 53 54 53 51 52 54 52
33 29 29 30 27 23 23 22 19 21 25 33 37 36 32 31 31 37 50 53 54 54 54 55 55 55 55 56 57 56 56 57 57 57 56 55 55 56 53 53 52 52 52 53 53 53 52 53 53
30 28 22 22 21 17 24 23 21 26 38 40 41 41 40 38 34 48 51 52 54 54 54 55 54 54 55 56 56 56 57 57 57 56 56 55 54 55 56 54 54 54 55 54 54 54 52 52 52
30 28 21 13 19 21 28 22 22 39 40 41 42 43 45 46 44 46 51 53 53 53 53 54 54 53 54 55 55 56 56 57 57 56 57 57 56 55 55 55 54 56 55 55 55 54 53 53 53
32 28 32 28 28 23 22 26 30 38 38 38 40 42 44 46 47 43 50 53 53 53 53 53 53 53 54 54 55 55 55 56 56 57 57 57 57 57 56 55 53 53 52 53 54 55 54 54 54
32 35 29 29 20 19 21 22 23 36 37 38 39 41 44 47 47 42 48 53 53 53 53 53 53 53 54 54 55 54 54 54 56 56 56 57 57 57 57 56 55 55 54 52 52 54 55 52 52
32 31 32 32 30 23 21 20 38 37 35 38 40 42 46 47 49 49 51 52 52 53 53 53 53 52 54 54 54 55 54 54 54 54 55 56 56 57 57 57 57 56 55 53 52 51 54 55 54
34 30 29 26 26 29 28 24 38 31 35 39 42 43 45 46 50 51 51 51 52 52 53 53 53 53 53 54 55 55 56 55 54 54 54 55 55 56 56 57 56 56 56 56 55 52 51 54 54

GFSSGP_sfc_30mbdewp_093.txt.gz
Dewpoint
50 45 32 21 16 11 1 0 0 7 11 15 19 13 15 18 21 27 45 52 52 57 63 68 69 70 70 71 71 71 71 71 71 72 72 72 72 72 72 72 71 71 70 69 69 69 69 68 70
40 35 24 17 13 3 2 1 1 5 11 21 21 20 18 19 25 38 44 55 55 56 63 65 69 70 71 71 71 71 72 72 71 72 71 71 72 71 71 71 71 71 70 69 69 69 69 70 69
44 31 16 12 8 7 -2 0 3 4 17 16 18 20 19 19 27 30 48 55 54 53 60 66 69 70 71 71 71 72 72 72 72 72 71 71 71 71 71 70 70 70 70 69 69 69 70 70 69
35 26 18 10 7 3 4 2 2 5 16 15 14 17 23 30 38 36 50 54 53 53 57 68 68 69 70 71 71 72 72 72 71 71 71 71 71 71 71 69 70 70 70 69 68 69 69 69 68
26 17 10 6 7 6 3 5 7 8 15 15 16 15 19 28 37 46 49 52 52 54 58 67 67 68 70 70 71 70 70 71 71 71 71 70 70 69 68 69 69 69 69 68 68 69 69 68 68
22 18 11 9 8 6 6 4 8 13 16 18 14 13 17 37 41 46 48 53 53 56 60 66 67 68 69 70 70 68 69 70 71 70 71 70 70 67 68 69 68 68 68 67 68 68 68 67 67
23 18 13 11 10 7 5 8 7 8 8 13 14 11 16 31 46 53 52 54 56 60 63 66 66 67 68 69 70 68 68 70 70 70 70 70 69 68 68 68 66 66 68 68 69 68 67 67 66
24 21 17 14 12 9 6 7 8 8 10 7 10 10 12 34 44 54 57 56 60 63 65 66 67 66 67 67 69 69 68 69 70 69 68 67 66 66 66 66 66 66 67 67 68 67 67 66 65
26 21 17 15 12 12 10 8 8 10 9 8 13 13 26 32 38 47 58 60 61 64 65 67 66 66 66 65 67 68 68 68 68 68 68 66 65 65 65 65 65 65 64 63 65 66 66 65 64
25 22 19 16 14 13 12 11 10 11 11 11 11 17 18 21 26 37 46 57 60 62 64 66 67 66 65 63 66 66 66 66 67 66 66 66 64 64 62 64 64 63 64 65 66 65 64 64 63
23 22 21 18 17 18 16 14 14 12 11 12 12 16 16 16 21 31 34 44 54 59 61 66 66 66 66 63 64 64 65 64 65 65 63 62 63 64 64 64 63 63 64 65 65 64 64 62 63
21 21 23 21 20 20 19 19 17 16 16 16 15 15 15 17 20 27 27 33 42 52 58 66 67 66 67 64 64 62 62 65 65 65 65 64 64 65 64 63 62 62 64 64 64 64 62 61 61
19 20 21 23 21 22 20 18 17 18 18 18 19 19 19 19 20 22 23 26 32 43 53 62 67 65 66 67 66 65 65 63 64 65 65 64 64 64 63 61 61 64 64 63 63 63 63 62 60
12 12 14 16 17 19 20 20 21 21 22 21 20 22 23 24 24 23 21 23 27 35 46 61 65 66 65 66 67 66 66 66 65 64 65 65 64 63 62 61 61 62 63 63 63 62 62 62 59
21 19 21 20 19 19 21 20 21 22 21 21 21 22 23 23 24 24 23 21 26 32 37 57 64 66 66 66 67 66 65 65 65 65 65 64 64 63 61 61 62 62 63 63 62 62 62 61 59
16 15 10 9 10 13 18 17 17 15 17 20 19 20 21 22 23 24 24 21 23 29 37 48 60 66 66 65 66 65 65 65 65 65 65 65 64 63 62 62 62 63 63 63 62 61 60 59 58
14 8 6 5 7 13 14 13 13 16 18 19 20 20 20 21 22 23 24 22 20 27 34 46 57 65 65 65 65 65 65 65 65 64 64 64 64 63 62 62 62 63 62 62 61 61 60 58 55
2 2 3 3 4 8 16 16 14 13 17 16 15 14 15 18 20 22 24 24 22 24 33 44 55 65 65 65 64 64 64 64 64 64 64 63 63 62 62 62 62 62 61 61 61 60 60 58 54
7 5 4 1 0 11 12 11 7 7 7 7 9 11 11 11 14 19 22 26 26 26 34 45 52 63 64 63 62 62 63 62 63 62 63 63 63 62 61 61 62 62 60 60 60 60 58 57 54
12 8 12 7 2 1 3 10 10 9 10 13 14 13 12 12 13 15 17 24 28 30 35 46 51 58 63 62 62 62 61 61 61 62 62 62 62 62 61 61 61 60 59 59 59 59 57 57 55
13 13 10 6 7 11 12 11 12 12 13 13 13 14 17 19 19 19 19 21 28 32 39 45 50 56 62 63 62 60 61 60 60 60 60 61 61 62 62 61 61 60 59 59 58 59 57 55 54
14 13 11 13 12 8 18 8 9 9 9 13 18 27 32 34 33 31 25 23 25 31 42 46 50 56 61 61 58 59 58 58 59 59 60 61 61 61 61 61 60 59 59 58 58 59 58 55 53
16 16 14 14 16 17 16 13 9 9 6 17 26 32 34 37 36 35 29 27 25 29 41 48 50 55 59 60 57 58 58 57 57 58 59 60 60 61 61 60 60 59 59 59 59 58 57 55 54
17 19 22 22 21 16 15 11 6 8 19 28 33 34 36 38 39 38 34 31 26 28 45 51 52 54 57 58 57 57 56 55 53 57 59 60 60 60 60 60 59 59 59 59 59 59 57 55 55
21 23 19 16 12 9 9 9 9 20 31 33 33 35 37 39 41 41 39 32 30 34 48 54 54 54 56 57 57 57 56 55 54 56 58 58 58 58 59 59 59 59 59 58 59 58 57 57 56
20 20 14 7 8 9 12 13 9 27 32 32 35 36 37 39 44 43 41 42 41 44 54 54 53 53 55 57 57 56 55 55 55 58 58 57 56 57 59 59 59 59 59 59 59 58 58 57 56
20 20 19 18 21 20 19 15 29 28 33 32 32 35 37 40 44 47 45 43 46 52 54 55 54 54 55 56 56 55 55 55 57 57 57 56 56 56 56 57 58 59 58 58 58 57 56 56 56
22 20 21 21 14 9 6 5 24 31 29 27 27 34 37 42 45 48 49 43 48 54 54 55 55 54 54 55 55 55 55 56 57 58 57 56 56 56 55 56 56 57 58 58 57 56 56 56 56
20 26 23 22 17 14 10 17 32 27 23 22 25 33 38 42 44 46 50 49 49 54 54 55 55 54 54 54 54 55 54 55 57 57 57 56 56 56 55 56 56 56 56 57 57 56 55 55 55
21 22 25 21 21 19 24 25 30 27 20 24 29 34 38 41 42 43 45 52 53 53 54 54 55 54 54 53 54 54 54 55 55 56 57 57 55 55 55 55 54 54 53 53 52 52 52 52 52

GFSSGP_sfc_30mbdewp_096.txt.gz
Dewpoint
48 45 40 32 17 15 8 3 4 2 3 8 15 16 13 18 30 33 47 51 63 62 68 70 70 70 70 71 72 71 71 71 72 72 72 72 72 72 72 71 71 71 71 70 70 69 69 70 70
40 37 35 23 13 8 4 5 3 1 9 20 19 18 16 16 32 41 48 52 61 62 66 68 70 70 70 71 71 72 72 72 72 72 72 72 72 71 71 71 71 71 70 70 69 69 69 70 69
42 34 27 16 11 8 8 7 2 5 15 17 15 15 15 14 20 39 51 54 58 61 63 67 69 70 71 71 71 71 72 72 72 72 72 71 71 70 71 71 71 70 70 70 69 69 70 69 69
32 35 27 13 8 7 5 6 7 4 12 13 11 10 18 35 36 38 52 53 54 58 62 68 69 70 70 71 71 71 72 72 72 72 71 71 70 70 70 70 71 70 69 69 69 70 70 69 68
27 26 18 12 8 7 8 9 8 6 6 15 13 11 15 25 40 47 52 52 52 58 68 68 69 69 70 71 71 71 72 71 69 71 71 71 70 70 68 68 70 69 69 69 69 70 69 68 68
24 23 16 12 11 11 9 9 8 5 9 13 14 12 16 36 38 45 53 54 56 67 68 68 68 69 70 70 70 71 71 71 70 70 71 70 70 68 68 69 69 69 68 69 68 69 68 68 67
26 22 18 17 15 13 12 13 9 5 7 9 16 14 15 21 45 51 50 55 59 64 68 68 67 68 69 70 69 68 68 68 70 70 70 70 70 68 68 68 67 67 67 67 69 68 68 67 67
30 25 22 20 16 15 14 14 8 8 8 12 11 10 12 41 47 53 54 56 61 65 68 68 67 68 68 69 69 68 68 68 69 70 70 70 69 67 68 67 66 65 66 66 67 67 65 66 66
30 24 22 20 19 18 17 14 13 9 8 7 11 11 22 39 43 51 56 58 62 65 66 69 68 67 68 68 69 68 68 68 69 69 69 69 69 68 67 67 65 64 64 63 63 64 66 65 65
23 26 23 22 20 17 15 14 13 10 10 9 10 14 15 28 27 38 55 59 61 64 67 68 68 67 67 66 68 68 68 68 69 68 69 69 68 66 65 65 65 64 65 64 64 63 65 65 64
21 23 25 23 21 19 17 17 16 12 10 12 13 16 17 19 21 26 38 53 59 63 65 68 68 68 67 64 68 67 67 67 68 68 67 68 66 65 65 65 65 65 64 65 65 65 65 64 63
16 19 21 22 22 20 20 20 19 18 19 20 19 18 17 20 20 23 30 34 40 60 64 66 68 68 68 66 66 66 65 66 66 67 66 66 65 65 65 64 64 64 64 64 64 64 63 62 63
16 15 16 19 20 21 22 20 21 20 19 18 19 19 19 19 20 19 20 31 31 40 61 66 67 67 68 67 65 65 64 65 66 66 67 66 65 65 65 64 63 62 63 63 63 63 61 62 62
14 14 12 12 16 16 18 18 18 20 22 21 21 20 21 21 22 22 23 24 28 34 45 68 67 67 67 67 67 66 66 66 66 66 66 66 65 66 64 64 62 62 63 64 63 62 61 62 62
16 14 12 13 11 12 16 16 17 19 21 21 22 21 22 22 23 24 27 28 28 30 37 67 67 67 67 67 67 67 67 66 66 66 66 66 65 65 64 63 63 63 63 63 63 62 62 61 61
19 18 15 16 17 17 18 16 18 20 21 20 22 21 22 23 23 25 28 29 27 28 32 62 67 67 66 66 67 65 66 66 66 65 66 66 66 64 64 63 63 63 63 63 62 61 61 61 60
18 16 15 14 10 8 6 7 10 14 16 16 14 20 21 22 23 24 26 28 28 25 33 43 66 67 66 66 65 65 65 65 65 65 65 66 65 64 63 63 63 63 63 62 62 61 61 60 59
13 10 11 9 8 7 9 9 10 13 15 16 19 20 19 20 22 23 26 25 27 27 28 43 66 67 66 66 65 65 64 63 65 65 64 64 65 64 64 63 63 63 62 62 61 60 61 59 59
8 9 8 8 4 4 7 10 7 14 15 10 11 15 15 16 17 17 24 28 29 32 32 42 60 67 66 65 64 64 63 63 63 65 64 64 64 63 63 62 62 62 61 61 61 60 59 59 59
9 10 9 9 9 7 5 4 3 5 5 8 8 8 10 12 14 15 16 27 31 32 33 42 56 66 65 64 64 63 63 63 63 63 64 64 63 63 62 62 62 62 61 60 60 59 58 58 59
9 10 9 10 9 8 7 4 7 10 12 12 12 13 15 16 16 19 21 25 29 34 37 42 49 65 65 64 63 62 62 63 63 62 62 62 63 63 62 62 61 61 60 60 60 59 57 57 58
7 10 11 13 12 8 7 6 7 11 12 12 13 15 18 30 34 35 33 32 29 37 40 40 46 52 65 63 62 62 61 60 60 60 61 62 61 62 62 62 61 61 60 60 59 60 58 57 55
12 11 13 15 12 11 12 10 10 13 9 11 23 30 33 35 37 38 38 37 33 31 43 44 46 50 63 62 62 61 60 60 59 60 60 60 60 61 61 61 61 61 60 60 59 59 58 58 56
21 13 15 16 14 13 13 13 11 13 11 21 32 33 36 39 41 41 40 38 35 32 41 48 49 53 62 62 62 61 60 59 58 58 60 60 60 60 61 61 61 60 60 59 59 60 59 58 57
21 20 21 20 17 16 15 11 12 15 30 32 31 34 38 41 44 47 41 40 36 34 40 52 51 53 60 61 61 61 60 59 57 59 59 60 59 59 60 60 60 59 59 59 60 59 58 58 57
25 21 21 16 15 15 14 11 18 20 30 31 35 36 39 42 44 47 49 49 42 40 52 53 53 52 58 59 60 59 58 58 57 57 59 59 58 58 60 60 60 59 59 59 59 59 58 58 58
26 23 27 25 21 23 29 13 28 30 33 31 32 35 40 41 44 46 48 51 45 55 56 55 53 53 56 58 58 57 58 56 56 58 58 58 57 57 59 59 59 59 59 59 59 59 57 57 58
28 26 19 21 23 21 28 24 31 34 29 25 25 35 40 41 44 45 46 48 53 55 55 55 56 56 57 57 57 57 57 56 58 58 57 56 56 56 57 57 59 59 59 59 59 58 58 57 58
18 25 24 25 22 22 13 24 36 33 26 25 31 35 40 41 42 42 43 45 48 54 54 55 56 56 56 56 56 56 55 56 57 57 57 56 56 56 56 56 56 58 58 58 58 58 57 57 57
14 22 28 22 20 18 25 30 38 31 25 32 34 36 39 39 40 39 40 40 42 47 53 54 55 56 56 55 55 56 56 57 57 57 57 56 55 56 56 56 56 56 57 58 57 57 57 57 56

GFSSGP_sfc_30mbdewp_099.txt.gz
Dewpoint
47 46 45 37 25 18 15 13 12 9 6 11 18 18 17 22 38 41 60 63 66 67 69 70 70 71 71 71 70 70 71 72 72 71 71 71 71 71 71 72 72 72 71 70 70 69 70 69 70
42 41 39 33 18 12 12 15 12 9 11 20 18 16 14 25 42 53 59 63 66 68 69 70 70 71 71 71 71 71 71 72 72 71 71 72 71 71 71 71 71 72 71 70 70 69 69 69 69
41 39 31 27 19 12 11 11 11 10 15 18 16 15 14 20 44 48 61 63 65 66 68 70 70 70 71 71 71 71 71 71 72 71 71 72 71 71 71 71 71 71 71 70 69 69 70 69 68
34 35 33 23 15 13 12 7 7 7 12 13 12 11 19 39 44 52 61 62 62 64 67 69 69 70 71 71 71 71 71 71 71 71 71 71 71 71 71 71 71 71 70 70 70 70 69 68 68
30 29 27 20 17 15 12 11 10 9 11 13 14 11 17 48 52 54 57 59 60 64 67 68 69 70 70 71 71 71 71 71 71 71 71 71 71 71 70 70 70 70 69 70 69 70 68 68 67
24 26 22 21 19 16 13 11 10 10 11 11 13 12 26 45 51 53 54 58 65 66 67 68 69 70 70 70 70 71 71 70 69 70 71 71 71 70 69 69 69 69 69 69 68 69 68 68 67
30 23 20 20 18 17 17 18 15 13 11 9 16 13 15 47 49 53 54 64 67 68 67 68 68 69 70 70 70 70 71 70 68 68 71 71 70 69 68 68 68 68 68 67 68 68 68 67 66
30 29 26 24 20 19 20 19 18 16 8 12 12 13 16 48 53 54 56 64 68 68 67 67 67 68 69 69 69 69 70 68 67 68 68 70 70 68 68 68 67 66 67 68 65 65 64 65 64
32 29 28 27 24 23 23 22 21 18 9 9 10 12 42 47 51 53 57 63 66 67 67 67 67 67 68 68 68 68 68 67 67 68 67 69 69 68 68 68 66 66 66 65 65 64 63 64 64
24 26 28 27 26 24 22 21 20 20 17 10 12 17 41 44 47 53 55 59 63 66 67 67 67 67 67 68 68 67 68 67 67 68 68 69 68 68 67 67 66 65 65 64 64 64 63 62 64
24 21 23 23 27 27 24 22 21 21 19 14 15 17 18 31 41 50 55 57 62 65 68 67 67 67 67 67 68 68 68 68 67 67 68 68 68 67 66 65 65 65 64 64 63 63 64 64 63
19 22 21 21 21 23 23 22 21 22 22 23 21 20 20 21 26 28 44 56 58 64 67 67 67 67 67 67 67 67 67 67 67 68 68 68 66 65 65 64 64 64 64 63 62 63 64 64 64
13 14 17 18 19 19 20 19 20 21 22 21 22 22 21 23 22 23 27 34 50 60 65 67 67 67 67 67 67 66 66 66 67 67 67 67 65 65 64 64 64 64 64 62 62 62 62 62 62
15 14 13 13 16 14 14 18 17 19 18 18 19 20 22 23 23 22 22 23 33 35 64 67 67 67 66 67 66 65 66 65 66 66 66 66 65 65 64 63 63 63 63 62 62 62 61 62 62
20 18 19 16 15 13 13 11 12 17 18 18 18 20 20 21 22 24 23 24 23 27 42 65 67 67 67 66 66 66 66 65 66 66 66 66 66 65 64 63 62 62 63 63 62 62 61 61 62
19 20 18 19 17 17 14 12 13 18 18 18 19 20 21 22 22 23 24 24 27 27 33 64 66 66 67 66 67 66 66 66 66 66 66 65 65 65 64 63 63 63 63 63 62 61 60 60 60
19 17 18 18 19 17 14 13 15 17 17 18 19 20 21 21 22 23 24 27 26 27 29 58 66 66 67 66 67 66 66 65 65 65 66 65 65 64 64 63 63 63 63 62 62 61 60 59 60
15 18 19 18 18 17 15 12 10 11 13 12 14 18 19 22 22 23 24 26 29 29 29 52 66 66 66 66 66 65 65 66 65 64 65 65 65 64 63 63 63 63 62 62 61 61 61 60 60
11 13 10 10 11 13 11 7 8 9 10 9 11 14 11 16 19 18 20 27 26 29 29 52 66 66 66 65 64 64 63 64 65 64 64 64 65 64 63 63 63 62 62 60 61 60 60 59 60
10 8 7 8 11 11 10 8 9 8 7 7 7 8 8 9 10 12 14 16 25 30 32 51 65 66 65 65 64 64 64 64 63 65 64 63 64 64 63 63 62 62 61 61 60 60 59 59 59
15 10 6 7 12 12 12 11 9 9 8 7 8 4 7 9 10 11 15 16 19 30 32 58 65 66 65 65 64 63 63 63 63 63 64 64 63 63 62 63 62 62 61 60 60 60 59 57 59
3 12 11 7 8 11 13 10 10 7 7 8 8 12 13 14 16 27 36 37 35 33 35 58 66 65 64 64 63 62 61 60 61 62 62 63 63 63 62 62 62 62 61 60 60 60 59 58 56
12 8 17 11 10 14 13 11 10 12 11 13 18 13 13 19 40 46 47 41 39 38 37 54 65 64 64 63 63 62 61 60 61 62 61 62 62 63 62 62 62 61 61 60 60 60 59 58 57
11 13 20 25 17 13 15 14 12 12 13 15 33 40 43 44 46 47 48 50 51 49 38 44 62 64 63 62 62 61 60 61 59 60 60 60 61 61 61 61 61 61 61 60 60 60 59 58 57
20 14 19 19 19 17 16 15 15 16 16 28 40 41 43 44 45 46 47 48 50 50 45 46 51 63 62 62 62 61 61 60 59 59 59 59 59 59 60 61 61 61 60 60 60 60 59 58 57
18 16 22 14 16 17 18 15 15 17 23 44 42 42 43 44 44 44 45 47 48 53 48 48 58 62 62 62 61 61 61 60 59 59 59 59 59 58 58 60 60 60 60 60 60 59 59 59 58
26 24 22 27 24 25 24 25 30 37 39 41 41 41 41 41 42 42 43 45 45 54 55 55 55 59 61 60 61 61 61 60 59 59 59 59 59 59 60 60 60 60 60 60 59 59 59 59 58
27 29 24 29 21 19 27 30 29 34 36 40 40 39 39 39 39 39 40 42 43 46 53 55 56 56 58 59 59 59 58 58 58 58 58 57 57 57 57 59 59 59 59 59 59 59 59 58 58
30 27 28 30 24 24 23 27 33 35 40 39 38 37 37 36 36 36 37 39 40 42 44 49 55 56 57 58 57 57 57 58 58 57 56 56 56 56 56 56 57 58 58 59 58 58 58 58 57
31 29 29 23 21 23 26 27 36 39 40 36 36 36 35 34 34 33 34 35 37 38 39 41 47 56 57 57 57 56 57 58 57 57 56 56 56 56 56 56 56 57 58 58 58 58 58 57 57

GFSSGP_sfc_30mbdewp_105.txt.gz
Dewpoint
47 44 43 33 21 17 8 8 14 8 7 9 14 14 16 22 34 27 59 64 65 68 70 70 71 71 71 71 70 70 70 70 70 71 71 71 72 72 72 72 72 71 70 69 69 69 70 69 69
39 41 36 29 16 5 -0 15 6 9 11 14 11 12 16 26 47 57 59 65 66 68 69 70 71 71 71 71 71 71 71 70 70 71 71 71 72 72 72 72 71 71 71 70 70 70 70 70 69
41 37 31 27 21 3 -7 7 10 10 12 11 9 14 15 34 50 55 61 65 67 68 69 70 70 71 71 71 71 71 71 70 70 70 71 72 72 72 72 72 71 71 71 69 69 69 70 69 69
34 35 32 25 18 18 10 10 10 11 13 13 12 11 16 41 52 57 65 66 67 68 69 70 70 70 70 71 71 71 70 70 70 70 71 71 72 72 72 71 71 71 70 69 68 69 69 68 68
30 33 22 25 23 22 18 17 18 17 15 14 16 14 14 46 55 62 64 65 65 67 69 70 69 70 70 70 70 71 70 70 70 70 71 71 71 72 71 71 71 71 70 70 69 69 68 68 67
24 27 22 16 19 21 21 21 18 17 18 18 17 15 17 52 58 62 64 64 65 67 68 69 70 70 70 70 70 70 70 70 70 70 70 71 71 71 71 70 70 70 70 70 69 68 68 67 67
22 23 19 21 21 21 21 22 20 19 20 22 19 16 28 55 59 61 62 63 65 67 68 69 69 70 70 70 70 70 70 70 70 70 70 71 71 70 70 70 70 70 70 69 68 68 67 67 66
30 27 25 20 17 18 22 23 23 25 24 22 20 17 29 47 58 61 61 63 64 66 67 68 68 69 69 69 69 69 69 70 70 70 70 70 70 70 69 69 69 68 67 67 68 67 67 67 66
32 27 24 21 21 23 26 27 28 26 22 24 22 21 31 52 60 62 63 64 64 64 66 67 67 68 68 68 69 69 69 69 69 70 70 69 69 69 69 69 68 67 67 67 67 66 66 66 65
27 29 27 29 27 28 30 29 29 27 26 25 24 24 24 38 54 61 60 58 62 63 64 66 67 66 66 67 68 69 69 69 68 69 69 69 69 68 68 68 68 67 66 66 66 66 65 65 64
25 27 29 29 29 28 26 26 27 26 25 25 24 23 22 22 37 51 59 62 60 63 63 65 66 66 66 67 67 68 68 68 67 67 67 68 68 68 67 67 67 66 66 65 65 65 64 63 64
22 23 25 25 25 24 22 23 21 22 22 25 24 24 22 21 22 24 42 57 63 64 64 65 65 66 66 67 67 67 67 67 66 65 65 67 67 67 66 66 65 65 65 63 63 62 63 63 62
20 20 17 15 15 16 18 18 19 19 21 23 24 24 24 22 22 23 26 39 59 62 65 65 65 65 66 66 65 66 66 65 65 64 65 67 67 66 66 65 65 64 63 62 62 61 61 62 62
19 17 17 19 19 17 16 16 16 17 18 18 22 22 21 23 22 21 22 24 34 56 63 66 65 65 65 65 65 65 65 65 65 65 65 67 67 66 65 64 64 64 63 62 61 60 59 61 62
11 11 12 16 18 19 18 18 17 18 16 15 15 17 18 18 21 22 21 21 24 36 59 65 66 65 65 65 65 65 65 65 64 65 66 67 67 65 64 64 63 63 63 61 61 60 60 60 61
7 8 10 18 16 17 18 16 18 19 18 17 16 16 16 17 17 21 22 23 23 27 44 63 66 66 65 65 66 65 65 65 65 65 66 66 66 65 64 63 63 63 62 61 60 60 60 60 60
11 3 7 9 14 17 18 15 18 18 19 18 18 18 18 18 19 20 21 23 24 25 28 51 66 66 66 66 66 65 65 65 65 66 66 66 66 64 64 63 63 62 62 61 60 60 59 59 59
3 8 12 12 14 9 7 7 8 10 10 10 14 17 16 15 14 15 19 22 24 25 26 32 61 66 66 66 66 65 65 65 65 65 65 65 65 64 63 63 62 62 61 62 61 60 60 59 59
18 18 17 16 15 12 11 11 11 11 11 9 11 13 12 13 13 17 19 20 22 24 26 33 53 65 66 66 65 64 64 64 64 65 65 65 65 64 64 63 62 62 61 61 61 61 60 59 59
16 16 15 14 14 14 14 14 14 13 11 10 11 12 12 12 12 13 12 13 14 16 26 32 51 62 65 65 65 65 64 64 64 65 65 65 64 64 64 63 62 62 61 61 61 60 59 59 59
13 13 13 13 12 12 11 11 11 12 13 12 11 12 15 32 28 11 10 12 23 25 25 31 48 58 64 65 65 64 63 64 63 63 64 65 64 64 63 63 63 62 62 61 61 60 59 58 59
-4 2 5 7 12 10 14 10 13 16 15 16 15 37 44 44 45 45 48 49 50 51 51 45 41 58 63 65 64 63 62 61 62 63 64 65 65 64 64 63 63 63 62 61 61 61 60 59 57
-4 1 11 17 17 15 13 13 14 16 14 15 26 42 42 43 43 43 45 47 48 49 53 54 43 55 61 64 64 63 62 61 62 63 63 63 64 64 63 63 63 62 62 62 61 60 60 59 58
17 17 14 15 16 14 11 14 13 15 16 21 40 40 40 39 40 41 43 44 45 46 48 53 57 56 62 64 64 63 62 61 62 62 62 62 62 63 63 63 63 62 62 61 61 61 60 60 59
19 17 13 10 9 10 12 12 13 35 37 39 39 39 38 36 36 38 40 41 42 42 44 48 57 63 63 64 63 63 62 61 61 61 62 61 61 61 62 62 62 62 62 62 61 61 60 60 59
15 14 10 7 10 12 19 18 29 38 38 37 36 35 35 35 33 35 37 38 39 40 41 44 47 52 63 64 63 63 62 61 61 61 61 61 60 61 61 62 62 62 61 61 61 61 60 60 59
22 16 17 16 17 17 15 16 33 34 33 33 32 33 33 32 32 32 34 36 37 38 39 41 44 47 51 62 62 62 61 60 60 61 60 60 60 60 60 61 61 61 61 61 61 60 59 60 59
21 22 21 23 15 13 13 21 24 27 28 31 30 30 31 31 31 30 31 32 34 36 38 39 42 43 47 56 61 61 60 60 60 59 59 59 59 59 59 59 59 59 60 60 60 59 59 59 59
25 27 27 24 21 14 10 21 29 27 28 28 29 29 30 28 28 27 28 30 32 34 35 36 39 41 44 46 55 60 60 59 59 59 59 59 59 59 58 58 58 58 59 60 59 59 59 58 58
18 20 30 24 21 21 20 20 30 29 29 29 26 26 26 28 26 26 27 29 30 31 33 35 36 40 42 44 49 58 59 59 59 58 58 58 57 58 58 58 58 58 58 59 58 58 58 58 58

GFSSGP_sfc_30mbdewp_108.txt.gz
Dewpoint
46 43 41 30 16 15 6 4 14 8 9 10 15 13 10 14 20 29 59 64 66 68 69 70 71 71 71 70 70 70 71 70 71 72 72 72 72 72 72 72 72 71 70 70 69 69 69 69 69
38 41 35 27 7 -3 -8 13 7 10 10 13 12 11 13 16 40 53 60 64 67 68 69 70 70 71 71 70 70 70 71 70 70 71 71 72 72 72 72 72 71 71 70 70 69 69 69 70 69
40 36 26 24 15 -4 -8 -1 2 12 11 12 10 12 13 18 45 55 60 65 68 67 69 70 71 71 71 70 70 70 70 70 70 71 71 72 72 72 72 71 71 71 71 70 70 70 70 69 69
35 35 30 21 14 14 1 5 11 14 16 15 13 17 17 25 45 57 64 66 67 68 69 70 70 71 71 70 71 71 70 69 70 71 71 72 72 72 72 71 71 71 70 68 68 70 70 69 69
31 31 18 23 21 21 19 17 17 20 19 17 18 17 17 22 57 62 65 66 66 68 69 70 70 70 71 71 71 71 70 69 70 71 71 72 72 72 71 71 71 70 70 69 68 70 69 68 68
22 28 19 13 19 20 21 22 20 19 19 21 21 19 18 42 58 63 65 65 66 67 68 69 70 70 70 71 71 70 69 69 70 71 71 71 72 71 71 70 70 70 70 69 69 69 68 68 67
17 21 17 20 20 19 21 22 21 20 22 25 21 20 20 36 55 62 63 65 66 67 68 69 69 70 70 70 70 70 69 69 69 70 71 71 71 70 70 70 70 69 70 69 69 68 67 67 66
25 22 22 19 16 16 20 23 23 25 26 24 22 20 24 33 58 62 63 64 65 67 67 67 68 69 69 69 69 69 69 69 69 69 70 70 70 70 70 69 69 68 69 69 68 67 67 67 65
32 25 23 20 19 20 26 28 30 28 26 26 26 26 25 42 62 62 61 63 63 65 66 66 66 68 68 69 69 69 69 69 69 69 69 69 69 69 69 69 68 68 68 68 67 67 67 66 65
27 30 26 27 24 26 29 29 29 27 27 26 28 29 27 38 55 59 60 59 61 63 64 65 65 66 67 67 68 69 69 69 69 69 69 69 69 69 69 69 68 67 67 67 67 66 66 66 64
26 21 27 29 30 30 28 27 27 25 24 26 25 25 25 24 36 53 56 60 61 62 63 65 65 65 65 66 67 67 68 68 68 68 68 68 68 68 68 68 68 67 66 67 66 66 66 64 63
24 24 25 24 23 23 21 23 21 22 21 23 23 24 25 24 24 27 37 49 58 63 63 63 65 65 65 66 66 65 66 66 67 67 68 67 67 67 67 67 66 66 65 64 65 64 64 64 63
21 21 17 16 16 17 16 16 17 17 19 20 22 23 23 24 24 24 25 32 47 55 63 64 64 64 64 66 65 65 65 66 67 66 66 67 67 67 67 66 65 65 64 63 63 62 62 62 63
16 11 12 14 14 17 17 18 18 18 20 18 18 19 20 23 24 24 24 24 28 44 59 64 64 65 65 65 65 65 65 66 66 65 65 65 66 66 66 65 65 64 64 62 62 61 61 61 62
9 8 8 11 17 18 19 15 17 19 18 17 17 18 18 18 20 21 22 22 23 25 37 62 65 65 64 65 64 65 65 65 65 64 64 65 65 66 65 64 65 64 63 62 61 60 60 61 61
14 9 4 15 9 10 17 6 13 17 13 12 13 14 17 19 19 19 20 22 22 23 26 39 64 65 64 64 64 64 64 64 63 63 64 65 64 66 65 64 64 64 62 61 61 60 59 59 61
12 2 6 8 15 12 12 11 15 14 11 12 12 11 12 14 17 19 20 21 22 23 25 30 56 65 65 64 64 64 64 64 64 63 63 64 65 65 65 64 64 63 62 61 60 59 59 59 60
2 3 11 14 15 16 15 13 13 14 14 13 13 13 12 12 13 15 16 18 22 23 25 27 43 63 65 65 64 64 64 64 64 64 64 64 64 65 65 64 63 63 62 61 61 60 60 59 59
14 16 17 17 18 17 15 13 14 15 15 14 14 14 13 12 13 14 15 16 19 23 24 26 28 47 64 65 64 64 62 64 64 64 64 65 65 64 64 63 63 62 61 61 61 60 59 59 59
12 12 13 15 15 13 12 9 9 11 13 14 14 14 13 14 38 44 42 28 23 20 20 24 27 30 61 62 64 64 64 64 64 64 64 65 64 64 63 63 62 62 61 61 61 60 59 59 59
13 13 12 8 7 8 5 6 4 8 11 14 17 17 30 40 43 44 44 46 48 49 50 47 30 34 55 62 64 64 64 64 63 63 63 64 64 64 63 63 63 62 62 61 61 61 60 58 59
-2 1 2 -0 -1 -2 13 3 4 8 12 13 13 16 43 42 42 42 42 43 45 46 47 49 53 42 56 63 63 62 62 61 61 62 63 63 64 64 64 63 63 62 62 62 61 61 60 59 58
0 2 2 3 12 15 6 5 1 7 9 23 37 40 38 38 39 39 40 40 42 43 43 45 48 53 50 62 62 63 62 61 61 63 62 63 63 64 64 63 63 63 62 62 62 61 60 59 58
13 15 15 14 13 8 5 2 3 15 33 35 38 37 37 36 35 36 37 38 39 40 41 43 47 55 49 61 63 63 62 61 61 62 62 62 63 63 63 63 63 63 62 62 62 61 61 60 59
16 13 9 8 12 6 5 7 12 32 32 32 32 33 34 33 33 34 34 35 37 39 39 41 44 50 57 61 63 63 62 61 61 61 61 61 62 62 63 62 62 62 62 62 62 61 61 60 59
14 13 9 6 7 10 10 10 28 33 32 34 34 33 32 30 30 31 33 33 35 37 38 39 42 45 49 61 62 63 62 62 61 61 61 61 61 61 62 62 62 62 62 62 62 61 61 60 60
17 13 13 10 10 11 14 18 30 27 28 30 31 31 30 29 29 29 30 32 33 35 37 39 40 42 46 50 62 63 62 62 61 61 61 61 61 61 61 61 61 62 62 62 61 61 60 60 60
17 22 18 20 13 13 13 19 21 24 26 27 28 28 27 28 28 29 29 31 32 33 35 38 39 41 43 46 51 62 61 61 60 60 61 61 60 60 61 60 61 61 61 61 61 60 60 60 60
20 22 20 19 21 16 12 18 28 25 26 25 26 27 27 27 27 27 28 30 31 32 33 35 37 39 41 44 48 58 60 60 60 60 60 60 59 59 60 60 59 59 60 60 60 60 60 59 59
17 19 20 18 22 22 19 19 29 27 26 25 23 24 24 27 26 27 28 28 29 29 31 31 35 37 39 43 47 58 59 59 59 58 58 58 58 58 58 58 58 58 58 59 59 59 59 58 58

GFSSGP_sfc_30mbdewp_111.txt.gz
Dewpoint
46 42 40 30 11 13 3 1 14 8 11 13 14 13 11 12 12 23 58 62 65 67 69 70 71 71 70 70 70 71 72 73 72 72 71 71 71 71 71 72 72 71 71 70 69 69 70 71 70
38 39 34 26 4 -5 -7 9 7 9 9 14 13 13 15 14 27 39 56 64 66 67 69 69 71 71 70 70 70 71 72 72 72 72 72 71 71 71 72 71 71 71 71 70 69 69 70 70 70
39 36 26 23 9 -1 -5 -2 8 11 13 13 13 14 16 18 29 47 61 65 67 67 68 69 70 70 70 70 70 70 71 72 72 72 72 72 72 72 72 71 71 71 71 70 69 69 70 69 69
37 34 29 16 11 12 1 6 12 15 19 17 15 19 21 30 47 58 63 66 66 67 68 70 70 70 70 70 70 70 70 71 71 72 72 72 72 72 71 71 71 71 71 71 70 70 69 69 69
32 29 17 19 18 18 21 19 18 20 21 19 20 20 22 29 52 60 65 66 66 67 68 69 69 70 70 70 70 70 69 70 70 71 71 72 72 72 71 71 71 71 70 69 70 70 69 69 69
20 26 15 12 16 19 20 22 21 19 20 22 21 21 24 31 48 61 65 66 67 67 68 69 69 70 70 71 70 69 69 69 70 71 71 72 72 71 71 71 71 70 69 68 69 69 69 68 68
17 19 17 18 19 18 20 23 21 21 22 25 24 23 25 29 56 62 65 66 67 68 68 69 69 69 70 70 70 69 69 69 70 70 71 71 71 71 71 70 70 70 69 69 69 68 68 68 68
21 19 19 19 16 14 19 24 25 25 26 28 26 24 27 29 59 63 64 65 67 67 68 68 68 69 70 70 69 69 68 68 69 70 70 70 70 70 70 70 70 70 69 69 68 68 68 67 67
31 21 20 16 17 17 26 28 30 30 28 28 28 28 30 29 53 59 62 63 65 65 66 66 67 68 69 69 69 69 69 68 69 69 70 70 69 70 70 69 69 69 69 68 67 67 67 66 66
31 28 22 24 22 23 29 29 29 28 28 28 28 30 29 26 30 34 56 59 62 63 64 65 65 66 68 68 69 69 69 68 68 68 69 69 69 69 69 69 68 68 68 67 67 67 66 66 65
26 14 26 30 29 30 28 26 26 24 22 24 23 23 25 26 27 29 41 59 59 61 63 64 65 66 66 66 67 67 68 68 68 68 68 69 69 69 69 69 68 68 68 67 66 66 66 65 65
23 26 26 26 24 22 21 22 19 20 19 21 21 24 25 25 26 26 30 40 60 62 61 64 65 65 65 65 66 66 66 67 67 67 68 68 67 68 68 67 68 68 68 67 67 66 66 66 65
21 20 18 17 14 16 17 17 18 18 20 20 21 22 22 23 24 25 27 29 43 59 63 63 65 65 64 65 65 65 65 66 66 66 67 67 66 66 67 67 67 67 67 66 66 66 66 65 65
19 13 11 12 12 13 15 16 19 20 19 17 16 16 17 18 19 22 25 26 29 36 53 64 64 64 64 64 64 65 65 65 66 67 67 67 66 66 66 66 67 67 66 66 65 65 65 64 64
10 9 10 9 15 16 19 10 17 18 15 12 13 14 15 16 18 20 21 24 26 28 30 53 65 65 64 64 65 65 65 65 65 66 67 67 67 67 66 66 65 66 66 65 65 65 64 64 64
16 12 6 13 14 12 15 -1 17 16 14 13 15 15 15 15 15 18 21 23 23 25 28 33 54 64 65 65 65 65 65 65 66 66 66 67 67 66 66 65 65 66 65 65 64 63 63 63 63
14 2 5 6 15 15 14 9 13 15 14 15 14 14 15 16 15 16 20 20 21 21 27 30 37 57 64 65 65 65 65 65 65 65 65 65 66 65 65 65 65 65 64 64 64 63 62 62 61
1 5 9 9 15 14 14 13 14 15 14 12 14 16 16 16 15 15 19 19 21 23 28 31 33 41 60 64 65 65 65 65 64 64 63 63 64 64 65 65 64 64 63 63 62 62 62 62 61
16 13 13 16 15 17 15 10 7 9 9 11 13 11 13 15 16 19 39 45 41 33 31 29 30 36 49 60 62 62 62 63 63 64 63 63 64 64 64 64 64 64 63 62 62 61 61 60 61
12 11 11 13 15 10 3 1 1 4 10 7 8 12 14 18 27 41 44 45 46 48 49 49 47 35 36 53 60 61 61 62 63 63 63 63 64 64 64 64 63 63 63 62 61 61 60 60 60
11 10 8 4 5 3 1 -0 -0 0 4 10 25 38 40 40 40 41 41 42 43 44 45 46 48 50 50 38 56 61 62 63 63 63 63 63 64 64 64 63 63 63 62 61 61 61 60 59 59
1 5 3 3 1 -4 6 -3 -0 2 10 34 37 37 36 36 36 36 37 38 40 42 43 44 45 47 49 51 46 59 59 59 60 62 63 63 64 63 63 63 63 62 62 62 62 62 61 60 58
6 6 8 9 8 10 6 6 -1 1 20 31 32 32 33 32 32 33 33 35 36 38 39 41 43 46 49 52 51 59 60 60 60 62 63 63 63 63 63 63 63 62 62 63 62 62 61 61 59
16 16 15 16 13 3 2 2 0 25 30 31 31 31 31 30 30 30 31 32 34 35 37 39 41 43 48 54 53 59 60 60 60 62 62 62 63 63 63 63 62 62 62 62 62 62 62 61 60
14 11 8 6 10 2 10 8 10 31 32 31 30 30 30 28 28 29 29 31 32 34 36 37 40 41 45 50 53 59 61 61 61 61 61 61 61 62 62 63 62 62 62 62 62 62 62 61 60
12 11 5 2 3 5 6 1 19 29 29 29 29 28 27 27 27 28 28 30 31 33 35 36 39 41 44 47 53 58 60 60 62 61 61 61 61 61 62 63 63 63 63 62 62 62 61 61 61
15 13 13 9 8 7 5 17 27 26 26 26 27 26 26 27 27 28 28 29 30 31 33 35 38 40 42 45 49 58 60 61 61 62 62 62 62 62 63 62 62 62 62 62 61 61 61 61 61
13 18 17 15 12 10 11 12 21 24 24 24 24 25 25 26 26 27 27 29 29 31 32 34 36 38 41 43 47 51 62 62 62 62 62 62 62 61 62 62 61 62 62 62 61 61 61 61 60
19 17 17 16 14 15 13 18 27 24 24 23 23 24 25 26 25 26 27 28 30 31 31 31 32 35 39 41 44 51 61 61 61 61 62 62 61 61 61 61 62 61 61 61 61 61 60 60 60
18 17 24 18 16 21 21 19 26 25 24 24 21 23 23 26 26 26 26 27 28 28 29 30 31 32 36 40 42 45 50 60 60 60 60 60 60 61 60 61 60 60 60 60 60 59 59 59 59

GFSSGP_sfc_30mbdewp_114.txt.gz
Dewpoint
46 35 34 28 14 4 -0 -3 0 1 4 11 11 7 5 12 13 19 29 59 61 62 68 70 70 70 70 70 71 72 72 72 72 71 72 72 71 72 72 72 72 72 71 70 70 70 70 70 70
32 32 30 19 9 5 3 1 2 0 4 10 10 11 13 15 25 31 43 57 62 63 66 67 70 70 70 70 71 72 73 73 72 71 72 71 71 72 72 72 72 72 71 70 69 69 71 70 70
32 33 23 16 12 8 7 4 2 6 10 11 12 15 17 21 35 40 47 59 64 64 65 67 70 70 70 70 70 72 73 72 72 71 72 71 71 72 72 71 71 71 71 70 69 70 71 69 69
28 24 19 15 13 12 10 8 9 7 13 17 16 14 20 37 38 46 54 63 64 64 64 69 70 70 70 69 70 71 72 72 72 72 72 71 72 72 71 71 71 71 71 71 70 70 70 69 69
27 23 16 15 15 15 14 15 16 13 16 16 17 15 20 31 40 47 54 64 63 64 65 70 70 70 70 69 70 70 71 71 72 72 72 72 72 72 71 71 71 71 71 71 71 70 69 69 69
19 22 16 14 15 16 17 18 18 17 17 17 20 20 23 28 35 49 54 63 65 65 67 69 70 70 70 70 69 69 70 71 71 71 71 72 72 71 71 71 71 71 71 71 70 69 69 69 69
20 19 16 16 15 17 16 21 19 19 18 19 25 21 24 28 31 50 57 63 67 67 68 69 69 69 70 70 69 68 69 69 70 71 71 71 71 71 70 71 71 70 69 68 69 69 68 68 68
18 18 15 17 15 17 17 19 20 20 19 29 27 22 25 31 28 39 45 63 66 67 68 69 69 69 68 68 69 68 68 69 69 70 71 71 71 70 70 70 70 70 69 69 69 68 68 68 67
24 13 12 14 15 15 17 21 21 28 26 25 28 28 29 29 25 26 30 51 63 67 67 68 68 68 68 67 68 68 68 68 69 69 70 70 68 69 69 68 69 69 69 69 68 68 68 67 67
16 11 12 15 15 14 15 19 20 23 22 22 24 25 24 22 23 25 27 31 50 63 66 67 67 67 68 66 67 67 67 66 66 66 67 67 66 66 66 67 69 69 69 68 68 67 67 66 64
14 13 10 19 19 20 19 21 19 17 16 18 18 18 19 23 23 25 26 28 37 56 64 66 66 67 67 66 67 66 66 65 66 66 66 66 66 67 67 66 68 68 68 67 66 66 65 63 61
16 15 14 15 20 20 17 13 13 14 15 18 18 21 22 22 23 23 25 25 29 48 60 64 65 66 67 67 66 67 67 67 67 67 66 65 67 66 66 65 65 65 66 65 64 64 63 63 62
16 10 13 18 17 15 14 14 14 14 15 16 20 20 19 19 18 18 20 23 26 35 48 61 64 64 65 66 65 66 66 64 67 67 68 67 67 67 66 64 64 64 65 65 64 63 64 64 63
15 18 15 13 12 10 9 9 11 14 18 17 14 13 14 15 16 18 20 20 24 25 29 40 59 64 64 64 65 65 66 63 66 66 67 67 66 65 66 64 64 64 65 65 65 64 64 64 63
12 10 6 6 5 9 14 11 12 13 16 14 12 10 10 11 11 12 15 18 20 22 25 30 42 58 64 64 64 64 64 64 64 66 67 68 67 65 66 66 64 63 65 65 65 64 64 63 63
14 11 2 8 12 11 10 -3 1 16 14 11 9 9 9 9 10 12 13 16 17 19 23 27 34 44 60 63 63 63 62 63 62 64 65 67 67 67 66 66 66 65 66 66 65 64 63 63 63
11 -6 -5 -0 9 10 7 1 5 8 10 11 11 8 7 9 10 11 14 15 15 18 23 27 31 36 51 60 63 64 63 63 61 62 63 64 67 68 66 65 66 66 66 66 64 64 64 62 62
-5 -0 -1 1 3 9 8 6 5 9 9 9 10 7 9 6 9 13 18 25 35 37 40 39 34 34 37 53 60 60 62 63 62 61 62 63 65 66 66 63 65 66 65 65 65 64 63 62 62
9 7 4 3 8 10 8 6 2 -1 -1 -0 1 5 6 21 33 37 40 41 42 43 44 45 47 47 38 37 51 54 59 61 61 62 62 62 64 65 64 63 64 65 65 64 64 64 64 63 63
9 6 4 6 11 7 0 -3 -4 -4 0 5 5 21 34 35 36 37 38 40 41 42 43 45 45 46 48 42 36 51 54 58 59 61 63 63 64 64 64 63 64 65 64 64 64 63 63 63 63
8 8 6 5 1 -0 -2 -5 -7 1 3 19 33 33 33 34 34 35 36 37 38 39 41 42 43 44 45 47 48 38 53 55 57 61 63 64 63 63 65 64 64 64 64 63 63 63 62 60 62
4 5 3 2 1 -5 -1 -4 1 -1 8 26 29 31 32 32 31 31 32 34 35 36 38 40 42 43 44 46 47 47 42 51 56 59 62 63 64 64 64 64 64 64 64 63 63 63 62 62 59
4 8 7 7 5 5 2 1 2 -3 4 26 31 32 31 31 30 30 30 31 33 35 36 38 40 41 43 46 47 49 45 50 53 57 59 61 63 64 64 64 64 64 63 63 63 62 62 62 60
9 9 7 8 7 3 1 -2 -1 11 28 30 31 30 30 29 29 29 30 30 31 33 34 35 37 38 40 43 46 49 52 49 52 53 58 60 63 63 64 64 64 64 63 63 63 63 62 62 61
12 8 1 1 8 2 3 4 -1 28 29 28 28 28 28 28 28 28 29 29 30 31 32 33 34 36 37 41 44 48 52 53 55 53 57 59 62 62 63 63 63 63 63 63 63 62 62 62 61
12 10 1 -9 -9 -6 7 3 9 28 27 27 27 27 27 27 27 27 28 29 29 30 31 32 33 34 36 40 43 46 51 54 55 56 55 58 61 61 62 63 63 63 63 63 63 62 62 62 62
8 9 8 5 6 5 3 2 23 26 26 25 25 26 26 26 26 26 27 28 28 28 29 31 32 33 35 39 42 46 51 57 57 57 58 59 61 61 63 63 63 63 63 63 63 62 62 62 62
9 13 14 10 9 6 4 6 20 25 25 25 25 24 25 25 25 26 26 27 28 28 29 30 31 32 34 38 42 45 51 57 58 60 61 60 62 62 62 62 62 62 62 63 63 62 62 61 62
13 12 13 15 14 12 11 20 27 25 25 23 23 23 25 25 25 26 27 27 28 28 28 29 30 31 33 38 42 45 50 59 60 61 61 61 62 61 62 63 62 62 62 62 62 62 61 61 61
13 12 14 14 15 15 18 17 25 24 23 23 21 22 22 24 25 26 26 26 27 27 27 28 29 31 32 36 41 42 45 50 61 60 61 62 61 62 62 62 61 61 61 61 61 61 60 60 60

GFSSGP_sfc_30mbdewp_117.txt.gz
Dewpoint
47 36 27 23 18 9 5 2 1 -0 -1 7 9 7 6 8 11 18 32 50 55 58 68 69 70 71 71 72 72 72 72 72 72 72 72 72 72 72 72 72 72 72 72 71 71 70 70 71 71
36 27 27 25 14 8 4 4 2 4 3 8 4 6 8 14 22 31 40 49 58 60 67 67 70 70 71 71 72 72 72 72 72 72 72 72 72 72 72 72 72 71 72 70 71 70 71 71 70
36 28 25 19 16 11 7 8 5 6 8 6 7 12 12 22 32 39 44 57 61 61 65 67 70 70 70 71 72 72 72 72 71 72 72 72 72 72 72 72 72 72 72 70 69 71 71 69 70
28 25 24 19 14 13 12 11 10 9 10 12 11 11 17 35 36 43 47 58 61 61 63 69 69 70 70 71 72 72 72 72 71 71 72 72 72 72 72 71 71 72 72 71 70 71 70 69 69
29 24 20 17 16 15 15 14 15 16 14 15 15 14 16 29 32 44 48 59 62 62 63 69 69 70 70 70 71 72 72 71 71 71 72 72 72 72 71 71 71 72 71 71 71 70 69 69 69
21 21 18 15 14 15 16 17 17 18 17 17 16 17 19 28 31 41 50 57 65 63 64 70 70 70 70 70 70 71 71 71 71 71 71 72 72 71 71 70 71 71 71 71 71 69 69 69 69
20 19 17 17 16 15 17 19 19 18 18 17 22 22 22 26 33 30 38 55 64 66 65 69 69 69 70 69 69 69 70 71 71 71 71 71 71 70 70 70 71 71 71 71 70 69 68 69 68
18 18 17 17 15 16 17 17 19 18 18 26 24 20 22 30 31 28 31 43 62 66 67 69 69 68 67 67 68 68 69 70 70 71 71 71 71 70 70 70 70 70 69 69 69 68 68 68 68
22 14 14 14 14 15 17 16 20 21 25 22 24 26 27 28 25 24 28 33 53 65 67 69 68 68 67 66 67 68 68 69 70 70 70 70 69 69 69 68 69 69 69 69 69 68 68 68 67
19 14 13 14 13 15 15 14 16 18 19 21 22 24 24 23 22 24 27 29 32 52 66 69 69 69 68 65 67 66 65 65 66 66 68 68 66 66 65 66 68 69 69 68 68 68 67 67 65
14 14 14 14 13 18 15 16 16 18 16 16 17 19 19 21 24 24 25 27 28 41 61 67 68 69 68 67 65 65 65 65 65 65 65 65 65 65 65 66 67 68 68 68 67 67 66 64 60
9 12 11 11 10 15 15 16 13 11 13 14 15 16 20 21 21 20 22 24 27 33 54 64 67 68 68 68 64 64 62 64 64 65 67 65 65 65 65 64 65 66 66 66 65 64 63 63 62
3 7 4 4 9 13 11 9 8 8 9 9 11 18 18 18 19 19 19 22 24 29 39 55 64 66 68 68 66 67 66 63 63 63 66 65 63 65 65 63 64 65 64 65 65 64 63 63 61
7 7 10 7 8 6 6 4 3 2 7 13 13 12 12 12 13 14 18 20 23 26 28 34 45 63 65 67 66 67 67 63 65 64 65 67 64 65 64 63 60 62 61 64 64 64 64 64 63
8 5 2 1 1 2 7 6 3 7 11 15 12 10 10 9 9 9 10 14 18 20 24 29 34 43 59 64 65 66 64 64 63 64 67 68 67 66 65 65 61 59 60 65 65 65 65 65 64
7 7 5 3 6 3 7 2 -1 8 10 10 7 7 7 7 6 10 11 13 14 15 20 25 29 35 43 54 60 63 64 64 62 63 64 67 67 66 65 66 65 61 61 64 65 65 64 64 63
6 6 7 3 5 4 5 1 1 3 9 6 7 9 7 6 8 9 13 17 18 24 32 34 38 37 37 43 55 60 63 64 63 61 63 65 67 67 65 65 66 66 62 64 64 65 64 63 63
7 4 2 2 2 2 3 4 5 3 4 7 8 5 7 7 10 31 36 39 40 41 41 42 42 45 45 40 45 54 59 61 64 63 61 63 66 67 66 64 65 66 65 65 65 64 65 63 62
9 9 5 2 1 0 3 6 3 1 -1 -2 -2 -1 1 17 32 34 35 37 39 41 41 41 43 45 46 46 37 42 55 58 61 64 63 62 63 66 66 65 65 66 65 65 66 64 64 63 63
11 6 3 3 2 5 6 4 -1 -2 -2 -2 1 4 26 31 30 32 33 35 37 38 40 42 42 42 44 44 45 41 42 51 58 60 62 64 64 65 66 65 63 66 65 65 65 64 64 64 64
6 4 4 4 5 3 -0 -1 0 2 1 2 24 28 28 29 31 31 31 32 34 35 38 39 40 41 43 44 45 45 47 44 53 59 60 62 64 65 66 66 64 64 65 64 64 64 63 62 64
3 4 4 4 3 2 6 3 5 6 4 13 25 29 31 31 30 30 31 31 32 33 36 37 38 40 41 43 44 45 45 43 45 56 60 60 64 64 66 66 66 65 65 64 63 64 63 62 61
7 7 7 6 5 5 4 2 4 6 3 18 28 29 29 29 29 29 30 30 31 31 33 35 37 38 40 42 43 45 46 47 48 47 57 60 62 64 65 66 66 65 65 64 63 63 63 63 61
8 7 8 7 6 4 6 4 3 16 26 26 27 28 28 28 28 28 28 29 29 31 31 33 35 36 38 39 41 43 45 47 48 50 51 58 60 62 65 65 65 65 65 64 64 64 63 63 62
10 10 7 6 5 4 7 4 2 24 26 26 26 27 28 28 27 27 27 28 28 29 30 31 32 33 35 37 39 40 43 46 48 50 52 56 59 61 63 64 64 64 65 64 64 63 63 63 62
5 8 7 3 2 1 -1 1 13 25 25 26 27 27 27 27 27 27 27 27 27 28 29 29 30 31 33 34 36 38 41 44 47 49 52 54 57 60 63 64 63 64 64 64 64 63 63 63 62
4 4 8 6 6 5 3 1 19 26 27 26 26 26 26 26 27 26 26 26 26 28 28 29 29 30 31 33 35 37 40 43 46 50 54 55 57 59 62 63 63 63 63 63 63 62 62 62 63
10 7 7 8 7 4 2 2 20 26 25 25 26 25 25 26 26 26 26 26 27 29 29 28 28 29 30 32 34 37 40 44 47 52 55 57 58 59 61 63 63 63 63 63 63 62 62 62 62
6 9 8 8 15 12 11 22 27 24 25 25 24 24 25 26 25 28 28 27 28 28 28 27 28 28 30 32 35 37 42 45 48 55 58 59 58 58 60 62 62 62 62 63 62 62 62 61 61
10 9 10 11 9 17 11 14 25 25 25 24 24 26 23 24 24 27 28 28 28 28 28 28 28 28 30 32 34 39 40 43 46 52 57 58 58 58 59 60 61 62 62 62 62 61 61 61 59

GFSSGP_sfc_30mbdewp_120.txt.gz
Dewpoint
46 37 29 27 19 16 10 6 6 1 1 8 6 5 5 6 10 25 43 52 58 60 68 69 70 70 71 72 72 72 71 71 71 71 71 71 71 72 72 72 72 72 72 72 71 71 70 71 71
39 34 26 24 20 13 9 8 3 5 6 7 4 4 6 11 28 35 43 52 59 62 68 68 70 70 71 72 72 72 72 72 72 72 71 71 72 72 72 72 71 72 72 71 71 70 71 72 70
45 35 24 23 19 16 10 10 8 7 9 7 6 10 11 27 34 39 44 54 60 61 69 68 70 71 71 72 72 72 72 72 71 72 72 71 72 72 72 71 71 72 71 70 71 71 71 70 70
31 26 24 22 19 17 14 13 11 10 10 12 10 11 17 32 35 42 47 55 61 61 65 69 69 70 71 72 72 72 72 71 71 71 72 71 72 72 72 71 71 72 71 70 70 71 70 69 69
30 25 21 19 18 17 16 15 14 15 16 16 15 15 18 31 33 42 49 57 63 66 69 69 69 70 71 72 72 72 71 71 71 71 72 71 72 72 71 71 71 72 72 71 71 71 69 69 69
24 24 19 18 17 16 16 17 17 17 17 18 17 16 18 31 32 33 41 55 64 66 70 69 69 69 70 71 72 72 71 71 71 71 71 71 72 72 71 71 71 71 71 71 71 69 69 69 69
21 20 19 18 17 17 18 19 18 19 19 19 23 21 23 32 33 32 33 43 63 67 70 71 69 69 69 70 70 71 71 71 71 71 71 71 71 71 70 70 71 71 71 71 70 69 68 68 68
20 19 17 17 16 16 17 17 18 18 18 25 23 21 23 30 30 28 32 35 63 66 68 71 70 69 68 69 69 70 70 71 71 71 71 71 70 70 70 70 70 70 71 70 69 68 68 68 68
22 20 16 15 15 14 15 16 17 18 20 22 23 23 26 28 26 26 30 35 50 65 67 70 69 69 68 67 68 69 69 70 70 71 71 70 70 70 70 70 69 70 69 70 69 68 68 68 67
18 18 17 16 14 13 14 16 14 14 16 18 20 23 24 23 23 26 27 29 32 47 67 70 70 69 69 65 67 67 68 69 70 70 70 70 69 70 68 68 69 69 69 68 68 68 68 67 67
13 14 15 15 14 11 12 14 15 15 15 18 18 18 19 21 24 26 26 27 29 33 63 69 69 69 69 68 68 66 66 66 68 68 70 70 69 68 67 67 68 69 68 68 68 68 67 67 65
9 11 12 12 7 11 10 13 12 12 14 13 13 14 17 21 22 22 24 23 26 30 38 67 69 68 68 70 69 67 66 66 66 67 68 68 68 67 65 66 68 68 68 68 68 67 66 65 65
6 6 6 7 8 4 7 8 8 7 7 8 7 8 16 18 18 19 20 22 24 28 33 57 67 68 68 68 67 67 65 66 66 67 67 68 66 66 67 65 67 67 67 67 67 66 65 65 64
5 6 7 6 7 3 5 4 3 4 4 3 11 12 13 13 13 13 14 18 24 26 30 35 43 65 66 67 66 67 66 67 66 66 67 68 67 66 66 66 66 66 66 67 66 66 65 64 64
10 7 7 5 3 1 2 2 5 7 7 7 14 12 11 12 10 11 13 15 17 20 24 39 36 40 56 65 65 66 67 66 66 65 66 67 67 66 67 66 65 66 65 66 65 66 65 64 64
7 8 8 9 10 4 3 2 7 7 8 9 12 11 9 8 8 9 20 32 37 39 42 44 47 47 47 47 61 64 65 66 66 66 65 67 68 68 66 65 66 65 64 65 65 65 65 64 64
14 11 9 9 7 5 4 5 6 6 3 7 10 7 8 10 9 34 37 39 40 41 43 45 46 47 50 52 50 50 63 64 65 65 65 68 67 67 68 66 65 66 66 65 65 65 65 65 64
9 10 10 10 6 5 3 3 4 5 6 7 5 6 9 9 27 34 35 36 38 40 42 43 44 46 48 49 51 48 47 63 64 64 63 65 67 66 66 67 66 65 66 65 64 65 65 65 64
11 10 9 10 11 6 6 4 3 5 8 5 4 2 8 9 31 32 34 34 35 37 39 40 42 44 45 45 47 47 45 47 62 64 64 64 65 67 66 66 66 66 64 65 65 65 64 64 64
9 9 11 11 7 6 4 4 5 7 5 4 3 11 27 29 30 31 32 33 35 35 36 37 39 41 42 43 45 46 48 48 50 60 63 64 65 65 67 66 65 66 64 64 66 65 64 64 64
9 10 11 7 6 5 5 5 5 6 8 7 18 27 30 30 30 30 30 32 33 33 34 35 37 39 40 42 43 44 45 46 46 47 53 63 64 64 66 66 65 65 65 64 65 65 64 62 64
7 9 7 6 6 4 6 3 5 6 6 10 27 30 29 29 29 29 29 30 31 31 33 34 35 36 37 40 41 43 44 46 48 49 50 59 63 63 64 66 66 65 66 65 65 64 63 63 62
6 7 9 8 7 7 6 5 8 11 10 28 28 28 28 28 29 28 28 28 29 30 31 32 33 33 34 37 39 40 42 44 47 48 49 51 56 62 63 64 65 66 65 66 65 64 63 63 61
8 8 7 7 7 7 7 7 6 18 25 26 26 26 27 28 28 28 27 28 28 28 29 30 30 31 32 34 36 38 39 40 43 46 48 50 54 58 61 62 64 65 65 63 65 64 63 63 62
9 9 8 8 9 8 10 8 22 25 25 25 26 27 27 27 27 27 27 27 27 27 27 28 29 29 30 31 33 35 36 38 40 42 45 48 51 54 58 61 62 64 65 64 65 64 63 63 62
10 7 7 5 8 9 9 5 19 24 26 27 27 26 26 26 26 27 27 26 27 27 27 28 28 29 29 30 32 33 35 36 38 40 43 47 50 52 57 59 60 62 64 64 65 64 64 63 62
9 6 6 6 7 7 7 6 25 28 26 26 26 26 26 26 26 26 26 27 27 27 27 28 29 28 29 30 31 33 34 36 38 40 43 46 48 52 54 59 59 60 64 64 64 63 63 63 62
10 10 8 8 6 5 5 10 23 26 25 26 26 26 25 26 26 27 28 28 28 29 29 30 29 29 30 30 32 33 36 37 39 41 43 45 47 52 55 57 59 59 62 63 63 63 63 62 61
8 9 10 8 7 7 9 17 28 26 26 26 24 25 25 26 27 28 29 29 30 30 31 30 29 29 29 30 33 34 37 39 42 44 46 46 49 51 56 56 57 51 60 61 61 63 62 62 61
7 5 7 13 12 7 10 19 26 26 25 24 24 25 24 26 27 29 29 29 30 30 31 30 30 29 30 31 32 34 36 37 38 40 43 49 51 53 58 57 58 55 60 61 62 61 62 61 61

GFSSGP_sfc_30mbdewp_123.txt.gz
Dewpoint
44 40 39 29 21 20 15 13 12 7 7 4 3 4 5 19 28 38 50 55 61 67 69 70 71 71 72 72 71 71 71 71 71 71 71 70 71 71 71 71 72 72 72 71 71 71 70 71 70
46 43 34 26 21 19 18 14 6 5 6 7 5 6 8 29 37 43 49 57 61 68 69 70 71 71 72 72 72 71 72 72 71 71 71 71 71 71 71 71 71 72 72 72 71 70 71 72 70
44 43 28 24 22 19 18 12 7 9 10 9 7 11 14 33 40 45 53 61 63 68 68 69 70 71 71 72 72 72 72 71 71 71 71 71 71 71 71 71 71 72 71 71 71 71 71 70 69
34 30 25 22 21 22 21 19 11 10 12 11 13 13 31 38 41 48 57 62 66 67 68 69 69 70 71 72 72 72 72 71 71 71 71 71 72 71 71 71 71 72 71 71 71 71 70 69 69
36 29 22 22 21 21 20 20 15 16 17 18 16 15 30 35 38 49 57 63 67 69 69 69 68 70 71 71 72 72 72 71 71 71 71 71 72 71 71 71 71 72 71 71 71 70 69 69 69
28 26 22 20 21 20 20 19 19 20 21 23 23 18 32 34 31 33 53 63 67 69 69 69 69 69 70 71 72 72 71 71 70 71 71 71 71 71 70 71 71 71 71 71 70 70 68 68 68
21 21 20 20 19 18 18 20 19 19 19 23 24 22 32 31 30 29 36 63 62 70 69 69 69 69 69 70 71 71 71 71 70 71 71 71 71 71 70 70 71 71 71 71 70 69 68 68 68
23 21 18 18 17 17 17 17 17 17 21 25 25 22 25 31 28 28 30 46 64 67 70 69 69 69 69 69 70 71 71 70 70 70 70 71 71 70 70 70 70 70 70 70 69 68 68 68 68
20 20 19 19 17 15 14 16 18 16 16 21 24 23 25 27 27 26 28 29 61 65 69 70 69 69 68 68 69 70 70 70 70 70 70 70 70 70 70 70 70 70 70 70 69 68 68 68 67
16 19 20 21 17 14 12 12 14 15 16 16 20 22 20 23 26 26 26 26 28 57 67 70 69 68 68 67 68 68 69 70 70 70 70 70 70 70 70 69 69 69 69 69 68 68 67 67 67
11 15 17 16 15 14 11 11 14 14 14 18 14 15 17 23 22 24 24 25 27 38 67 69 69 69 68 67 67 67 68 69 70 70 70 70 69 69 69 69 68 69 69 68 68 67 67 67 66
9 9 12 12 13 9 7 6 8 10 11 11 9 10 16 19 19 22 21 23 24 26 45 68 68 68 68 68 68 66 66 67 68 69 70 70 69 69 68 68 68 68 68 68 68 67 67 66 66
6 8 7 8 8 8 9 7 7 8 9 8 8 9 12 16 18 17 20 16 17 27 37 64 67 67 67 67 67 68 66 66 67 67 69 69 68 67 67 67 67 68 68 68 67 67 66 66 65
10 10 10 9 7 6 5 3 6 6 6 6 7 6 13 16 13 14 11 17 33 43 45 46 49 56 66 65 65 66 67 68 67 66 67 68 67 67 67 65 67 67 68 67 68 67 66 65 65
11 8 8 9 10 8 6 3 1 4 7 8 7 13 14 12 13 34 39 40 41 43 44 45 46 49 50 52 57 64 64 65 67 67 67 67 67 66 67 66 66 67 67 67 67 67 66 65 64
9 11 8 10 10 11 6 4 4 6 8 8 13 14 13 11 36 37 37 38 39 41 41 43 44 45 46 46 50 53 55 63 65 64 67 67 67 67 66 66 65 66 66 66 66 66 65 64 64
11 11 13 14 14 6 3 3 5 9 7 8 9 12 9 13 35 35 36 36 37 38 39 39 41 42 43 44 46 48 51 54 61 64 65 65 66 66 67 66 66 66 66 66 65 65 65 64 63
8 11 12 12 11 13 10 7 7 7 5 7 10 10 10 31 33 34 35 35 36 36 36 36 38 41 42 43 44 45 47 49 53 61 64 64 64 65 64 67 65 66 66 65 64 64 65 64 63
11 13 11 11 14 12 9 7 7 7 8 8 9 14 29 31 31 32 33 33 33 33 34 35 35 37 39 40 41 42 43 45 46 50 52 64 63 64 66 65 66 65 64 65 65 64 64 64 64
16 12 10 11 13 12 9 7 6 7 8 10 19 30 30 30 30 30 30 31 31 32 32 33 33 34 35 37 39 40 41 43 45 47 50 51 57 65 65 64 63 66 64 63 65 64 64 64 64
12 9 9 9 10 8 7 6 7 8 8 30 29 29 29 29 29 29 29 29 29 29 30 31 31 32 33 34 35 38 40 41 43 45 48 50 53 60 64 63 63 64 66 63 63 65 63 62 64
8 10 10 10 8 6 9 5 8 8 17 29 28 28 28 28 28 28 27 27 28 28 28 29 29 30 30 32 32 33 35 38 40 42 45 47 50 53 57 63 63 62 64 65 62 65 64 63 61
9 11 9 9 7 7 6 7 7 9 25 26 26 27 27 27 27 27 27 27 27 27 27 28 28 29 29 29 30 31 32 36 38 39 41 43 46 50 53 58 62 64 64 65 64 62 65 63 62
11 9 10 10 10 6 7 7 12 25 25 26 27 27 27 27 27 27 27 27 26 26 26 27 27 28 28 29 29 30 31 32 34 36 38 40 43 46 50 54 59 61 64 63 64 64 64 64 63
10 9 7 9 10 8 10 10 27 26 27 26 27 27 26 27 26 26 26 26 26 26 26 27 27 27 28 28 28 29 30 31 33 34 36 38 41 44 47 52 54 60 61 63 64 64 63 63 62
11 11 9 11 9 9 9 9 24 26 27 27 27 27 27 27 26 27 27 27 27 27 28 28 29 28 28 28 29 29 30 32 33 34 36 37 39 42 45 48 52 57 60 61 62 62 62 60 60
11 9 11 8 9 7 8 21 28 27 26 27 26 26 26 27 27 28 27 27 28 28 29 30 30 29 29 29 31 31 32 33 34 35 36 37 39 41 43 46 49 54 57 60 59 60 60 61 59
10 11 9 11 6 6 7 13 23 26 26 28 26 26 27 27 27 27 27 27 28 29 30 32 30 29 29 30 32 33 34 36 37 38 38 39 41 42 43 45 47 51 55 58 59 59 59 59 62
10 9 12 11 10 7 6 9 27 25 26 25 24 25 26 27 27 27 27 28 28 30 30 31 30 29 29 31 32 33 34 35 36 37 39 41 43 44 45 46 48 51 55 58 58 59 58 59 61
13 9 11 10 9 10 11 14 27 26 26 24 23 24 25 26 26 27 27 27 27 29 29 30 29 29 30 31 32 32 32 33 34 34 36 38 40 45 48 49 50 53 53 54 55 55 54 49 58

GFSSGP_sfc_30mbdewp_126.txt.gz
Dewpoint
45 41 39 29 20 20 16 15 12 6 6 4 3 18 31 29 35 36 51 57 66 67 70 71 71 72 71 70 70 71 71 71 71 70 70 71 71 70 71 72 72 73 72 71 71 70 70 69 69
46 40 32 26 20 17 17 18 5 4 6 7 6 10 29 37 42 47 51 61 65 67 69 70 71 71 72 71 71 71 71 71 71 70 70 70 71 71 71 71 71 72 72 71 70 70 71 70 69
41 43 27 24 22 18 18 14 16 9 10 10 10 14 31 38 45 50 58 66 67 68 69 69 70 71 71 72 71 71 71 71 71 70 70 71 71 71 71 71 71 72 72 72 71 71 71 69 69
35 29 25 22 21 23 22 22 21 11 12 13 13 25 36 42 47 54 62 67 67 68 68 69 70 71 71 72 71 71 71 71 71 70 71 71 71 71 70 70 72 71 71 72 71 71 70 69 69
34 28 23 21 21 22 22 21 20 20 20 21 18 30 31 34 51 60 62 67 67 68 69 69 69 70 71 71 71 71 71 71 71 71 71 71 71 71 70 70 71 71 71 71 71 70 69 68 69
28 25 22 20 21 21 20 20 20 22 24 23 23 31 31 34 30 54 62 67 68 68 68 69 69 70 70 71 71 71 71 71 70 70 70 71 71 70 70 70 71 71 70 71 71 69 68 68 68
24 20 20 20 19 18 18 18 16 19 23 22 24 30 31 30 30 38 61 65 69 69 68 68 69 69 70 70 71 71 71 70 70 70 70 71 70 70 70 70 70 70 70 70 70 69 68 68 68
22 20 18 18 17 17 14 17 17 15 19 23 24 23 27 29 28 31 41 62 68 69 68 68 68 69 69 70 70 70 70 70 70 70 70 70 70 70 69 70 70 70 70 70 69 68 68 68 67
22 19 19 19 18 16 15 12 15 17 16 18 23 20 26 27 26 24 26 45 60 68 69 68 68 68 68 68 70 70 70 70 70 70 70 70 70 70 69 69 70 70 70 70 69 68 67 67 67
17 19 19 21 20 16 15 10 12 13 14 17 13 16 20 26 26 25 24 24 26 39 67 70 69 68 67 68 68 69 70 70 70 70 70 70 70 70 69 69 69 69 69 69 68 67 67 67 67
11 11 13 17 17 18 12 8 10 9 11 13 10 10 11 22 21 23 22 24 25 31 63 69 69 68 67 67 67 68 68 69 68 69 69 69 69 69 69 69 69 69 69 69 68 67 67 67 66
9 10 11 12 10 7 7 7 5 7 8 13 10 10 11 15 19 21 20 23 42 46 55 60 61 66 67 68 67 67 67 68 68 68 68 68 69 69 68 68 68 68 68 68 67 67 67 66 66
6 8 10 10 9 9 7 6 6 7 8 9 8 8 9 16 17 19 39 43 44 44 46 48 50 51 54 56 61 67 66 67 67 68 69 69 68 68 68 68 68 68 68 67 66 66 66 66 66
13 12 9 9 9 10 9 7 6 6 7 6 6 6 7 18 32 39 40 41 42 42 43 45 46 46 48 49 51 55 60 65 67 67 68 69 68 68 68 67 67 68 68 67 67 66 66 66 65
12 8 9 9 9 9 9 8 8 7 5 7 8 6 15 36 38 38 38 38 39 40 41 41 43 43 44 45 48 51 53 55 60 66 67 67 66 67 67 67 67 67 67 67 67 66 66 65 65
11 11 9 11 11 13 10 9 9 6 6 8 9 13 30 35 35 35 36 36 36 36 36 38 41 42 42 43 44 47 49 52 54 58 62 65 66 66 66 67 66 67 67 67 67 66 65 65 64
11 8 11 12 15 11 9 5 7 8 8 7 11 14 33 33 34 34 33 33 33 34 35 35 37 37 39 41 42 43 44 47 49 51 53 56 62 66 65 66 66 66 66 66 66 66 65 64 64
8 10 11 12 12 13 12 11 9 9 8 8 10 28 32 31 31 31 31 31 31 31 32 32 34 34 35 37 38 39 41 41 43 46 49 50 53 57 63 65 66 65 66 65 66 65 65 64 64
10 10 10 13 12 12 12 11 8 7 18 26 30 30 30 29 29 29 29 29 29 29 29 30 30 31 32 33 33 34 36 38 41 43 45 50 53 55 57 63 59 62 65 65 65 65 64 64 64
15 14 14 11 12 11 9 8 7 19 29 29 29 28 28 28 28 27 28 28 28 28 28 28 28 29 30 31 32 33 34 36 38 41 43 46 48 50 53 54 63 60 64 64 64 64 63 64 64
15 14 11 10 10 9 8 7 8 23 28 28 28 28 27 27 27 27 27 27 27 27 27 27 27 27 29 30 29 30 31 32 34 37 39 42 44 45 47 50 54 62 59 58 63 63 63 60 63
9 11 11 9 7 6 8 5 7 22 26 27 27 27 27 27 27 27 26 26 26 26 26 27 27 27 28 29 28 29 29 29 31 33 36 38 41 43 45 48 51 55 62 62 62 63 63 61 59
10 10 9 9 8 8 7 5 6 22 25 26 26 26 26 26 26 26 26 25 26 26 27 27 27 27 28 28 28 28 28 29 30 32 33 35 37 39 42 46 49 52 57 61 61 62 62 62 60
11 9 11 11 9 6 7 7 7 24 25 26 26 26 26 26 26 27 26 26 27 28 28 28 28 28 28 28 28 28 28 28 29 30 31 33 35 38 41 43 47 52 54 55 61 61 62 61 61
10 9 7 6 8 7 11 9 23 26 27 26 26 26 26 26 27 27 26 26 27 27 27 27 28 28 28 27 28 28 29 29 29 30 31 32 33 35 38 41 44 47 50 53 58 61 61 61 61
10 10 8 7 10 10 12 8 23 26 27 27 27 27 27 27 26 27 27 26 27 27 27 29 29 28 27 27 28 29 32 32 32 33 33 34 35 36 38 40 41 43 46 48 52 58 61 60 60
11 9 12 9 11 10 11 25 26 27 27 28 27 27 26 26 26 26 26 26 26 26 28 31 29 28 27 28 30 31 33 34 35 35 35 36 37 38 39 40 42 44 45 48 51 56 59 60 60
10 12 8 12 7 7 8 11 18 26 27 26 25 26 26 25 25 25 25 26 27 27 28 31 30 28 29 30 31 32 33 34 35 36 37 39 41 41 41 42 42 44 45 46 49 53 58 59 58
11 9 11 12 11 6 6 7 25 25 26 24 24 25 26 24 25 25 25 25 26 27 27 30 29 29 29 29 31 32 32 33 34 33 35 36 37 39 42 44 44 45 46 47 49 52 57 58 58
14 13 14 9 9 10 9 10 28 26 26 24 23 24 24 24 24 25 25 25 25 26 26 27 27 27 28 29 30 31 32 32 32 32 33 34 34 35 36 37 39 41 43 46 49 52 56 58 57